     2.11           OBSERVATION DATA    G (GPS)             RINEX VERSION / TYPE
teqc 2010Oct21 OPUS Account 20111026 21:30:44UTC            PGM / RUN BY / DATE
Y 1523                                                      MARKER NAME
1203                                                        MARKER NUMBER
CSMIDDLETON NGS                                             OBSERVER / AGENCY
4624K01615 TRIMBLE NETR5 4.41                               REC # / TYPE / VERS
12338145 TRM41249.00 NONE                                   ANT # / TYPE
  -752462.7205 -5522250.8829  3091259.9354                  APPROX POSITION XYZ
        2.0000        0.0000        0.0000                  ANTENNA: DELTA H/E/N
     1     1                                                WAVELENGTH FACT L1/2
     5    L1    L2    C1    P1    P2                        # / TYPES OF OBSERV
    15                                                      LEAP SECONDS
  2011     8    12     0     0    0.0000000     GPS         TIME OF FIRST OBS
                                                            END OF HEADER
 11  8 12  0  0  0.0000000  0  8G10G09G17G04G02G12G05G28
 113380754.614 7  88348756.74245  21575627.516                    21575635.855
 117671605.890 7  91692230.48945  22392170.672                    22392179.750
 116720652.134 7  90951233.157 7  22211187.031                    22211195.109
 106969004.815 8  83352591.26146  20355503.766                    20355511.684
 110184644.098 8  85858320.12146  20967436.891                    20967443.172
 120719991.673 7  94067685.163 7  22972274.281                    22972282.094
 126536676.414 6  98600069.199 6  24079126.039                    24079139.555
 122968935.378 6  95819987.45243  23400210.141                    23400220.285
 11  8 12  0  0 30.0000000  0  8G10G09G17G04G02G12G05G28
 113318914.673 7  88300569.80945  21563859.938                    21563868.688
 117715037.828 7  91726073.49545  22400435.234                    22400445.047
 116760737.346 7  90982468.352 7  22218815.914                    22218823.516
 107017442.604 8  83390334.99946  20364721.391                    20364728.871
 110147675.070 8  85829513.10846  20960402.398                    20960407.789
 120629190.324 7  93996930.926 7  22954995.063                    22955003.613
 126430911.523 6  98517655.259 6  24059001.133                    24059012.984
 123059375.951 6  95890460.46543  23417421.422                    23417430.719
 11  8 12  0  1  0.0000000  0  8G10G09G17G04G02G12G05G28
 113257520.983 7  88252730.61745  21552176.922                    21552185.781
 117758970.083 7  91760306.35345  22408795.898                    22408804.727
 116800920.101 7  91013779.559 7  22226462.117                    22226470.391
 107066265.914 8  83428379.13046  20374011.758                    20374019.730
 110111073.466 8  85800992.41546  20953437.047                    20953442.992
 120538556.535 7  93926307.250 7  22937748.313                    22937756.023
 126325134.500 7  98435231.834 6  24038871.492                    24038883.805
 123150096.382 6  95961151.55443  23434684.438                    23434694.105
 11  8 12  0  1 30.0000000  0  8G10G09G17G04G02G12G05G28
 113196577.061 7  88205241.89145  21540579.492                    21540588.402
 117803400.697 7  91794927.54944  22417250.172                    22417259.168
 116841201.152 7  91045167.370 7  22234127.328                    22234135.289
 107115473.151 8  83466722.42246  20383375.797                    20383383.570
 110074840.077 8  85772758.63446  20946542.156                    20946547.582
 120448093.373 7  93855816.516 7  22920533.539                    22920541.547
 126219348.803 7  98352801.693 6  24018741.203                    24018753.395
 123241095.618 7  96032059.90543  23452000.977                    23452010.883
 11  8 12  0  2  0.0000000  0  8G10G09G17G04G02G12G05G28
 113136086.011 7  88158106.05945  21529069.305                    21529077.355
 117848327.426 7  91829935.33144  22425799.617                    22425808.863
 116881581.181 7  91076632.309 7  22241811.984                    22241819.684
 107165062.153 8  83505363.19146  20392812.344                    20392819.918
 110038974.864 8  85744811.74346  20939717.461                    20939723.074
 120357803.131 7  93785460.530 7  22903351.695                    22903359.727
 126113557.328 7  98270367.020 6  23998609.508                    23998622.273
 123332372.264 7  96103184.38643  23469370.727                    23469380.082
 11  8 12  0  2 30.0000000  0  8G10G09G17G04G02G12G05G28
 113076049.913 7  88111324.72845  21517644.531                    21517652.977
 117893746.709 7  91865326.91644  22434442.672                    22434451.664
 116922060.255 7  91108174.425 7  22249514.555                    22249522.598
 107215029.996 8  83544299.16846  20402320.695                    20402328.648
 110003476.274 8  85717150.53246  20932961.883                    20932967.301
 120267688.214 7  93715241.147 7  22886203.531                    22886211.254
 126007762.200 7  98187929.504 6  23978477.383                    23978489.953
 123423924.049 6  96174523.31743  23486792.188                    23486801.688
 11  8 12  0  3  0.0000000  0  8G10G09G17G04G02G12G05G28
 113016471.903 7  88064900.35645  21506306.883                    21506315.090
 117939656.549 7  91901100.77545  22443178.977                    22443188.891
 116962639.208 7  91139794.371 7  22257236.320                    22257244.426
 107265374.883 8  83583528.94246  20411901.039                    20411908.773
 109968345.469 8  85689775.90646  20926276.492                    20926282.426
 120177751.066 7  93645160.291 7  22869088.438                    22869097.066
 125901966.786 7  98105491.780 6  23958345.172                    23958357.910
 123515750.003 6  96246075.84843  23504266.289                    23504276.074
 11  8 12  0  3 30.0000000  0  8G10G09G17G04G02G12G05G28
 112957354.900 7  88018835.19545  21495057.281                    21495065.488
 117986054.091 7  91937254.64844  22452007.625                    22452017.730
 117003318.636 7  91171492.621 7  22264977.969                    22264985.473
 107316094.278 8  83623050.53746  20421552.906                    20421560.625
 109933582.353 8  85662687.79846  20919661.688                    20919667.730
 120087994.404 7  93575220.093 7  22852008.836                    22852017.152
 125796173.863 7  98023056.014 6  23938212.969                    23938225.535
 123607848.148 6  96317840.47843  23521792.469                    23521801.703
 11  8 12  0  4  0.0000000  0  8G10G09G17G04G02G12G05G28
 112898701.644 7  87973131.40745  21483896.016                    21483904.082
 118032936.690 7  91973786.48844  22460930.195                    22460939.469
 117044098.887 7  91203269.434 7  22272737.656                    22272746.105
 107367185.994 8  83662862.25546  20431275.078                    20431282.898
 109899186.209 8  85635885.64846  20913116.047                    20913121.957
 119998420.738 7  93505422.465 7  22834962.938                    22834971.168
 125690386.243 7  97940624.363 6  23918082.094                    23918094.473
 123700217.038 6  96389816.06543  23539369.133                    23539379.445
 11  8 12  0  4 30.0000000  0  8G10G09G17G04G02G12G05G28
 112840515.144 7  87927791.32545  21472823.016                    21472831.852
 118080301.607 7  92010694.14644  22469943.430                    22469952.688
 117084980.607 7  91235125.304 7  22280517.328                    22280525.383
 107418647.908 8  83702962.43946  20441068.031                    20441075.715
 109865157.075 8  85609369.47446  20906640.383                    20906646.168
 119909032.643 7  93435769.451 7  22817953.453                    22817961.543
 125584606.690 7  97858198.985 6  23897952.984                    23897964.891
 123792854.992 6  96462001.30143  23556998.359                    23557008.219
 11  8 12  0  5  0.0000000  0  8G10G09G17G04G02G12G05G28
 112782797.452 7  87882816.55245  21461839.906                    21461848.605
 118128145.670 7  92047975.17845  22479047.570                    22479057.273
 117125963.953 7  91267060.381 7  22288316.031                    22288323.734
 107470477.166 8  83743348.86446  20450930.844                    20450938.582
 109831494.071 8  85583138.59046  20900234.758                    20900240.750
 119819832.194 7  93366262.654 7  22800978.711                    22800986.727
 125478837.688 7  97775781.803 6  23877825.328                    23877837.133
 123885760.034 6  96534394.68943  23574677.203                    23574687.629
 11  8 12  0  5 30.0000000  0  8G10G09G17G04G02G12G05G28
 112725551.486 7  87838209.35445  21450946.359                    21450955.055
 118176466.436 7  92085627.68244  22488242.531                    22488251.809
 117167049.308 7  91299074.942 7  22296134.125                    22296142.348
 107522671.566 8  83784019.81746  20460862.938                    20460871.078
 109798196.764 8  85557192.66646  20893898.781                    20893903.902
 119730821.703 7  93296903.875 7  22784040.227                    22784048.547
 125373082.068 6  97693375.049 6  23857700.578                    23857712.398
 123978930.646 6  96606995.00743  23592406.891                    23592417.199
 11  8 12  0  6  0.0000000  0  8G10G09G17G04G02G12G05G28
 112668780.312 7  87793972.11345  21440143.078                    21440151.324
 118225261.242 7  92123649.56544  22497528.039                    22497537.219
 117208237.476 7  91331169.612 7  22303972.234                    22303980.129
 107575229.030 8  83824973.67446  20470864.469                    20470872.340
 109765265.521 8  85531531.99546  20887631.789                    20887637.512
 119642003.954 7  93227695.264 7  22767139.281                    22767147.004
 125267342.618 7  97610980.920 6  23837578.867                    23837590.477
 124072365.120 6  96679800.90843  23610187.680                    23610197.656
 11  8 12  0  6 30.0000000  0  8G10G09G17G04G02G12G05G28
 112612486.412 7  87750106.77645  21429430.570                    21429439.309
 118274527.384 7  92162038.72345  22506902.984                    22506912.734
 117249528.963 7  91363344.797 7  22311830.516                    22311837.410
 107628146.948 8  83866208.40546  20480934.250                    20480942.430
 109732700.219 8  85506156.46646  20881434.484                    20881440.813
 119553381.518 7  93158638.873 7  22750275.141                    22750283.164
 125161622.431 6  97528601.749 6  23817460.938                    23817472.363
 124166061.519 6  96752810.97843  23628017.391                    23628027.207
 11  8 12  0  7  0.0000000  0  8G10G09G17G04G02G12G05G28
 112556672.380 7  87706615.36545  21418809.289                    21418818.340
 118324261.917 7  92200792.86444  22516367.445                    22516376.602
 117290924.416 7  91395600.988 7  22319707.391                    22319715.402
 107681423.284 8  83907722.42346  20491072.625                    20491080.563
 109700500.612 8  85481065.90246  20875306.789                    20875313.246
 119464956.856 7  93089736.567 7  22733448.609                    22733456.070
 125055924.245 7  97446239.732 6  23797346.625                    23797358.578
 124260018.219 6  96826023.84043  23645896.547                    23645907.258
 11  8 12  0  7 30.0000000  0  8G10G09G17G04G02G12G05G28
 112501340.981 8  87663500.03645  21408280.547                    21408288.961
 118374461.944 7  92239909.73844  22525920.016                    22525929.641
 117332423.999 7  91427938.326 7  22327604.320                    22327612.363
 107735055.501 8  83949513.75746  20501278.664                    20501286.371
 109668666.009 8  85456259.75046  20869249.461                    20869255.316
 119376732.534 7  93020990.367 7  22716659.648                    22716667.758
 124950250.940 7  97363897.101 6  23777237.789                    23777249.895
 124354233.529 6  96899438.18743  23663825.172                    23663835.746
 11  8 12  0  8  0.0000000  0  8G10G09G17G04G02G12G05G28
 112446494.640 7  87620762.65745  21397843.906                    21397852.047
 118425124.298 7  92279386.86244  22535560.914                    22535570.730
 117374028.117 7  91460357.117 7  22335521.500                    22335529.355
 107789040.864 8  83991580.26946  20511551.398                    20511559.422
 109637195.549 8  85431737.33546  20863260.648                    20863266.535
 119288710.720 7  92952401.974 7  22699909.391                    22699917.531
 124844604.735 7  97281575.558 6  23757134.078                    23757145.398
 124448705.812 6  96973052.76743  23681803.078                    23681813.176
 11  8 12  0  8 30.0000000  0  8G10G09G17G04G02G12G05G28
 112392135.993 7  87578405.31745  21387499.125                    21387507.820
 118476246.035 7  92319221.95744  22545288.914                    22545298.496
 117415737.151 7  91492857.638 7  22343458.000                    22343465.594
 107843377.015 8  84033920.12546  20521891.719                    20521899.520
 109606089.251 8  85407498.68846  20857341.430                    20857347.395
 119200894.425 7  92883973.717 7  22683198.680                    22683206.715
 124738988.821 7  97199277.613 6  23737035.625                    23737046.879
 124543432.718 6  97046865.80743  23699829.680                    23699839.371
 11  8 12  0  9  0.0000000  0  8G10G09G17G04G02G12G05G28
 112338268.152 8  87536430.40245  21377248.813                    21377257.066
 118527825.114 7  92359413.41144  22555104.563                    22555113.715
 117457552.738 7  91525441.199 7  22351415.219                    22351423.148
 107898062.231 8  84076531.98846  20532297.492                    20532305.684
 109575347.278 8  85383543.91646  20851491.414                    20851497.219
 119113285.883 7  92815707.352 7  22666527.328                    22666535.254
 124633406.321 7  97117005.708 6  23716943.250                    23716955.188
 124638413.185 6  97120876.40143  23717902.586                    23717913.582
 11  8 12  0  9 30.0000000  0  8G10G09G17G04G02G12G05G28
 112284893.426 8  87494839.73446  21367091.797                    21367100.184
 118579858.422 7  92399958.80744  22565005.547                    22565015.273
 117499474.639 7  91558107.600 7  22359392.586                    22359400.422
 107953094.344 8  84119414.15046  20542770.117                    20542777.848
 109544969.182 8  85359872.69446  20845710.570                    20845716.227
 119025887.535 7  92747604.783 7  22649896.117                    22649904.402
 124527860.090 7  97034762.092 6  23696858.766                    23696869.813
 124733645.465 6  97195083.23243  23736025.727                    23736036.004
 11  8 12  0 10  0.0000000  0  8G10G09G17G04G02G12G05G28
 112232014.338 8  87453635.29345  21357029.164                    21357037.438
 118632342.700 7  92440855.62045  22574993.945                    22575003.414
 117541503.129 7  91590857.044 7  22367390.633                    22367398.379
 108008470.468 8  84162564.37946  20553307.406                    20553315.340
 109514954.366 8  85336484.54346  20839999.109                    20840004.676
 118938702.000 7  92679668.040 7  22633305.086                    22633313.156
 124422352.602 7  96952548.697 6  23676781.805                    23676792.531
 124829127.423 6  97269484.63343  23754195.289                    23754205.590
 11  8 12  0 10 30.0000000  0  8G10G09G17G04G02G12G05G28
 112179634.318 7  87412819.73045  21347061.750                    21347070.078
 118685275.722 6  92482102.09745  22585065.844                    22585076.117
 117583639.666 7  91623690.667 7  22375409.039                    22375417.121
 108064188.949 8  84205981.37546  20563910.586                    20563918.398
 109485303.157 8  85313379.72246  20834356.648                    20834361.969
 118851732.555 7  92611899.679 7  22616755.711                    22616763.176
 124316887.590 7  96870368.392 6  23656711.867                    23656722.914
 124924857.978 6  97344079.66042  23772412.633                    23772422.137
 11  8 12  0 11  0.0000000  0  8G10G09G17G04G02G12G05G28
 112127754.865 8  87372394.22245  21337189.305                    21337197.629
 118738653.816 7  92523695.36444  22595223.906                    22595233.363
 117625884.047 7  91656608.321 7  22383448.086                    22383456.371
 108120246.703 8  84249662.74546  20574577.508                    20574585.703
 109456014.517 8  85290557.41946  20828783.266                    20828788.637
 118764980.983 7  92544301.115 7  22600247.141                    22600255.125
 124211467.198 7  96788222.856 6  23636650.578                    23636661.676
 125020834.596 6  97418866.52943  23790676.227                    23790685.914
 11  8 12  0 11 30.0000000  0  8G10G09G17G04G02G12G05G28
 112076378.476 8  87332360.71145  21327412.234                    21327420.965
 118792474.208 7  92565633.27845  22605465.711                    22605475.207
 117668236.614 7  91689610.310 7  22391507.273                    22391515.035
 108176641.162 8  84293606.47946  20585309.094                    20585317.527
 109427087.811 8  85268017.14146  20823278.688                    20823284.176
 118678449.723 7  92476874.186 7  22583780.648                    22583787.930
 124106094.292 7  96706114.283 6  23616598.313                    23616610.059
 125117055.471 6  97493843.64143  23808986.383                    23808996.590
 11  8 12  0 12  0.0000000  0  8G10G09G17G04G02G12G05G28
 112025507.857 8  87292721.30945  21317731.945                    21317740.414
 118846734.155 6  92607913.71045  22615790.867                    22615800.844
 117710698.118 7  91722697.162 7  22399587.656                    22399594.840
 108233370.472 8  84337811.14146  20596104.406                    20596112.535
 109398522.870 8  85245758.75846  20817842.875                    20817848.566
 118592141.308 7  92409620.925 7  22567356.758                    22567364.406
 124000771.783 7  96624045.020 6  23596556.430                    23596568.348
 125213518.712 6  97569009.63943  23827343.523                    23827353.461
 11  8 12  0 12 30.0000000  0  8G10G09G17G04G02G12G05G28
 111975145.498 7  87253477.94745  21308148.273                    21308157.074
 118901430.366 7  92650534.06544  22626199.063                    22626209.043
 117753269.224 7  91755869.427 7  22407688.617                    22407696.250
 108290431.959 8  84382274.63546  20606963.188                    20606970.809
 109370319.109 8  85223781.80446  20812475.664                    20812481.262
 118506058.402 7  92342543.394 7  22550975.422                    22550983.715
 123895502.473 7  96542017.171 6  23576523.898                    23576536.063
 125310222.577 6  97644363.15343  23845745.656                    23845755.379
 11  8 12  0 13  0.0000000  0  8G10G09G17G04G02G12G05G28
 111925293.784 8  87214632.48445  21298661.742                    21298670.633
 118956560.021 6  92693492.18944  22636689.844                    22636700.355
 117795950.280 7  91789127.367 7  22415810.492                    22415817.973
 108347823.244 8  84426995.12746  20617884.211                    20617892.258
 109342476.092 8  85202085.95246  20807177.148                    20807182.891
 118420203.581 7  92275643.609 7  22534638.172                    22534645.824
 123790289.171 7  96460032.985 6  23556502.008                    23556513.469
 125407165.106 6  97719902.61843  23864193.375                    23864203.277
 11  8 12  0 13 30.0000000  0  8G10G09G17G04G02G12G05G28
 111875955.635 8  87176187.19645  21289273.102                    21289281.508
 119012119.895 7  92736785.55644  22647262.680                    22647272.879
 117838741.991 7  91822471.535 7  22423953.352                    22423961.496
 108405542.032 8  84471970.81146  20628867.781                    20628875.148
 109314993.651 8  85180671.07346  20801947.695                    20801953.316
 118334579.495 7  92208923.599 7  22518343.758                    22518352.184
 123685134.820 7  96378094.709 6  23536492.477                    23536503.234
 125504344.784 6  97795626.88143  23882686.063                    23882696.199
 11  8 12  0 14  0.0000000  0  8G10G09G17G04G02G12G05G28
 111827133.215 8  87138143.78046  21279982.281                    21279990.965
 119068107.049 7  92780411.85244  22657916.305                    22657926.520
 117881645.202 7  91855902.580 7  22432117.844                    22432125.750
 108463586.187 8  84517200.02746  20639913.398                    20639921.078
 109287871.422 8  85159536.88146  20796786.500                    20796792.129
 118249188.519 7  92142385.257 7  22502094.844                    22502102.453
 123580042.751 7  96296204.973 6  23516494.141                    23516504.691
 125601759.881 6  97871534.60543  23901223.906                    23901234.031
 11  8 12  0 14 30.0000000  0  8G10G09G17G04G02G12G05G28
 111778828.859 8  87100504.05245  21270790.672                    21270798.863
 119124518.508 6  92824368.77444  22668651.234                    22668661.379
 117924660.330 7  91889420.839 7  22440302.570                    22440311.195
 108521953.199 8  84562680.80646  20651020.266                    20651027.801
 109261108.694 8  85138682.82846  20791693.758                    20791699.516
 118164033.568 7  92076030.804 7  22485890.188                    22485897.840
 123475015.192 7  96214365.493 6  23496507.930                    23496518.605
 125699408.181 6  97947624.04143  23919805.422                    23919815.977
 11  8 12  0 15  0.0000000  0  8G10G09G17G04G02G12G05G28
 111731044.769 8  87063269.73746  21261697.609                    21261705.828
 119181351.046 7  92868653.79844  22679465.805                    22679476.227
 117967787.510 7  91923026.416 7  22448510.117                    22448517.992
 108580640.481 8  84608411.16046  20662188.078                    20662195.391
 109234704.659 8  85118108.26446  20786669.063                    20786674.773
 118079116.627 7  92009861.829 7  22469731.000                    22469738.875
 123370055.341 7  96132578.789 6  23476534.125                    23476545.707
 125797287.729 6  98023893.64043  23938431.469                    23938442.262
 11  8 12  0 15 30.0000000  0  8G10G09G17G04G02G12G05G28
 111683783.787 8  87026443.04146  21252704.258                    21252712.156
 119238602.188 6  92913265.01244  22690361.430                    22690371.246
 118011027.661 7  91956720.020 7  22456738.359                    22456747.180
 108639646.165 8  84654389.60846  20673416.297                    20673424.199
 109208659.468 8  85097813.32446  20781712.625                    20781718.191
 117994440.698 7  91943880.639 7  22453618.086                    22453625.719
 123265166.299 7  96050847.251 6  23456574.250                    23456585.465
 125895397.111 6  98100342.38243  23957100.391                    23957111.277
 11  8 12  0 16  0.0000000  0  8G10G09G17G04G02G12G05G28
 111637047.470 8  86990025.17445  21243810.383                    21243818.711
 119296268.132 7  92958199.47344  22701334.672                    22701344.586
 118054380.849 7  91990501.702 7  22464988.266                    22464996.461
 108698967.176 8  84700613.76146  20684704.719                    20684712.617
 109182971.968 8  85077797.10446  20776824.195                    20776830.074
 117910008.093 7  91878089.050 7  22437550.922                    22437558.566
 123160350.655 7  95969172.905 6  23436628.281                    23436639.500
 125993733.617 6  98176968.04943  23975813.898                    23975825.301
 11  8 12  0 16 30.0000000  0  8G10G09G17G04G02G12G05G28
 111590838.617 8  86954018.31545  21235016.977                    21235025.027
 119354346.349 7  93003455.17445  22712385.836                    22712396.695
 118097848.116 7  92024372.270 7  22473259.719                    22473267.777
 108758601.549 8  84747082.08846  20696052.828                    20696060.891
 109157642.246 8  85058059.65946  20772004.797                    20772010.484
 117825821.660 7  91812489.291 7  22421530.438                    22421538.438
 123055611.455 7  95887558.141 6  23416697.625                    23416708.355
 126092295.941 6  98253769.63443  23994569.102                    23994580.848
 11  8 12  0 17  0.0000000  0  8G10G09G17G04G02G12G05G28
 111545159.613 8  86918424.32845  21226324.438                    21226332.918
 119412833.608 7  93049029.61345  22723516.805                    22723525.980
 118141429.778 7  92058331.998 7  22481553.117                    22481561.000
 108818546.864 8  84793792.70746  20707460.180                    20707468.070
 109132669.546 8  85038600.43946  20767252.484                    20767257.867
 117741883.786 7  91747083.185 7  22405557.266                    22405565.070
 122950951.673 7  95806005.271 6  23396780.297                    23396791.488
 126191082.268 5  98330745.81442  24013367.719                    24013379.418
 11  8 12  0 17 30.0000000  0  8G10G09G17G04G02G12G05G28
 111500012.949 8  86883245.14046  21217733.375                    21217741.559
 119471727.190 6  93094920.62544  22734723.188                    22734733.148
 118185126.730 7  92092381.538 7  22489868.172                    22489875.965
 108878801.098 8  84840744.03946  20718925.945                    20718934.121
 109108053.637 8  85019419.22646  20762568.258                    20762573.977
 117658197.039 7  91681872.775 7  22389632.430                    22389639.961
 122846374.225 7  95724516.531 6  23376880.289                    23376891.078
 126290090.566 6  98407894.97342  24032208.617                    24032219.750
 11  8 12  0 18  0.0000000  0  8G10G09G17G04G02G12G05G28
 111455400.513 8  86848482.23745  21209244.016                    21209252.129
 119531023.615 7  93141125.59544  22746006.484                    22746017.332
 118228939.432 7  92126521.294 7  22498206.586                    22498213.477
 108939361.485 8  84887933.92546  20730450.125                    20730458.426
 109083793.495 8  85000515.24146  20757951.328                    20757957.273
 117574764.064 7  91616860.100 7  22373755.859                    22373763.520
 122741882.020 7  95643094.216 6  23356995.703                    23357006.941
 126389318.769 5  98485215.50842  24051091.484                    24051102.246
 11  8 12  0 18 30.0000000  0  8G10G09G17G04G02G12G05G28
 111411324.466 7  86814137.29645  21200856.500                    21200864.746
 119590719.340 7  93187641.68944  22757366.523                    22757377.000
 118272868.395 7  92160751.631 7  22506565.914                    22506573.227
 109000225.442 8  84935360.35746  20742032.336                    20742040.461
 109059888.473 8  84981887.96846  20753402.508                    20753408.422
 117491587.198 7  91552046.961 7  22357927.656                    22357935.535
 122637477.852 7  95561740.502 6  23337128.500                    23337139.688
 126488764.867 6  98562705.83442  24070015.633                    24070026.117
 11  8 12  0 19  0.0000000  0  9G30G10G09G17G04G02G12G05G28
 128095855.67915                  24375796.508
 111367787.281 8  86780212.25846  21192571.742                    21192579.793
 119650811.733 7  93234466.88244  22768802.672                    22768812.301
 118316913.976 7  92195072.856 7  22514946.805                    22514954.719
 109061391.109 8  84983021.88846  20753671.594                    20753680.285
 109036338.575 8  84963537.41546  20748921.164                    20748926.855
 117408669.570 7  91487435.845 7  22342148.891                    22342156.637
 122533164.745 7  95480457.740 6  23317278.523                    23317288.996
 126588427.069 6  98640364.55442  24088981.313                    24088991.602
 11  8 12  0 19 30.0000000  0  9G30G10G09G17G04G02G12G05G28
 127989025.698 5  99731588.63152  24355466.398                    24355474.949
 111324791.176 8  86746708.83845  21184389.867                    21184397.844
 119711297.576 6  93281598.63344  22780312.555                    22780322.090
 118361076.983 7  92229485.584 7  22523350.906                    22523358.703
 109122855.920 8  85030916.50546  20765368.195                    20765376.313
 109013142.926 8  84945462.90046  20744507.711                    20744512.813
 117326013.293 7  91423028.366 7  22326420.242                    22326428.305
 122428945.507 7  95399248.112 6  23297446.031                    23297456.645
 126688303.546 6  98718190.22843  24107987.320                    24107997.281
 11  8 12  0 20  0.0000000  0  9G30G10G09G17G04G02G12G05G28
 127882333.474 5  99648451.91942  24335164.281                    24335174.125
 111282338.016 8  86713628.49246  21176311.289                    21176319.250
 119772173.789 7  93329034.59744  22791897.070                    22791906.016
 118405358.239 7  92263990.450 7  22531776.773                    22531785.012
 109184617.360 8  85079042.27046  20777120.719                    20777129.027
 108990300.858 8  84927663.90946  20740160.508                    20740165.754
 117243620.882 7  91358826.511 7  22310741.586                    22310749.102
 122324823.131 7  95318113.956 6  23277631.523                    23277642.426
 126788392.125 6  98796181.15743  24127034.602                    24127044.512
 11  8 12  0 20 30.0000000  0  9G30G10G09G17G04G02G12G05G28
 127775781.829 5  99565424.72142  24314887.539                    24314898.395
 111240429.990 8  86680972.92646  21168336.211                    21168344.852
 119833436.882 7  93376771.99644  22803555.281                    22803564.785
 118449757.625 7  92298587.364 7  22540225.680                    22540234.402
 109246673.101 8  85127397.36446  20788929.664                    20788937.961
 108967811.990 8  84910140.14446  20735880.672                    20735886.605
 117161495.056 8  91294832.381 7  22295113.313                    22295120.969
 122220800.946 7  95237057.856 6  23257836.461                    23257847.730
 126888690.873 6  98874335.90543  24146119.656                    24146131.359
 11  8 12  0 21  0.0000000  0  9G30G10G09G17G04G02G12G05G28
 127669373.390 6  99482509.12842  24294639.477                    24294648.766
 111199069.520 8  86648744.01646  21160465.516                    21160473.855
 119895083.709 7  93424808.44344  22815285.883                    22815295.254
 118494275.923 7  92333276.919 7  22548697.484                    22548705.797
 109309020.642 8  85175979.82446  20800794.281                    20800801.879
 108945675.167 8  84892890.69846  20731668.398                    20731674.246
 117079638.540 7  91231048.081 7  22279536.234                    22279543.773
 122116881.266 7  95156081.617 6  23238061.500                    23238072.262
 126989197.577 6  98952652.61443  24165245.719                    24165257.121
 11  8 12  0 21 30.0000000  0  9G30G10G09G17G04G02G12G05G28
 127563111.063 6  99399707.36142  24274417.953                    24274427.578
 111158258.710 8  86616943.40846  21152699.727                    21152707.793
 119957111.473 7  93473141.70144  22827089.641                    22827099.219
 118538913.923 7  92368059.746 7  22557192.078                    22557200.074
 109371658.214 8  85224788.28946  20812713.742                    20812721.813
 108923890.550 8  84875915.69346  20727523.266                    20727528.340
 116998053.945 7  91167475.669 7  22264011.320                    22264019.012
 122013067.175 7  95075187.686 7  23218306.656                    23218317.160
 127089910.965 6  99031130.46943  24184410.867                    24184422.738
 11  8 12  0 22  0.0000000  0  9G30G10G09G17G04G02G12G05G28
 127456997.339 6  99317021.48842  24254224.313                    24254234.852
 111117999.592 8  86585572.67346  21145038.547                    21145046.883
 120019516.862 7  93521769.23744  22838964.773                    22838975.027
 118583672.446 7  92402936.512 7  22565709.258                    22565716.977
 109434583.121 8  85273820.64646  20824687.852                    20824696.195
 108902457.278 8  84859214.47846  20723444.141                    20723450.020
 116916743.724 7  91104117.064 7  22248538.398                    22248545.836
 121909361.981 7  94994378.632 7  23198571.266                    23198582.473
 127190828.615 6  99109767.45443  24203614.945                    24203626.602
 11  8 12  0 22 30.0000000  0  9G30G10G09G17G04G02G12G05G28
 127351034.879 6  99234453.45643  24234060.969                    24234071.117
 111078294.236 8  86554633.44846  21137482.797                    21137490.926
 120082296.690 7  93570688.51244  22850911.359                    22850921.527
 118628552.212 7  92437907.725 7  22574249.617                    22574257.918
 109497793.099 8  85323075.14646  20836716.406                    20836724.695
 108881374.553 8  84842786.39846  20719432.383                    20719438.203
 116835710.208 7  91040974.070 7  22233118.281                    22233125.824
 121805768.405 7  94913656.517 7  23178858.539                    23178868.699
 127291948.620 6  99188562.09443  24222858.063                    24222869.051
 11  8 12  0 23  0.0000000  0  9G30G10G09G17G04G02G12G05G28
 127245226.082 6  99152005.21543  24213925.672                    24213936.043
 111039144.443 8  86524127.11945  21130032.867                    21130040.922
 120145447.181 7  93619896.62244  22862928.359                    22862938.418
 118673552.634 7  92472972.958 7  22582812.813                    22582821.195
 109561285.442 8  85372549.66946  20848798.984                    20848806.605
 108860641.501 8  84826630.80046  20715486.953                    20715492.559
 116754956.316 7  90978048.962 7  22217751.516                    22217759.480
 121702289.216 7  94833023.526 7  23159166.813                    23159177.633
 127393268.779 5  99267512.68843  24242138.344                    24242150.059
 11  8 12  0 23 30.0000000  0  9G30G10G09G17G04G02G12G05G28
 127139574.274 6  99069679.25343  24193820.555                    24193830.738
 111000552.717 8  86494055.66445  21122689.133                    21122697.059
 120208965.799 7  93669391.58644  22875015.813                    22875025.504
 118718675.381 7  92508133.496 7  22591399.219                    22591407.750
 109625058.437 8  85422242.88246  20860934.281                    20860942.078
 108840258.169 8  84810747.70946  20711608.063                    20711613.957
 116674484.917 7  90915343.999 7  22202438.648                    22202445.957
 121598927.876 7  94752482.425 7  23139497.469                    23139508.672
 127494787.610 5  99346618.07942  24261457.117                    24261467.648
 11  8 12  0 24  0.0000000  0  9G30G10G09G17G04G02G12G05G28
 127034082.349 6  98987477.84043  24173746.461                    24173756.199
 110962521.251 8  86464420.76846  21115451.875                    21115459.797
 120272849.366 7  93719170.90844  22887173.023                    22887182.824
 118763921.528 7  92543390.202 7  22600009.703                    22600017.848
 109689109.792 8  85472153.00846  20873122.867                    20873131.020
 108820223.747 8  84795136.48746  20707796.008                    20707801.559
 116594298.505 7  90852861.121 7  22187179.648                    22187187.191
 121495687.382 7  94672035.445 7  23119851.758                    23119861.930
 127596503.054 5  99425876.76443  24280813.008                    24280824.359
 11  8 12  0 24 30.0000000  0  9G30G10G09G17G04G02G12G05G28
 126928751.983 6  98905402.32643  24153702.484                    24153712.523
 110925050.832 8  86435223.04445  21108321.000                    21108329.875
 120337094.199 7  93769231.73844  22899397.703                    22899408.223
 118809290.253 7  92578742.420 7  22608643.453                    22608651.086
 109753436.075 8  85522277.35646  20885363.813                    20885372.051
 108800537.194 8  84779796.34246  20704049.375                    20704055.523
 116514399.339 7  90790602.060 7  22171974.883                    22171982.574
 121392569.985 7  94591684.361 6  23100228.461                    23100238.695
 127698412.452 5  99505286.51542  24300204.969                    24300216.797
 11  8 12  0 25  0.0000000  0  9G30G10G09G17G04G02G12G05G28
 126823586.804 6  98823455.52043  24133690.609                    24133699.996
 110888144.515 8  86406464.88846  21101298.586                    21101306.582
 120401697.646 7  93819572.00144  22911692.078                    22911702.023
 118854783.394 7  92614191.588 7  22617300.133                    22617308.422
 109818036.036 8  85572614.97446  20897656.359                    20897664.973
 108781198.268 8  84764727.06846  20700369.422                    20700375.695
 116434790.504 8  90728569.251 7  22156825.953                    22156833.191
 121289579.502 7  94511432.192 6  23080630.477                    23080640.289
 127800514.372 6  99584846.28142  24319635.711                    24319646.773
 11  8 12  0 25 30.0000000  0  8G30G10G09G17G04G02G12G05
 126718589.923 6  98741639.82443  24113710.453                    24113719.535
 110851804.683 8  86378148.16146  21094383.063                    21094390.984
 120466656.580 7  93870189.28844  22924053.172                    22924063.094
 118900401.549 7  92649738.156 7  22625980.750                    22625989.348
 109882907.715 8  85623164.32046  20910001.477                    20910009.344
 108762206.562 8  84749928.35246  20696755.094                    20696761.211
 116355474.771 8  90666764.834 7  22141732.641                    22141740.211
 121186719.097 7  94431281.360 7  23061057.008                    23061066.668
 11  8 12  0 26  0.0000000  0  8G30G10G09G17G04G02G12G05
 126613762.901 6  98659956.47842  24093761.891                    24093771.500
 110816031.921 8  86350273.29946  21087575.836                    21087583.934
 120531966.905 7  93921080.35944  22936481.344                    22936491.063
 118946144.515 7  92685381.990 7  22634685.891                    22634693.742
 109948047.576 8  85673922.64046  20922397.273                    20922405.355
 108743560.281 8  84735398.78946  20693206.844                    20693212.719
 116276453.818 8  90605190.131 7  22126695.438                    22126702.969
 121083990.866 7  94351233.512 6  23041508.008                    23041518.012
 11  8 12  0 26 30.0000000  0  8G30G10G09G17G04G02G12G05
 126509108.683 6  98578407.79943  24073846.273                    24073856.461
 110780828.403 8  86322842.01046  21080876.813                    21080884.992
 120597625.479 7  93972242.79244  22948975.461                    22948985.555
 118992012.502 7  92721123.220 7  22643413.859                    22643422.477
 110013453.510 8  85724888.29046  20934843.406                    20934851.625
 108725259.211 8  84721138.22546  20689724.164                    20689730.074
 116197730.550 7  90543847.376 7  22111714.875                    22111722.367
 120981397.985 7  94271291.127 7  23021985.031                    23021995.047
 11  8 12  0 27  0.0000000  0  8G30G10G09G17G04G02G12G05
 126404629.995 6  98496995.85943  24053965.602                    24053975.297
 110746196.148 8  86295855.85146  21074286.445                    21074294.688
 120663629.086 7  94023674.10144  22961535.625                    22961545.598
 119038006.668 7  92756962.766 7  22652166.953                    22652174.582
 110079123.136 8  85776059.42146  20947340.102                    20947348.059
 108707302.354 8  84707145.88346  20686307.406                    20686312.918
 116119307.405 7  90482738.491 7  22096791.039                    22096799.219
 120878943.078 7  94191456.254 7  23002488.008                    23002498.219
 11  8 12  0 27 30.0000000  0  8G30G10G09G17G04G02G12G05
 126300329.560 6  98415722.77643  24034117.297                    24034126.348
 110712136.923 8  86269316.21246  21067805.305                    21067813.473
 120729974.343 7  94075371.64044  22974160.734                    22974171.246
 119084127.092 7  92792900.708 7  22660942.742                    22660951.180
 110145054.068 8  85827434.16946  20959886.375                    20959894.324
 108689688.811 8  84693421.06246  20682955.633                    20682961.313
 116041187.003 7  90421865.512 7  22081925.398                    22081932.773
 120776629.036 7  94111731.136 7  22983018.359                    22983029.219
 11  8 12  0 28  0.0000000  0  8G30G10G09G17G04G02G12G05
 126196210.604 5  98334591.20942  24014304.273                    24014313.215
 110678652.795 8  86243224.70446  21061433.320                    21061441.672
 120796658.334 7  94127333.12044  22986850.633                    22986860.941
 119130375.167 7  92828938.120 7  22669743.664                    22669752.258
 110211244.371 8  85879011.02046  20972481.992                    20972490.125
 108672418.601 8  84679963.77646  20679669.414                    20679674.727
 115963371.988 7  90361230.472 7  22067117.914                    22067125.707
 120674459.695 7  94032118.795 7  22963575.883                    22963586.809
 11  8 12  0 28 30.0000000  0  8G30G10G09G17G04G02G12G05
 126092275.333 6  98253602.70043  23994526.531                    23994535.258
 110645745.003 8  86217582.29646  21055171.094                    21055179.438
 120863677.325 7  94179555.61044  22999603.109                    22999613.973
 119176751.027 7  92865075.106 7  22678568.922                    22678576.680
 110277691.545 8  85930788.04246  20985126.602                    20985134.652
 108655490.316 8  84666772.93246  20676447.836                    20676453.234
 115885864.888 7  90300835.394 7  22052368.461                    22052376.316
 120572437.316 7  93952620.964 7  22944162.023                    22944172.719
 11  8 12  0 29  0.0000000  0  8G30G10G09G17G04G02G12G05
 125988527.140 6  98172759.94343  23974784.195                    23974792.859
 110613415.675 7  86192390.63746  21049018.898                    21049027.477
 120931028.519 7  94232036.99344  23012420.945                    23012430.926
 119223256.172 7  92901312.847 6  22687418.906                    22687426.477
 110344393.274 8  85982763.40746  20997819.031                    20997827.426
 108638903.901 8  84653848.47346  20673291.609                    20673296.953
 115808668.707 7  90240682.556 7  22037678.719                    22037685.730
 120470565.289 7  93873240.287 7  22924776.016                    22924786.543
 11  8 12  0 29 30.0000000  0  8G30G10G09G17G04G02G12G05
 125884968.003 6  98092064.54043  23955076.383                    23955085.363
 110581665.970 8  86167650.64046  21042977.109                    21042985.676
 120998707.903 7  94284774.13644  23025299.055                    23025309.594
 119269889.290 7  92937650.295 7  22696292.563                    22696300.797
 110411346.897 8  86034935.06746  21010560.211                    21010568.387
 108622657.498 8  84641188.94846  20670200.039                    20670205.094
 115731784.974 7  90180773.190 7  22023047.867                    22023055.391
 120368846.117 7  93793978.718 7  22905418.977                    22905429.777
 11  8 12  0 30  0.0000000  0  8G30G10G09G17G04G02G12G05
 125781601.280 6  98011519.13943  23935407.492                    23935416.242
 110550498.131 8  86143364.04446  21037046.328                    21037054.816
 121066712.898 7  94337764.97744  23038240.383                    23038250.945
 119316652.140 7  92974088.820 7  22705190.703                    22705199.867
 110478550.441 8  86087301.47146  21023348.625                    21023356.977
 108606751.243 8  84628794.46746  20667173.055                    20667178.941
 115655217.240 7  90121110.053 7  22008477.352                    22008485.332
 120267283.083 7  93714838.794 7  22886092.352                    22886103.066
 11  8 12  0 30 30.0000000  0  8G30G10G09G17G04G02G12G05
 125678429.533 6  97931125.69743  23915773.906                    23915783.074
 110519913.760 8  86119532.09846  21031225.867                    21031234.328
 121135039.691 7  94391006.58744  23051242.555                    23051252.391
 119363545.516 7  93010629.074 7  22714114.469                    22714122.520
 110546001.609 8  86139860.82446  21036183.961                    21036192.367
 108591184.061 8  84616664.19846  20664210.641                    20664216.723
 115578967.767 7  90061694.907 7  21993967.813                    21993975.527
 120165879.214 7  93635822.920 7  22866796.336                    22866806.602
 11  8 12  0 31  0.0000000  0  8G30G10G09G17G04G02G12G05
 125575455.471 6  97850886.30643  23896177.906                    23896187.410
 110489914.147 8  86096155.79746  21025517.375                    21025525.707
 121203684.707 7  94444496.13244  23064305.578                    23064315.820
 119410569.701 7  93047271.243 7  22723063.398                    22723071.629
 110613697.916 8  86192611.19346  21049066.336                    21049074.262
 108575955.239 8  84604797.60346  20661312.570                    20661318.113
 115503039.218 8  90002529.850 7  21979518.930                    21979526.809
 120064637.415 7  93556933.319 7  22847530.172                    22847540.332
 11  8 12  0 31 30.0000000  0  8G30G10G09G17G04G02G12G05
 125472681.805 6  97770803.03643  23876621.234                    23876630.582
 110460501.219 8  86073236.66746  21019920.023                    21019928.633
 121272644.713 7  94498231.15344  23077427.828                    23077438.609
 119457725.192 7  93084015.754 7  22732037.570                    22732045.148
 110681637.086 8  86245550.80946  21061994.695                    21062002.949
 108561063.761 8  84593193.86746  20658478.891                    20658484.449
 115427434.291 8  89943616.948 7  21965131.805                    21965139.566
 119963560.398 7  93478172.125 7  22828296.234                    22828306.492
 11  8 12  0 32  0.0000000  0  8G30G10G09G17G04G02G12G05
 125370111.304 5  97690878.11843  23857102.305                    23857111.438
 110431676.700 8  86050776.02746  21014435.281                    21014443.051
 121341916.477 7  94552209.06144  23090609.875                    23090621.102
 119505012.605 7  93120863.044 7  22741035.203                    22741043.801
 110749816.795 8  86298677.86346  21074968.625                    21074976.598
 108546508.654 8  84581852.24046  20655709.484                    20655714.867
 115352155.112 8  89884957.866 7  21950806.703                    21950814.426
 119862651.352 7  93399541.797 7  22809093.688                    22809103.551
 11  8 12  0 32 30.0000000  0  8G30G10G09G17G04G02G12G05
 125267747.537 5  97611114.29242  23837622.508                    23837631.652
 110403442.697 8  86028775.53446  21009062.633                    21009070.492
 121411497.322 6  94606427.84244  23103850.734                    23103861.469
 119552433.229 7  93157814.120 7  22750059.148                    22750067.371
 110818235.323 8  86351991.00246  21087988.508                    21087996.453
 108532290.176 8  84570772.92446  20653003.883                    20653009.320
 115277204.970 8  89826555.177 7  21936544.320                    21936551.441
 119761913.971 7  93321045.254 7  22789924.078                    22789933.895
 11  8 12  0 33  0.0000000  0  8G30G10G09G17G04G02G12G05
 125165592.317 6  97531512.90843  23818183.836                    23818192.512
 110375799.913 8  86007235.72146  21003802.266                    21003810.203
 121481383.028 7  94660884.16744  23117149.711                    23117159.676
 119599986.722 7  93194868.736 7  22759107.977                    22759116.457
 110886889.664 8  86405487.88846  21101052.781                    21101061.227
 108518406.239 8  84559954.28546  20650361.344                    20650367.117
 115202585.607 7  89768410.245 7  21922344.648                    21922351.988
 119661350.276 7  93242684.029 7  22770786.797                    22770796.387
 11  8 12  0 33 30.0000000  0  8G30G10G09G17G04G02G12G05
 125063649.312 6  97452076.89543  23798784.570                    23798793.453
 110348750.596 8  85986158.36146  20998654.766                    20998662.887
 121551571.280 7  94715576.23944  23130506.453                    23130516.855
 119647674.402 7  93232027.912 6  22768182.594                    22768190.355
 110955778.270 8  86459167.33246  21114162.141                    21114170.125
 108504857.365 8  84549396.73146  20647783.133                    20647788.793
 115128300.369 8  89710525.669 7  21908208.492                    21908216.250
 119560964.258 7  93164461.263 7  22751684.648                    22751694.480
 11  8 12  0 34  0.0000000  0  8G30G10G09G17G04G02G12G05
 124961920.337 6  97372807.65843  23779426.055                    23779434.852
 110322295.241 8  85965543.82846  20993620.672                    20993628.289
 121622057.538 7  94770500.55344  23143919.500                    23143929.973
 119695496.161 7  93269291.574 7  22777282.953                    22777290.863
 111024898.092 8  86513026.92846  21127315.141                    21127323.449
 108491641.320 8  84539098.53046  20645268.211                    20645273.797
 115054351.090 7  89652902.889 7  21894136.297                    21894143.641
 119460757.957 7  93086378.537 7  22732615.539                    22732625.395
 11  8 12  0 34 30.0000000  0  8G30G10G09G17G04G02G12G05
 124860408.888 6  97293707.87143  23760108.688                    23760117.766
 110296435.795 8  85945393.63746  20988699.539                    20988707.602
 121692838.979 7  94825654.86144  23157388.867                    23157399.109
 119743453.158 7  93306660.609 7  22786409.070                    22786416.914
 111094247.327 8  86567065.30046  21140511.648                    21140520.145
 108478757.924 8  84529059.52546  20642816.688                    20642821.770
 114980741.000 7  89595544.417 7  21880128.656                    21880136.168
 119360734.429 7  93008438.246 7  22713581.281                    22713591.098
 11  8 12  0 35  0.0000000  0  8G30G10G09G17G04G02G12G05
 124759117.534 6  97214779.60643  23740833.930                    23740842.457
 110271173.867 8  85925709.04046  20983892.336                    20983900.258
 121763912.232 7  94881036.53744  23170913.438                    23170924.004
 119791545.705 7  93344135.292 7  22795560.477                    22795568.996
 111163823.497 8  86621280.49646  21153751.516                    21153759.883
 108466206.150 8  84519278.93746  20640428.305                    20640433.602
 114907472.248 8  89538451.924 7  21866186.203                    21866193.801
 119260897.022 7  92930642.966 7  22694582.789                    22694592.352
 11  8 12  0 35 30.0000000  0  8G30G10G09G17G04G02G12G05
 124658048.893 6  97136024.85843  23721601.508                    23721609.965
 110246510.295 8  85906490.70546  20979199.141                    20979207.309
 121835273.488 7  94936642.63444  23184493.297                    23184503.645
 119839774.363 7  93381716.021 7  22804738.359                    22804746.750
 111233624.197 8  86675670.64446  21167034.305                    21167042.262
 108453984.689 8  84509755.73346  20638102.563                    20638108.156
 114834547.190 7  89481627.246 7  21852308.602                    21852316.887
 119161248.362 7  92852994.751 7  22675620.375                    22675630.152
 11  8 12  0 36  0.0000000  0  8G30G10G09G17G04G02G12G05
 124557205.982 6  97057445.95443  23702411.406                    23702419.582
 110222447.186 8  85887740.26146  20974619.930                    20974628.078
 121906919.696 6  94992470.77544  23198126.625                    23198137.711
 119888140.118 7  93419403.576 7  22813941.688                    22813950.352
 111303647.281 8  86730234.08746  21180358.961                    21180367.211
 108442093.281 8  84500489.70546  20635839.617                    20635845.059
 114761968.836 8  89425072.735 7  21838497.805                    21838505.371
 119061791.828 7  92775496.263 7  22656694.250                    22656704.141
 11  8 12  0 36 30.0000000  0  8G30G10G09G17G04G02G12G05
 124456592.169 6  96979045.61243  23683265.203                    23683273.832
 110198986.007 8  85869458.85546  20970155.539                    20970163.074
 121978848.062 7  95048518.77544  23211814.531                    23211824.699
 119936643.417 7  93457198.303 7  22823171.922                    22823180.551
 111373891.203 8  86784969.60846  21193726.375                    21193734.488
 108430531.692 8  84491480.67646  20633639.469                    20633644.996
 114689739.908 7  89368790.494 7  21824752.891                    21824760.457
 118962530.613 7  92698149.963 7  22637805.867                    22637815.402
 11  8 12  0 37  0.0000000  0  8G30G10G09G17G04G02G12G05
 124356209.978 6  96900825.72743  23664162.430                    23664171.961
 110176127.849 8  85851647.33846  20965805.797                    20965814.051
 122051054.683 7  95104783.59744  23225554.805                    23225565.941
 119985284.953 7  93495100.777 7  22832428.430                    22832436.641
 111444353.174 8  86839875.03046  21207134.531                    21207142.945
 108419298.473 8  84482727.52746  20631502.055                    20631507.449
 114617862.734 7  89312782.347 7  21811074.883                    21811082.105
 118863467.629 7  92620958.128 7  22618954.703                    22618964.082
 11  8 12  0 37 30.0000000  0  8G30G10G09G17G04G02G12G05
 124256062.084 6  96822788.45743  23645104.984                    23645114.785
 110153874.036 8  85834306.74446  20961570.469                    20961578.684
 122123536.142 6  95161262.56944  23239347.625                    23239358.910
 120034065.376 7  93533111.472 7  22841711.133                    22841719.000
 111515031.056 8  86894948.70146  21220583.883                    21220592.398
 108408392.691 8  84474229.51746  20629426.844                    20629432.496
 114546339.902 8  89257050.299 7  21797464.492                    21797472.309
 118764605.629 7  92543922.909 7  22600141.250                    22600150.965
 11  8 12  0 38  0.0000000  0  8G30G10G09G17G04G02G12G05
 124156151.012 6  96744935.74543  23626092.836                    23626101.727
 110132225.270 8  85817437.61446  20957451.367                    20957459.332
 122196288.969 7  95217953.00944  23253191.648                    23253203.512
 120082984.712 7  93571230.415 6  22851019.273                    22851027.691
 111585922.248 8  86950188.57245  21234074.680                    21234082.441
 108397813.044 8  84465985.63846  20627413.055                    20627418.762
 114475173.648 8  89201596.127 7  21783922.367                    21783929.762
 118665947.501 7  92467046.547 7  22581367.508                    22581376.676
 11  8 12  0 38 30.0000000  0  8G30G10G09G17G04G02G12G05
 124056479.554 6  96667269.70043  23607125.656                    23607134.863
 110111183.048 8  85801041.10046  20953446.750                    20953455.316
 122269309.686 6  95274852.17244  23267087.234                    23267098.887
 120132043.464 7  93609457.998 7  22860355.703                    22860363.898
 111657024.223 7  87005592.70046  21247604.453                    21247612.738
 108387558.331 8  84457994.94746  20625462.055                    20625467.375
 114404366.369 8  89146421.651 7  21770448.094                    21770455.688
 118567495.971 7  92390331.168 7  22562632.766                    22562642.320
 11  8 12  0 39  0.0000000  0  9G25G30G10G09G17G04G02G12G05
 129576267.01416 100968592.48016  24657549.133                    24657559.359
 123957051.054 6  96589793.02443  23588204.641                    23588215.152
 110090749.107 8  85785118.58246  20949558.211                    20949566.977
 122342594.996 7  95331957.51244  23281033.328                    23281043.672
 120181242.905 7  93647795.231 7  22869717.555                    22869726.176
 111728335.671 8  87061160.03845  21261174.906                    21261182.977
 108377628.636 8  84450257.51446  20623572.195                    20623578.035
 114333921.220 7  89091529.363 7  21757042.570                    21757050.047
 118469254.581 7  92313779.534 7  22543937.828                    22543947.645
 11  8 12  0 39 30.0000000  0  9G25G30G10G09G17G04G02G12G05
 129472977.400 5 100888107.046 6  24637893.719                    24637904.945
 123857868.703 6  96512508.13044  23569331.375                    23569340.871
 110070924.767 8  85769671.07746  20945785.992                    20945794.117
 122416142.049 6  95389266.78844  23295029.602                    23295039.926
 120230584.000 7  93686242.865 7  22879107.242                    22879115.738
 111799854.210 8  87116888.75046  21274784.141                    21274792.691
 108368022.959 8  84442772.58946  20621744.406                    20621749.996
 114263840.380 7  89036920.948 7  21743706.867                    21743714.266
 118371226.577 7  92237394.192 7  22525283.617                    22525293.414
 11  8 12  0 40  0.0000000  0  9G25G30G10G09G17G04G02G12G05
 129369794.764 5 100807705.000 6  24618258.000                    24618270.309
 123758935.685 6  96435417.51243  23550504.789                    23550514.078
 110051711.485 8  85754699.71846  20942129.414                    20942137.922
 122489947.982 7  95446777.81044  23309074.211                    23309085.297
 120280067.499 7  93724801.430 6  22888523.789                    22888532.031
 111871578.734 8  87172777.96445  21288433.031                    21288440.949
 108358741.367 8  84435540.20446  20619978.508                    20619983.945
 114194127.327 8  88982599.112 7  21730440.938                    21730448.457
 118273415.460 7  92161177.812 7  22506670.703                    22506680.406
 11  8 12  0 40 30.0000000  0  9G25G30G10G09G17G04G02G12G05
 129266720.446 6 100727387.374 6  24598643.953                    24598655.637
 123660253.895 6  96358522.65844  23531726.758                    23531736.320
 110033109.541 8  85740204.72946  20938590.000                    20938598.383
 122564008.193 7  95504486.97044  23323167.469                    23323178.453
 120329693.285 7  93763470.858 7  22897966.844                    22897975.199
 111943505.546 8  87228824.82046  21302120.125                    21302128.520
 108349781.540 8  84428558.54046  20618272.930                    20618278.844
 114124783.594 8  88928565.064 7  21717245.242                    21717252.809
 118175823.003 7  92085131.845 7  22488099.703                    22488109.250
 11  8 12  0 41  0.0000000  0  9G25G30G10G09G17G04G02G12G05
 129163756.592 6 100647155.885 6  24579049.508                    24579062.563
 123561825.825 7  96281825.48044  23512996.727                    23513005.688
 110015119.921 8  85726186.87446  20935166.875                    20935174.777
 122638319.106 7  95562391.48544  23337308.438                    23337319.270
 120379461.376 7  93802251.190 7  22907437.617                    22907446.098
 112015632.149 8  87285027.34746  21315845.547                    21315853.699
 108341141.922 8  84421826.37446  20616628.914                    20616634.508
 114055811.421 7  88874820.543 7  21704120.430                    21704127.574
 118078452.167 7  92009258.553 7  22469570.633                    22469579.711
 11  8 12  0 41 30.0000000  0  9G25G30G10G09G17G04G02G12G05
 129060905.827 6 100567012.466 6  24559479.273                    24559489.895
 123463654.247 7  96205328.17044  23494315.188                    23494324.516
 109997743.874 8  85712647.12346  20931860.023                    20931867.988
 122712877.546 7  95620488.86844  23351496.664                    23351506.809
 120429372.492 7  93841142.956 6  22916935.008                    22916943.273
 112087956.484 8  87341383.95145  21329608.086                    21329616.348
 108332821.896 8  84415343.24246  20615045.969                    20615051.586
 113987213.371 7  88821367.530 7  21691066.469                    21691073.547
 117981305.821 7  91933560.205 7  22451083.930                    22451093.285
 11  8 12  0 42  0.0000000  0  9G25G30G10G09G17G04G02G12G05
 128958170.778 6 100486959.256 6  24539928.719                    24539940.641
 123365742.368 7  96129033.21443  23475683.055                    23475692.148
 109980982.231 8  85699586.14446  20928670.234                    20928678.539
 122787680.014 7  95678776.38444  23365731.258                    23365741.836
 120479427.413 7  93880146.777 7  22926460.180                    22926469.262
 112160476.465 8  87397893.00145  21343408.211                    21343416.602
 108324820.565 8  84409108.45946  20613523.266                    20613528.797
 113918991.951 8  88768207.998 7  21678084.406                    21678092.047
 117884387.261 7  91858039.343 7  22432641.117                    22432650.332
 11  8 12  0 42 30.0000000  0  9G25G30G10G09G17G04G02G12G05
 128855553.796 6 100406998.082 6  24520401.781                    24520412.840
 123268092.788 7  96052942.65943  23457101.164                    23457110.148
 109964836.133 8  85687004.80046  20925597.734                    20925605.902
 122862722.788 7  95737251.17244  23380011.570                    23380022.516
 120529626.647 7  93919263.044 6  22936013.125                    22936021.223
 112233189.877 8  87454552.79245  21357245.523                    21357253.289
 108317136.791 8  84403121.11346  20612060.945                    20612066.531
 113851149.540 8  88715343.793 7  21665174.055                    21665181.668
 117787699.180 7  91782698.082 7  22414241.813                    22414251.156
 11  8 12  0 43  0.0000000  0  9G25G30G10G09G17G04G02G12G05
 128753057.587 6 100327131.036 6  24500897.023                    24500908.598
 123170708.621 7  95977058.86643  23438568.984                    23438577.383
 109949306.747 8  85674904.00346  20922642.969                    20922651.297
 122938003.267 6  95795911.19744  23394335.844                    23394347.418
 120579970.919 7  93958492.343 6  22945593.930                    22945601.328
 112306094.849 8  87511361.85045  21371118.805                    21371127.016
 108309770.216 8  84397380.95646  20610659.281                    20610664.328
 113783688.858 8  88662777.057 7  21652337.086                    21652344.641
 117691244.761 7  91707538.890 7  22395886.852                    22395896.324
 11  8 12  0 43 30.0000000  0  9G25G30G10G09G17G04G02G12G05
 128650684.644 6 100247360.034 6  24481415.789                    24481427.859
 123073592.704 7  95901384.13943  23420088.578                    23420097.137
 109934394.895 8  85663284.40646  20919805.148                    20919813.168
 123013517.759 6  95854753.56444  23408706.805                    23408717.328
 120630460.683 7  93997834.987 6  22955201.242                    22955209.523
 112379189.193 7  87568318.47245  21385028.250                    21385036.215
 108302719.597 8  84391886.97746  20609317.711                    20609323.055
 113716612.656 8  88610509.912 7  21639573.227                    21639579.891
 117595026.908 7  91632564.031 7  22377576.906                    22377586.180
 11  8 12  0 44  0.0000000  0  9G25G30G10G09G17G04G02G12G05
 128548437.544 6 100167687.079 6  24461958.742                    24461970.426
 122976748.034 7  95825920.78043  23401659.844                    23401667.488
 109920101.480 8  85652146.71646  20917085.188                    20917093.430
 123089262.735 6  95913775.52843  23423119.961                    23423131.535
 120681096.745 7  94037291.617 7  22964837.273                    22964844.992
 112452470.652 7  87625420.90145  21398973.070                    21398981.539
 108295983.999 8  84386638.46946  20608036.227                    20608041.355
 113649923.216 8  88558544.146 7  21626882.117                    21626889.891
 117499048.828 7  91557776.020 7  22359313.242                    22359322.703
 11  8 12  0 44 30.0000000  0  9G25G30G10G09G17G04G02G12G05
 128446318.721 6 100088114.118 6  24442526.008                    24442538.098
 122880177.280 6  95750670.86743  23383282.711                    23383291.344
 109906427.546 8  85641491.71746  20914482.680                    20914491.215
 123165234.771 7  95972974.42644  23437577.945                    23437588.781
 120731879.587 7  94076862.629 7  22974500.641                    22974509.082
 112525937.075 8  87682667.45445  21412953.195                    21412961.273
 108289562.349 8  84381634.58946  20606813.805                    20606819.367
 113583623.102 8  88506881.749 7  21614265.898                    21614273.293
 117403313.489 7  91483177.127 7  22341095.211                    22341104.871
 11  8 12  0 45  0.0000000  0  9G25G30G10G09G17G04G02G12G05
 128344330.707 6 100008643.010 6  24423118.695                    24423129.926
 122783883.413 6  95675636.70143  23364959.086                    23364967.223
 109893373.907 8  85631320.06646  20911998.766                    20912006.570
 123241430.487 6  96032347.63543  23452076.438                    23452088.211
 120782810.001 7  94116548.621 7  22984192.609                    22984200.473
 112599586.299 8  87740056.44645  21426968.375                    21426976.348
 108283453.686 8  84376874.60546  20605651.711                    20605656.906
 113517714.185 8  88455524.174 7  21601724.242                    21601731.266
 117307823.654 7  91408769.577 7  22322924.219                    22322933.258
 11  8 12  0 45 30.0000000  0  9G25G30G10G09G17G04G02G12G05
 128242475.827 6  99929275.673 6  24403735.547                    24403747.969
 122687869.031 6  95600820.37344  23346687.813                    23346696.500
 109880941.369 8  85621632.39546  20909633.070                    20909641.199
 123317846.155 6  96091892.20843  23466618.672                    23466629.602
 120833888.042 6  94156349.675 6  22993912.305                    22993920.363
 112673416.283 8  87797586.30245  21441017.406                    21441026.250
 108277657.098 8  84372357.78946  20604548.555                    20604553.957
 113452199.201 7  88404473.579 7  21589256.625                    21589263.680
 117212582.276 7  91334555.618 7  22304799.852                    22304809.305
 11  8 12  0 46  0.0000000  0  9G25G30G10G09G17G04G02G12G05
 128140756.486 6  99850013.909 6  24384378.828                    24384390.469
 122592136.907 6  95526223.98044  23328470.070                    23328479.273
 109869130.676 8  85612429.28446  20907385.398                    20907393.926
 123394478.406 7  96151605.52743  23481201.742                    23481212.617
 120885114.460 7  94196266.287 7  23003660.281                    23003668.875
 112747424.383 8  87855254.94845  21455101.141                    21455109.105
 108272170.888 8  84368082.84046  20603504.125                    20603510.242
 113387080.577 8  88353731.816 7  21576864.789                    21576872.145
 117117592.216 7  91260537.486 7  22286724.266                    22286733.617
 11  8 12  0 46 30.0000000  0  9G25G30G10G09G17G04G02G12G05
 128039175.788 6  99770860.195 6  24365049.031                    24365060.883
 122496690.431 7  95451850.14144  23310307.578                    23310316.191
 109857943.086 8  85603711.70546  20905256.695                    20905264.652
 123471324.361 6  96211485.40144  23495825.688                    23495835.848
 120936490.374 7  94236299.438 7  23013437.141                    23013445.105
 112821609.172 8  87913061.26345  21469217.797                    21469226.426
 108266995.351 8  84364049.96646  20602519.344                    20602525.105
 113322361.064 8  88303301.057 7  21564549.242                    21564556.461
 117022856.700 7  91186717.699 7  22268696.344                    22268705.574
 11  8 12  0 47  0.0000000  0  9G25G30G10G09G17G04G02G12G05
 127937736.144 6  99691816.413 6  24345745.391                    24345758.023
 122401532.315 7  95377701.05744  23292199.781                    23292208.000
 109847379.227 8  85595480.13346  20903246.617                    20903254.254
 123548380.474 6  96271529.06744  23510488.922                    23510498.891
 120988015.993 7  94276449.216 7  23023242.203                    23023250.359
 112895968.555 8  87971003.63245  21483367.969                    21483376.156
 108262128.951 8  84360257.96746  20601593.180                    20601598.516
 113258043.120 8  88253183.206 7  21552309.758                    21552317.258
 116928378.947 7  91113098.768 7  22250717.750                    22250727.223
 11  8 12  0 47 30.0000000  0  9G25G30G10G09G17G04G02G12G05
 127836440.001 6  99612884.405 6  24326469.422                    24326481.613
 122306665.285 7  95303778.77844  23274147.406                    23274155.461
 109837439.583 8  85587734.97746  20901355.195                    20901363.195
 123625643.230 7  96331733.70443  23525190.680                    23525201.441
 121039692.042 7  94316716.238 7  23033075.711                    23033084.469
 112970500.149 8  88029080.18345  21497550.711                    21497559.156
 108257570.481 8  84356705.92046  20600725.789                    20600731.621
 113194129.235 8  88203380.204 7  21540147.219                    21540154.199
 116834161.542 7  91039682.696 7  22232788.602                    22232798.410
 11  8 12  0 48  0.0000000  0  9G25G30G10G09G17G04G02G12G05
 127735289.873 6  99534066.123 6  24307221.055                    24307232.316
 122212092.086 6  95230085.46644  23256149.906                    23256158.926
 109828124.797 8  85580476.71146  20899582.359                    20899590.637
 123703109.035 7  96392096.60244  23539932.523                    23539943.113
 121091518.676 7  94357100.601 7  23042938.664                    23042946.766
 113045201.907 8  88087289.32845  21511766.070                    21511774.543
 108253318.818 8  84353392.93646  20599916.703                    20599922.438
 113130621.569 8  88153893.746 7  21528061.945                    21528069.219
 116740207.287 7  90966471.678 7  22214909.633                    22214919.199
 11  8 12  0 48 30.0000000  0  9G25G30G10G09G17G04G02G12G05
 127634288.307 6  99455363.611 6  24288002.086                    24288013.035
 122117815.626 6  95156623.39344  23238209.789                    23238218.625
 109819435.692 8  85573705.99846  20897928.914                    20897936.855
 123780774.537 7  96452615.07644  23554711.734                    23554723.266
 121143496.529 7  94397602.790 7  23052828.547                    23052837.500
 113120071.591 8  88145629.32145  21526013.336                    21526021.637
 108249373.045 8  84350318.31146  20599166.219                    20599171.980
 113067522.333 7  88104725.516 7  21516054.586                    21516061.723
 116646519.234 7  90893468.095 7  22197081.320                    22197090.965
 11  8 12  0 49  0.0000000  0  9G25G30G10G09G17G04G02G12G05
 127533437.690 6  99376778.716 6  24268810.797                    24268821.195
 122023838.615 7  95083394.64244  23220326.500                    23220335.309
 109811372.786 8  85567423.23646  20896394.297                    20896402.625
 123858636.278 7  96513286.44944  23569528.328                    23569539.938
 121195626.331 7  94438223.390 6  23062748.883                    23062757.035
 113195107.072 8  88204098.51345  21540291.938                    21540300.508
 108245732.037 7  84347481.17146  20598473.055                    20598478.750
 113004834.089 7  88055877.542 7  21504125.609                    21504132.750
 116553100.273 7  90820674.209 7  22179304.039                    22179313.402
 11  8 12  0 49 30.0000000  0  9G25G30G10G09G17G04G02G12G05
 127432740.792 6  99298313.590 6  24249648.344                    24249659.906
 121930163.987 6  95010401.50944  23202500.711                    23202509.137
 109803936.859 8  85561629.04146  20894979.375                    20894987.379
 123936690.874 7  96574108.10144  23584381.727                    23584392.617
 121247908.482 7  94478962.690 6  23072697.242                    23072705.703
 113270306.364 8  88262695.34845  21554602.234                    21554610.602
 108242394.831 8  84344880.76946  20597838.563                    20597843.715
 112942559.258 7  88007351.709 7  21492275.078                    21492282.484
 116459953.404 7  90748092.317 7  22161578.719                    22161588.656
 11  8 12  0 50  0.0000000  0  9G25G30G10G09G17G04G02G12G05
 127332200.233 6  99219970.328 6  24230516.109                    24230527.277
 121836794.721 6  94937646.31044  23184733.094                    23184742.199
 109797128.520 8  85556323.86046  20893684.016                    20893692.016
 124014935.121 7  96635077.55344  23599270.727                    23599282.070
 121300343.696 7  94519821.268 6  23082676.273                    23082684.711
 113345667.467 8  88321418.26045  21568942.813                    21568951.207
 108239360.435 8  84342516.32846  20597260.320                    20597266.316
 112880700.249 7  87959149.898 7  21480503.656                    21480511.180
 116367081.596 7  90675724.763 7  22143905.891                    22143915.215
 11  8 12  0 50 30.0000000  0  9G25G30G10G09G17G04G02G12G05
 127231818.307 6  99141750.651 6  24211413.727                    24211425.426
 121743733.286 6  94865130.97243  23167023.820                    23167033.031
 109790947.988 7  85551507.88346  20892507.891                    20892515.734
 124093365.240 7  96696191.81444  23614195.477                    23614207.590
 121352932.442 7  94560799.492 6  23092683.906                    23092691.797
 113421188.100 8  88380265.48445  21583313.867                    21583322.590
 108236627.451 7  84340386.73746  20596740.680                    20596745.859
 112819259.171 7  87911273.751 7  21468811.664                    21468819.352
 116274487.931 7  90603573.939 7  22126285.977                    22126295.078
 11  8 12  0 51  0.0000000  0  9G25G30G10G09G17G04G02G12G05
 127131598.153 6  99063657.020 6  24192343.102                    24192354.086
 121650983.069 6  94792858.12143  23149373.164                    23149382.984
 109785396.413 7  85547182.00246  20891451.703                    20891459.699
 124171978.105 6  96757448.49844  23629155.422                    23629166.707
 121405675.523 7  94601897.992 6  23102720.203                    23102728.891
 113496866.633 8  88439235.73545  21597715.141                    21597723.816
 108234195.428 7  84338491.66646  20596278.016                    20596283.281
 112758238.846 7  87863725.452 7  21457199.891                    21457207.172
 116182174.882 7  90531641.786 7  22108719.352                    22108728.402
 11  8 12  0 51 30.0000000  0  9G25G30G10G09G17G04G02G12G05
 127031541.860 6  98985691.092 6  24173302.883                    24173314.211
 121558546.516 6  94720829.69844  23131783.766                    23131792.734
 109780473.839 7  85543346.24646  20890514.750                    20890522.492
 124250770.469 6  96818845.00543  23644148.891                    23644160.430
 121458573.352 7  94643117.060 6  23112785.695                    23112794.359
 113572700.685 8  88498327.17345  21612146.125                    21612154.402
 108232062.807 8  84336829.89746  20595871.664                    20595877.578
 112697641.354 7  87816506.639 7  21445668.680                    21445675.906
 116090145.682 7  90459930.814 7  22091206.875                    22091216.309
 11  8 12  0 52  0.0000000  0  9G25G30G10G09G17G04G02G12G05
 126931652.570 6  98907855.316 6  24154294.242                    24154306.414
 121466426.912 6  94649048.21343  23114254.031                    23114262.844
 109776181.385 8  85540001.50246  20889697.734                    20889705.699
 124329738.880 7  96880378.73443  23659175.852                    23659187.547
 121511626.467 7  94684457.149 6  23122881.156                    23122890.504
 113648688.465 8  88557538.40645  21626606.180                    21626614.395
 108230228.926 8  84335400.91846  20595523.188                    20595528.402
 112637469.355 7  87769619.377 7  21434218.500                    21434225.746
 115998403.680 7  90388443.662 7  22073748.711                    22073757.813
 11  8 12  0 52 30.0000000  0  9G25G30G10G09G17G04G02G12G05
 126831932.358 6  98830151.271 6  24135318.031                    24135329.609
 121374626.623 6  94577515.54644  23096784.477                    23096794.250
 109772518.875 7  85537147.62146  20889000.695                    20889008.883
 124408879.521 6  96942046.65543  23674236.164                    23674248.184
 121564835.065 7  94725918.336 6  23133006.141                    23133015.629
 113724827.902 8  88616867.80545  21641094.664                    21641103.570
 108228692.314 8  84334203.56846  20595230.898                    20595236.535
 112577724.941 7  87723065.308 7  21422848.914                    21422856.895
 115906951.147 7  90317182.039 7  22056345.703                    22056355.063
 11  8 12  0 53  0.0000000  0  9G25G30G10G09G17G04G02G12G05
 126732384.086 6  98752581.218 6  24116374.438                    24116387.242
 121283148.662 7  94506234.04244  23079377.398                    23079386.168
 109769486.884 7  85534785.04346  20888423.203                    20888431.715
 124488189.322 6  97003846.38143  23689329.016                    23689339.840
 121618200.150 7  94767501.504 7  23143162.336                    23143171.488
 113801116.892 8  88676313.73945  21655612.555                    21655620.523
 108227452.353 8  84333237.38346  20594994.273                    20595000.102
 112518410.269 7  87676846.125 7  21411561.930                    21411569.910
 115815791.070 7  90246148.315 7  22038998.727                    22039007.984
 11  8 12  0 53 30.0000000  0  9G25G30G10G09G17G04G02G12G05
 126633010.092 6  98675146.931 6  24097464.797                    24097476.387
 121191995.629 6  94435205.70744  23062031.773                    23062040.402
 109767085.327 8  85532913.72246  20887966.602                    20887975.137
 124567664.573 6  97065775.05843  23704452.297                    23704463.625
 121671722.054 7  94809206.869 6  23153347.039                    23153355.738
 113877553.160 8  88735874.43245  21670157.547                    21670165.898
 108226507.363 8  84332501.04446  20594814.609                    20594820.074
 112459527.630 7  87630963.570 7  21400357.172                    21400364.430
 115724926.365 7  90175344.743 7  22021707.648                    22021716.488
 11  8 12  0 54  0.0000000  0  9G25G30G10G09G17G04G02G12G05
 126533812.944 6  98597850.457 6  24078588.070                    24078599.637
 121101170.339 7  94364432.76344  23044748.461                    23044756.813
 109765314.721 7  85531534.05746  20887629.945                    20887637.723
 124647301.942 6  97127830.03544  23719606.875                    23719618.426
 121725401.299 7  94851034.831 6  23163562.148                    23163570.203
 113954134.716 8  88795548.34945  21684730.328                    21684738.738
 108225856.357 8  84331993.77246  20594690.406                    20594696.137
 112401079.337 7  87585419.480 7  21389234.992                    21389242.172
 115634359.635 7  90104773.364 7  22004473.227                    22004482.320
 11  8 12  0 54 30.0000000  0  9G25G30G10G09G17G04G02G12G05
 126434795.580 7  98520694.090 6  24059745.320                    24059756.961
 121010676.016 7  94293917.69544  23027528.188                    23027536.285
 109764176.073 8  85530646.83146  20887413.203                    20887421.031
 124727098.300 7  97190008.94343  23734791.648                    23734803.496
 121779238.327 7  94892985.747 7  23173806.898                    23173815.617
 114030859.730 8  88855334.05045  21699331.344                    21699339.148
 108225498.605 8  84331715.01846  20594622.969                    20594628.047
 112343068.146 7  87540216.001 7  21378195.398                    21378202.449
 115544093.854 7  90034436.467 7  21987295.836                    21987305.145
 11  8 12  0 55  0.0000000  0  9G25G30G10G09G17G04G02G12G05
 126335959.688 7  98443679.137 6  24040937.859                    24040949.258
 120920514.461 7  94223661.96444  23010370.602                    23010379.410
 109763668.081 8  85530251.01546  20887316.563                    20887324.570
 124807049.386 7  97252308.39443  23750005.977                    23750018.039
 121833232.945 7  94935059.463 6  23184081.414                    23184090.082
 114107725.734 8  88915229.61745  21713958.266                    21713966.785
 108225432.093 8  84331663.19546  20594610.406                    20594615.508
 112285494.995 7  87495353.834 7  21367239.766                    21367246.656
 115454131.574 7  89964336.082 7  21970176.148                    21970185.781
 11  8 12  0 55 30.0000000  0  9G25G30G10G09G17G04G02G12G05
 126237308.890 7  98366808.420 6  24022165.039                    24022176.922
 120830689.502 7  94153668.51544  22993277.523                    22993286.578
 109763792.235 8  85530347.77146  20887339.984                    20887348.168
 124887152.618 7  97314726.41543  23765249.547                    23765260.852
 121887386.612 7  94977257.099 6  23194386.445                    23194395.461
 114184731.111 8  88975233.78145  21728612.102                    21728620.301
 108225656.451 8  84331838.03046  20594653.273                    20594658.316
 112228363.326 7  87450835.667 7  21356368.031                    21356375.246
 115364476.431 7  89894475.010 7  21953115.891                    21953124.859
 11  8 12  0 56  0.0000000  0  9G25G30G10G09G17G04G02G12G05
 126138845.598 6  98290083.838 6  24003427.938                    24003439.516
 120741203.734 7  94083939.38544  22976249.453                    22976257.965
 109764548.505 7  85530937.09846  20887483.773                    20887491.449
 124967404.544 7  97377260.24743  23780520.422                    23780531.281
 121941699.709 7  95019578.980 6  23204722.227                    23204730.891
 114261874.167 8  89035345.23245  21743291.367                    21743299.910
 108226170.564 8  84332238.66246  20594750.680                    20594756.215
 112171675.409 7  87406663.294 7  21345580.813                    21345587.988
 115275130.936 7  89824855.229 7  21936113.828                    21936122.891
 11  8 12  0 56 30.0000000  0  9G25G30G10G09G17G04G02G12G05
 126040572.572 6  98213507.515 6  23984727.023                    23984738.090
 120652060.122 7  94014476.87244  22959285.711                    22959294.121
 109765937.196 7  85532019.21846  20887748.117                    20887756.086
 125047801.504 7  97439907.12244  23795820.383                    23795831.895
 121996172.983 7  95062025.669 6  23215088.656                    23215096.594
 114339152.967 8  89095562.44845  21757997.375                    21758005.691
 108226973.622 8  84332864.43346  20594903.609                    20594908.723
 112115433.346 7  87362838.339 7  21334877.859                    21334885.176
 115186098.404 7  89755479.320 7  21919171.234                    21919180.164
 11  8 12  0 57  0.0000000  0  9G25G30G10G09G17G04G02G12G05
 125942492.281 6  98137081.392 6  23966063.070                    23966073.809
 120563261.313 7  93945283.05344  22942387.586                    22942396.273
 109767958.618 8  85533594.37646  20888133.258                    20888140.781
 125128340.111 7  97502664.40843  23811145.867                    23811157.750
 122050806.728 7  95104597.399 6  23225485.055                    23225492.957
 114416565.304 8  89155883.74045  21772728.148                    21772736.102
 108228063.857 8  84333713.97046  20595110.719                    20595116.148
 112059639.385 7  87319362.545 7  21324260.656                    21324268.258
 115097381.209 7  89686349.110 7  21902289.250                    21902298.082
 11  8 12  0 57 30.0000000  0  9G25G30G10G09G17G04G02G12G05
 125844607.306 6  98060807.472 6  23947436.180                    23947447.305
 120474810.088 7  93876360.06244  22925555.719                    22925563.734
 109770612.872 8  85535662.65346  20888637.703                    20888646.070
 125209017.340 7  97565529.66444  23826498.406                    23826510.234
 122105601.063 7  95147294.250 6  23235912.383                    23235920.230
 114494109.121 8  89216307.47245  21787484.445                    21787492.527
 108229440.653 8  84334786.81346  20595372.688                    20595378.273
 112004295.452 7  87276237.422 7  21313729.016                    21313736.469
 115008982.320 7  89617466.942 7  21885467.563                    21885476.164
 11  8 12  0 58  0.0000000  0  9G25G30G10G09G17G04G02G12G05
 125746920.454 6  97984687.985 6  23928847.133                    23928858.074
 120386709.452 6  93807710.25544  22908790.336                    22908798.344
 109773900.019 7  85538224.09546  20889263.430                    20889271.695
 125289829.832 6  97628500.35044  23841876.867                    23841887.809
 122160557.063 7  95190117.084 6  23246369.070                    23246377.984
 114571782.748 7  89276832.36145  21802265.539                    21802273.230
 108231102.772 8  84336081.98146  20595689.133                    20595694.547
 111949404.107 8  87233464.946 7  21303283.516                    21303290.754
 114920904.652 7  89548835.071 7  21868706.836                    21868715.527
 11  8 12  0 58 30.0000000  0  9G25G30G10G09G17G04G02G12G05
 125649434.120 7  97908724.672 6  23910296.445                    23910306.684
 120298961.923 6  93739335.61544  22892092.273                    22892101.418
 109777819.996 7  85541278.64446  20890009.375                    20890016.992
 125370773.823 6  97691573.49444  23857280.117                    23857290.863
 122215674.935 7  95233066.035 6  23256858.289                    23256866.762
 114649584.135 8  89337456.80745  21817070.102                    21817078.633
 108233048.787 8  84337598.35846  20596059.453                    20596064.836
 111894967.628 8  87191046.908 7  21292924.789                    21292932.098
 114833150.969 7  89480455.654 7  21852008.039                    21852016.238
 11  8 12  0 59  0.0000000  0  9G25G30G10G09G17G04G02G12G05
 125552151.146 7  97832919.836 6  23891783.727                    23891794.551
 120211570.498 7  93671238.46544  22875462.648                    22875471.340
 109782372.955 8  85544826.43446  20890875.508                    20890883.371
 125451846.403 6  97754746.81843  23872706.992                    23872718.836
 122270955.331 7  95276141.635 6  23267377.375                    23267386.102
 114727511.392 7  89398179.34345  21831899.172                    21831907.367
 108235278.049 8  84339335.45546  20596483.570                    20596488.949
 111840987.890 8  87148984.774 7  21282652.828                    21282660.457
 114745724.086 7  89412330.881 7  21835370.891                    21835379.234
 11  8 12  0 59 30.0000000  0  9G25G30G10G09G17G04G02G12G05
 125455074.143 7  97757275.469 6  23873310.242                    23873321.273
 120124537.859 6  93603420.86444  22858900.930                    22858909.477
 109787559.172 8  85548867.66546  20891862.750                    20891870.426
 125533043.974 6  97818017.50844  23888158.898                    23888170.906
 122326398.820 7  95319344.297 6  23277928.320                    23277936.316
 114805562.612 7  89458998.46545  21846752.086                    21846760.383
 108237789.182 7  84341292.17846  20596961.891                    20596967.012
 111787467.951 8  87107280.915 7  21272468.289                    21272475.387
 114658626.883 7  89344463.017 7  21818796.570                    21818805.469
 11  8 12  1  0  0.0000000  0  9G25G30G10G09G17G04G02G12G05
 125358205.524 7  97681793.513 6  23854877.211                    23854887.945
 120037866.744 6  93535884.96244  22842407.836                    22842416.383
 109793378.437 8  85553402.18446  20892969.898                    20892978.094
 125614362.970 7  97881382.88244  23903633.484                    23903645.438
 122382005.531 7  95362674.211 6  23288509.539                    23288518.301
 114883735.692 7  89519912.56045  21861627.695                    21861636.199
 108240580.714 8  84343467.38846  20597492.680                    20597498.172
 111734408.670 8  87065936.016 7  21262371.195                    21262378.727
 114571861.875 7  89276854.006 7  21802286.031                    21802294.281
 11  8 12  1  0 30.0000000  0  9G25G30G10G09G17G04G02G12G05
 125261548.187 7  97606476.151 6  23836483.539                    23836494.230
 119951559.928 6  93468632.90244  22825984.227                    22825992.359
 109799830.387 8  85558429.69946  20894197.945                    20894205.633
 125695800.398 6  97944840.48244  23919130.523                    23919142.516
 122437776.351 7  95406131.962 6  23299122.789                    23299131.211
 114962028.862 7  89580920.22645  21876526.539                    21876534.824
 108243652.177 8  84345860.75146  20598077.313                    20598082.777
 111681812.537 8  87024952.015 7  21252362.805                    21252370.121
 114485432.120 7  89209506.237 7  21785838.703                    21785847.277
 11  8 12  1  1  0.0000000  0  9G25G30G10G09G17G04G02G12G05
 125165104.722 7  97531325.439 6  23818131.172                    23818141.922
 119865620.339 7  93401667.04144  22809630.680                    22809639.309
 109806915.319 8  85563950.45746  20895546.094                    20895553.691
 125777352.701 6  98008387.60843  23934649.758                    23934661.309
 122493711.616 7  95449717.870 6  23309766.711                    23309775.254
 115040440.375 7  89642020.11645  21891447.813                    21891455.805
 108247002.234 8  84348471.18446  20598714.711                    20598720.309
 111629681.875 8  86984330.731 7  21242442.594                    21242450.059
 114399340.541 7  89142421.971 7  21769456.281                    21769464.859
 11  8 12  1  1 30.0000000  0  9G25G30G10G09G17G04G02G12G05
 125068877.963 7  97456343.573 6  23799819.555                    23799830.145
 119780050.810 7  93334989.52044  22793347.148                    22793355.852
 109814633.216 8  85569964.43746  20897014.602                    20897021.926
 125859016.435 6  98072021.56643  23950190.039                    23950201.297
 122549811.882 7  95493432.317 6  23320442.672                    23320451.117
 115118968.392 8  89703210.79145  21906391.359                    21906399.582
 108250629.791 7  84351297.86746  20599404.867                    20599410.457
 111578019.112 8  86944074.042 7  21232611.211                    21232618.547
 114313589.993 7  89075603.440 7  21753138.492                    21753147.031
 11  8 12  1  2  0.0000000  0  9G25G30G10G09G17G04G02G12G05
 124972870.428 7  97381532.525 6  23781549.648                    23781560.723
 119694853.963 7  93268602.37544  22777134.750                    22777143.184
 109822983.706 8  85576471.35246  20898603.508                    20898611.723
 125940788.302 6  98135739.80043  23965750.453                    23965762.313
 122606077.451 7  95537275.620 6  23331149.875                    23331157.996
 115197610.883 8  89764490.66245  21921356.508                    21921364.496
 108254533.429 8  84354339.67346  20600147.898                    20600153.234
 111526826.072 8  86904183.369 7  21222869.781                    21222877.180
 114228183.191 7  89009052.759 7  21736885.227                    21736894.309
 11  8 12  1  2 30.0000000  0  9G25G30G10G09G17G04G02G12G05
 124877084.781 7  97306894.379 6  23763322.398                    23763332.926
 119610032.538 7  93202507.79744  22760993.570                    22761002.336
 109831966.413 8  85583470.90046  20900313.094                    20900321.035
 126022664.876 6  98199539.48044  23981330.977                    23981343.418
 122662508.770 7  95581248.081 6  23341887.883                    23341896.469
 115276366.122 7  89825858.38745  21936342.859                    21936351.184
 108258712.163 8  84357595.85846  20600943.305                    20600948.297
 111476105.032 8  86864660.495 7  21213218.039                    21213225.273
 114143122.663 7  88942771.912 7  21720699.117                    21720707.594
 11  8 12  1  3  0.0000000  0  9G25G30G10G09G17G04G02G12G05
 124781523.711 7  97232431.216 6  23745138.156                    23745148.371
 119525589.256 7  93136707.85944  22744924.680                    22744933.086
 109841581.418 8  85590963.14446  20902142.805                    20902149.918
 126104642.741 6  98263418.22944  23996931.117                    23996943.453
 122719106.527 7  95625350.238 6  23352658.055                    23352666.266
 115355231.938 7  89887312.27845  21951351.000                    21951359.094
 108263164.689 8  84361065.37846  20601789.953                    20601795.695
 111425858.100 8  86825507.070 7  21203655.820                    21203663.184
 114058411.365 8  88876763.197 7  21704579.172                    21704587.254
 11  8 12  1  3 30.0000000  0  9G25G30G10G09G17G04G02G12G05
 124686189.815 7  97158145.086 6  23726996.477                    23727006.613
 119441527.035 7  93071204.84944  22728927.906                    22728936.504
 109851828.539 8  85598947.95246  20904092.578                    20904099.883
 126186718.810 6  98327373.47243  24012550.234                    24012561.695
 122775870.989 7  95669582.281 6  23363460.320                    23363468.680
 115434206.688 7  89948851.04045  21966378.977                    21966387.352
 108267889.824 8  84364747.32846  20602689.320                    20602694.672
 111376087.082 8  86786724.496 7  21194185.133                    21194192.074
 113974051.845 7  88811028.583 7  21688526.000                    21688534.164
 11  8 12  1  4  0.0000000  0  9G25G30G10G09G17G04G02G12G05
 124591085.739 7  97084038.048 6  23708898.500                    23708909.012
 119357848.452 7  93006000.81344  22713004.258                    22713013.230
 109862707.490 8  85607425.08546  20906162.594                    20906170.207
 126268889.958 6  98391402.82244  24028186.945                    24028198.930
 122832802.713 7  95713944.674 6  23374293.891                    23374302.500
 115513288.496 7  90010473.23145  21981428.141                    21981435.492
 108272886.632 8  84368640.95546  20603640.352                    20603645.414
 111326794.220 8  86748314.523 7  21184804.539                    21184811.863
 113890046.781 8  88745570.171 7  21672539.914                    21672548.902
 11  8 12  1  4 30.0000000  0  9G25G30G10G09G17G04G02G12G05
 124496214.174 7  97010112.201 6  23690844.711                    23690856.137
 119274556.249 7  92941097.79844  22697154.742                    22697163.203
 109874217.887 8  85616394.25446  20908352.977                    20908360.816
 126351152.575 6  98455503.43943  24043840.656                    24043852.434
 122889902.012 7  95758437.661 6  23385159.125                    23385167.574
 115592475.581 8  90072177.46345  21996496.773                    21996504.648
 108278153.954 8  84372745.37446  20604642.609                    20604647.898
 111277981.587 8  86710278.749 7  21175516.102                    21175523.313
 113806399.165 8  88680390.291 7  21656622.422                    21656631.125
 11  8 12  1  5  0.0000000  0  9G25G30G10G09G17G04G02G12G05
 124401577.757 7  96936369.594 6  23672835.813                    23672847.176
 119191653.087 7  92876497.99744  22681378.891                    22681387.113
 109886359.322 8  85625855.13546  20910663.758                    20910671.145
 126433503.196 6  98519672.63143  24059512.516                    24059524.137
 122947169.870 7  95803061.948 6  23396056.898                    23396065.023
 115671766.148 7  90133962.30445  22011585.352                    22011593.473
 108283690.390 8  84377059.50046  20605695.852                    20605701.266
 111229651.012 8  86672618.608 7  21166319.570                    21166326.355
 113723111.717 8  88615491.055 7  21640773.695                    21640781.973
 11  8 12  1  5 30.0000000  0  9G25G30G10G09G17G04G02G12G05
 124307179.328 7  96862812.433 6  23654873.195                    23654884.090
 119109141.938 7  92812203.66644  22665677.648                    22665685.914
 109899131.790 8  85635807.75646  20913093.844                    20913101.836
 126515938.823 7  98583908.12743  24075198.719                    24075210.898
 123004606.073 6  95847817.438 6  23406986.500                    23406995.152
 115751158.431 8  90195826.42845  22026693.148                    22026701.707
 108289495.000 8  84381582.60946  20606800.469                    20606805.852
 111181804.859 8  86635335.931 7  21157214.070                    21157221.098
 113640187.074 8  88550874.535 7  21624993.234                    21625001.887
 11  8 12  1  6  0.0000000  0  9G25G30G10G09G17G04G02G12G05
 124213021.492 7  96789442.741 6  23636954.914                    23636966.223
 119027025.420 7  92748216.83144  22650050.883                    22650059.555
 109912534.831 8  85646251.71946  20915644.195                    20915652.383
 126598455.830 6  98648206.96443  24090901.297                    24090912.895
 123062211.379 7  95892704.647 6  23417948.398                    23417957.391
 115830650.531 8  90257768.30845  22041819.578                    22041827.867
 108295566.595 8  84386313.74546  20607956.078                    20607961.156
 111134444.601 8  86598431.868 7  21148202.078                    21148209.102
 113557627.912 8  88486542.789 7  21609283.078                    21609291.063
 11  8 12  1  6 30.0000000  0  9G25G30G10G09G17G04G02G12G05
 124119106.912 7  96716262.600 6  23619083.523                    23619094.586
 118945306.241 7  92684539.63144  22634499.922                    22634508.680
 109926568.308 8  85657186.92446  20918314.797                    20918322.801
 126681051.156 6  98712566.84743  24106618.969                    24106630.961
 123119986.101 7  95937723.921 6  23428943.414                    23428951.730
 115910240.922 7  90319786.79245  22056965.492                    22056973.547
 108301904.063 8  84391252.04946  20609161.961                    20609167.488
 111087572.469 8  86561908.169 7  21139282.430                    21139289.719
 113475437.041 8  88422498.037 7  21593642.023                    21593650.402
 11  8 12  1  7  0.0000000  0  9G25G30G10G09G17G04G02G12G05
 124025438.075 7  96643273.940 6  23601259.266                    23601269.656
 118863986.907 7  92621174.00844  22619025.297                    22619033.871
 109941231.240 8  85668612.60746  20921105.023                    20921113.059
 126763721.375 6  98776985.07043  24122350.227                    24122362.770
 123177930.507 7  95982875.410 6  23439969.375                    23439978.215
 115989927.495 7  90381880.22445  22072129.180                    22072137.434
 108308506.071 8  84396396.48546  20610418.156                    20610423.742
 111041190.398 8  86525766.317 7  21130455.938                    21130462.938
 113393617.072 8  88358742.283 7  21578072.500                    21578080.891
 11  8 12  1  7 30.0000000  0  9G25G30G10G09G17G04G02G12G05
 123932017.938 7  96570479.047 6  23583482.266                    23583492.801
 118783070.412 7  92558122.28445  22603627.672                    22603636.098
 109956523.374 8  85680528.58246  20924015.227                    20924022.883
 126846463.118 6  98841458.98643  24138095.859                    24138107.586
 123236045.363 6  96028159.690 6  23451028.641                    23451037.035
 116069708.559 7  90444047.29245  22087311.008                    22087319.316
 108315371.583 8  84401746.25146  20611724.813                    20611730.371
 110995300.685 8  86490008.120 7  21121723.484                    21121730.457
 113312170.842 8  88295277.766 7  21562573.492                    21562582.172
 11  8 12  1  8  0.0000000  0  9G25G30G10G09G17G04G02G12G05
 123838849.067 7  96497879.941 7  23565752.703                    23565763.320
 118702559.309 7  92495386.45545  22588306.672                    22588315.355
 109972444.266 8  85692934.48846  20927044.766                    20927052.609
 126929273.141 6  98905986.10243  24153854.070                    24153866.695
 123294330.970 7  96073577.027 6  23462119.961                    23462128.234
 116149582.528 7  90506286.73945  22102510.273                    22102518.641
 108322499.459 8  84407300.46646  20613081.109                    20613086.258
 110949904.997 8  86454634.881 7  21113085.086                    21113091.707
 113231100.962 8  88232106.493 7  21547146.422                    21547155.035
 11  8 12  1  8 30.0000000  0  9G25G30G10G09G17G04G02G12G05
 123745934.366 7  96425478.901 7  23548070.773                    23548082.055
 118622456.474 7  92432968.74844  22573063.648                    22573072.184
 109988993.491 8  85705830.00846  20930194.031                    20930201.715
 127012148.291 6  98970563.94243  24169625.164                    24169637.316
 123352787.725 7  96119127.728 6  23473243.320                    23473252.344
 116229547.761 7  90568597.29345  22117727.563                    22117735.855
 108329888.740 8  84413058.36246  20614487.250                    20614492.754
 110905005.526 8  86419648.298 7  21104540.820                    21104548.145
 113150410.124 8  88169230.575 7  21531791.563                    21531800.059
 11  8 12  1  9  0.0000000  0  9G25G30G10G09G17G04G02G12G05
 123653276.115 7  96353277.686 7  23530438.922                    23530449.707
 118542764.240 7  92370870.98045  22557898.844                    22557906.918
 110006170.507 7  85719214.70846  20933462.852                    20933470.398
 127095085.021 6  99035189.80443  24185407.523                    24185420.512
 123411416.097 6  96164812.119 6  23484400.609                    23484408.570
 116309602.208 7  90630977.36645  22132961.070                    22132969.809
 108337537.718 8  84419018.63046  20615942.625                    20615948.211
 110860603.723 8  86385049.516 7  21096091.242                    21096098.395
 113070100.896 7  88106652.028 7  21516508.953                    21516517.125
 11  8 12  1  9 30.0000000  0  9G25G30G10G09G17G04G02G12G05
 123560877.014 7  96281278.385 7  23512856.188                    23512867.352
 118463485.160 7  92309095.16444  22542811.828                    22542820.500
 110023974.535 8  85733088.00946  20936850.383                    20936858.191
 127178080.275 6  99099861.26243  24201201.219                    24201213.375
 123470216.321 7  96210630.465 6  23495589.430                    23495598.469
 116389744.060 7  90693425.55345  22148211.484                    22148220.008
 108345444.845 8  84425180.04146  20617447.273                    20617453.066
 110816701.544 8  86350840.049 7  21087737.211                    21087744.078
 112990175.539 8  88044372.587 7  21501299.688                    21501308.535
 11  8 12  1 10  0.0000000  0  9G25G30G10G09G17G04G02G12G05
 123468739.860 7  96209483.191 6  23495322.703                    23495333.809
 118384622.026 7  92247643.43244  22527805.156                    22527813.207
 110042405.118 8  85747449.51246  20940357.398                    20940365.293
 127261130.842 6  99164575.81243  24217004.938                    24217017.680
 123529188.863 7  96256583.080 6  23506812.141                    23506820.008
 116469971.801 7  90755940.65345  22163478.719                    22163486.773
 108353609.848 8  84431542.40546  20619001.422                    20619006.563
 110773300.971 8  86317021.427 7  21079478.375                    21079485.418
 112910637.052 7  87982394.613 7  21486164.031                    21486172.508
 11  8 12  1 10 30.0000000  0  9G25G30G10G09G17G04G02G12G05
 123376867.425 7  96137894.322 6  23477839.648                    23477851.289
 118306177.583 7  92186517.94044  22512877.695                    22512885.910
 110061461.672 8  85762298.78446  20943983.953                    20943991.836
 127344233.462 6  99229330.96143  24232819.086                    24232831.555
 123588334.283 7  96302670.376 6  23518066.609                    23518075.809
 116550283.842 7  90818521.46045  22178761.406                    22178769.824
 108362031.328 8  84438104.62546  20620603.852                    20620609.125
 110730404.080 8  86283595.290 7  21071315.320                    21071322.637
 112831488.206 8  87920720.263 7  21471102.195                    21471111.039
 11  8 12  1 11  0.0000000  0  9G25G30G10G09G17G04G02G12G05
 123285262.219 7  96066513.660 7  23460408.422                    23460419.395
 118228154.257 7  92125720.58844  22498029.914                    22498038.766
 110081143.441 8  85777635.23246  20947729.430                    20947736.820
 127427384.538 6  99294123.80543  24248642.938                    24248655.090
 123647652.949 7  96348892.686 6  23529355.352                    23529363.391
 116630678.245 7  90881166.41145  22194060.500                    22194068.590
 108370707.855 8  84444865.57146  20622254.719                    20622260.559
 110688012.150 8  86250562.623 7  21063247.953                    21063254.984
 112752731.667 8  87859351.604 7  21456115.438                    21456123.684
 11  8 12  1 11 30.0000000  0  9G25G30G10G09G17G04G02G12G05
 123193927.115 7  95995343.490 6  23443027.867                    23443038.859
 118150554.909 7  92065253.58844  22483263.320                    22483271.348
 110101449.909 8  85793458.46946  20951593.672                    20951601.059
 127510581.365 6  99358952.28743  24264474.141                    24264486.402
 123707144.914 7  96395250.049 6  23540676.078                    23540684.301
 116711153.383 7  90943874.30345  22209374.586                    22209382.680
 108379638.542 8  84451824.58346  20623954.047                    20623959.145
 110646127.752 8  86217925.445 7  21055278.039                    21055284.926
 112674369.801 7  87798290.483 7  21441203.766                    21441211.949
 11  8 12  1 12  0.0000000  0  9G25G30G10G09G17G04G02G12G05
 123102864.699 7  95924385.827 6  23425698.656                    23425710.422
 118073382.057 7  92005118.89544  22468578.398                    22468586.160
 110122380.237 7  85809767.81846  20955576.672                    20955584.473
 127593820.537 6  99423813.82444  24280314.711                    24280326.484
 123766810.732 7  96441742.880 6  23552029.930                    23552038.273
 116791707.639 7  91006643.82745  22224703.758                    22224711.969
 108388822.230 8  84458980.72146  20625701.766                    20625707.168
 110604752.193 8  86185684.766 7  21047404.742                    21047411.371
 112596405.140 8  87737538.852 7  21426367.727                    21426375.637
 11  8 12  1 12 30.0000000  0  9G25G30G10G09G17G04G02G12G05
 123012077.550 7  95853642.664 6  23408422.992                    23408433.133
 117996638.222 7  91945318.51044  22453973.531                    22453982.105
 110143933.340 7  85826562.45546  20959677.555                    20959685.625
 127677098.482 7  99488705.61144  24296162.211                    24296174.398
 123826650.755 7  96488371.445 6  23563417.055                    23563426.094
 116872339.356 7  91069473.71145  22240046.789                    22240055.016
 108398257.326 8  84466332.76746  20627497.414                    20627502.496
 110563887.301 8  86153841.994 7  21039628.273                    21039635.160
 112518839.986 8  87677098.545 7  21411607.383                    21411615.461
 11  8 12  1 13  0.0000000  0  9G25G30G10G09G17G04G02G12G05
 122921568.360 7  95783116.087 6  23391199.922                    23391210.398
 117920326.042 7  91885854.44344  22439452.742                    22439460.945
 110166108.722 7  85843841.98446  20963898.102                    20963905.563
 127760412.027 6  99553625.03644  24312016.398                    24312028.754
 123886665.428 7  96535136.103 6  23574837.375                    23574846.344
 116953046.594 7  91132362.44145  22255404.430                    22255413.086
 108407942.642 8  84473879.77246  20629340.336                    20629345.617
 110523534.874 8  86122398.559 7  21031949.508                    21031956.207
 112441677.066 8  87616971.656 7  21396923.766                    21396932.211
 11  8 12  1 13 30.0000000  0  9G25G30G10G09G17G04G02G12G05
 122831340.242 7  95712808.563 6  23374029.945                    23374040.453
 117844448.345 7  91826728.95244  22425013.273                    22425021.445
 110188905.913 8  85861606.03746  20968235.969                    20968243.727
 127843758.338 7  99618570.04343  24327876.547                    24327889.055
 123946855.597 7  96582037.502 6  23586290.883                    23586299.961
 117033828.220 7  91195309.12445  22270777.320                    22270785.758
 108417877.523 8  84481621.25246  20631230.898                    20631235.938
 110483696.969 8  86091356.038 7  21024368.289                    21024375.543
 112364919.493 8  87557160.631 7  21382316.961                    21382325.641
 11  8 12  1 14  0.0000000  0  9G25G30G10G09G17G04G02G12G05
 122741395.386 7  95642721.789 6  23356913.742                    23356924.762
 117769007.474 7  91767943.82544  22410657.367                    22410665.668
 110212323.675 8  85879853.65446  20972691.953                    20972700.043
 127927134.111 6  99683537.98943  24343742.227                    24343755.109
 124007221.056 7  96629075.509 6  23597778.734                    23597787.246
 117114682.334 7  91258312.29244  22286162.750                    22286171.707
 108428060.421 8  84489555.99946  20633168.563                    20633173.879
 110444375.036 8  86060715.581 7  21016885.969                    21016892.863
 112288569.457 8  87497667.161 7  21367788.031                    21367796.652
 11  8 12  1 14 30.0000000  0  9G25G30G10G09G17G04G02G12G05
 122651736.583 7  95572857.887 6  23339852.570                    23339862.176
 117694005.923 7  91709501.05444  22396384.844                    22396393.574
 110236361.315 7  85898584.29646  20977266.398                    20977274.496
 128010536.082 6  99748526.35243  24359613.617                    24359626.223
 124067761.882 7  96676250.156 6  23609299.242                    23609308.098
 117195607.174 7  91321370.57045  22301562.664                    22301570.855
 108438489.933 8  84497682.90046  20635153.078                    20635158.602
 110405570.686 7  86030478.429 7  21009501.805                    21009508.449
 112212629.104 8  87438492.920 7  21353337.258                    21353345.457
 11  8 12  1 15  0.0000000  0  9G25G30G10G09G17G04G02G12G05
 122562366.519 7  95503218.987 7  23322845.422                    23322856.340
 117619446.439 7  91651402.73144  22382196.672                    22382205.191
 110261018.034 8  85917797.33346  20981957.992                    20981966.000
 128093960.684 6  99813532.35343  24375488.734                    24375501.699
 124128478.950 7  96723562.148 6  23620853.164                    23620861.832
 117276601.263 7  91384482.80545  22316975.438                    22316983.602
 108449165.412 8  84506001.47546  20637184.594                    20637189.930
 110367285.771 8  86000646.036 7  21002216.164                    21002222.836
 112137101.332 8  87379640.165 7  21338964.523                    21338973.020
 11  8 12  1 15 30.0000000  0  9G25G30G10G09G17G04G02G12G05
 122473287.924 7  95433807.230 6  23305894.492                    23305904.508
 117545331.619 7  91593650.90644  22368093.188                    22368101.398
 110286292.810 8  85937491.97246  20986767.773                    20986775.738
 128177405.226 6  99878553.90343  24391368.273                    24391380.727
 124189372.552 6  96771011.710 6  23632440.781                    23632449.406
 117357663.097 7  91447647.82545  22332400.836                    22332409.168
 108460085.624 8  84514510.73646  20639262.641                    20639268.008
 110329522.317 8  85971219.980 7  20995029.930                    20995036.984
 112061988.589 8  87321110.801 7  21324670.977                    21324679.266
 11  8 12  1 16  0.0000000  0  9G25G30G10G09G17G04G02G12G05
 122384503.226 7  95364624.438 6  23288998.992                    23289008.988
 117471663.739 7  91536247.37845  22354074.633                    22354083.645
 110312184.848 8  85957667.60546  20991695.070                    20991702.945
 128260866.266 6  99943588.31443  24407250.367                    24407263.324
 124250442.682 6  96818598.802 6  23644062.117                    23644070.898
 117438790.884 7  91510864.26545  22347839.008                    22347847.594
 108471248.915 8  84523209.42246  20641386.750                    20641392.199
 110292281.422 8  85942201.113 7  20987943.273                    20987950.238
 111987293.299 8  87262906.727 7  21310456.648                    21310465.133
 11  8 12  1 16 30.0000000  0  9G25G30G10G09G17G04G02G12G05
 122296015.234 7  95295672.885 7  23272159.813                    23272170.980
 117398445.598 7  91479194.31545  22340141.930                    22340150.582
 110338692.817 7  85978323.19546  20996739.297                    20996746.926
 128344340.695 6 100008633.17243  24423135.500                    24423147.789
 124311690.104 6  96866324.055 6  23655717.078                    23655725.773
 117519983.147 7  91574130.92645  22363289.555                    22363297.902
 108482654.358 8  84532096.78446  20643557.086                    20643562.648
 110255565.160 8  85913591.065 7  20980956.227                    20980963.449
 111913018.030 8  87205029.950 7  21296322.594                    21296331.168
 11  8 12  1 17  0.0000000  0  9G25G30G10G09G17G04G02G12G05
 122207826.701 7  95226954.603 6  23255378.445                    23255388.539
 117325679.605 7  91422493.56245  22326294.820                    22326303.559
 110365816.169 8  85999458.28346  21001900.641                    21001908.668
 128427825.415 6 100073686.03743  24439021.992                    24439035.063
 124373115.041 6  96914187.604 6  23667405.688                    23667414.422
 117601238.409 7  91637446.69045  22378751.953                    22378759.883
 108494300.954 8  84541172.05946  20645773.742                    20645779.188
 110219375.215 8  85885391.129 7  20974069.555                    20974076.328
 111839165.245 8  87147482.378 7  21282268.938                    21282277.207
 11  8 12  1 17 30.0000000  0  9G25G30G10G09G17G04G02G12G05
 122119939.987 7  95158471.511 6  23238654.195                    23238664.422
 117253368.028 7  91366146.93945  22312534.688                    22312543.285
 110393553.555 7  86021071.84746  21007178.648                    21007186.645
 128511316.905 6 100138744.25243  24454909.320                    24454922.773
 124434717.874 7  96962189.794 6  23679128.891                    23679136.738
 117682554.688 7  91700810.02345  22394225.820                    22394234.359
 108506187.143 8  84550434.02346  20648035.570                    20648040.746
 110183712.492 8  85857602.027 7  20967283.016                    20967290.367
 111765737.186 8  87090265.778 7  21268295.930                    21268304.301
 11  8 12  1 18  0.0000000  0  9G25G30G10G09G17G04G02G12G05
 122032358.152 7  95090225.985 6  23221987.789                    23221998.027
 117181513.668 7  91310156.59145  22298861.188                    22298869.395
 110421904.189 7  86043163.27546  21012574.094                    21012581.699
 128594812.557 6 100203805.69443  24470798.016                    24470811.543
 124496498.398 6  97010330.453 6  23690885.563                    23690893.621
 117763930.855 7  91764219.99544  22409710.758                    22409719.695
 108518311.891 8  84559881.88546  20650342.492                    20650348.188
 110148579.095 8  85830225.386 7  20960597.461                    20960604.504
 111692736.484 8  87033382.169 7  21254404.555                    21254412.660
 11  8 12  1 18 30.0000000  0  9G25G30G10G09G17G04G02G12G05
 121945083.767 7  95022220.004 6  23205379.422                    23205390.277
 117110119.058 7  91254524.47744  22285274.563                    22285282.918
 110450866.868 7  86065731.61646  21018085.117                    21018092.652
 128678308.707 6 100268867.43943  24486687.578                    24486700.387
 124558457.427 7  97058610.204 6  23702675.781                    23702684.387
 117845365.445 7  91827675.51345  22425207.500                    22425216.301
 108530674.299 8  84569514.93446  20652695.195                    20652700.332
 110113977.055 8  85803262.799 7  20954013.000                    20954019.941
 111620165.757 8  86976833.610 7  21240594.602                    21240602.871
 11  8 12  1 19  0.0000000  0  9G25G30G10G09G17G04G02G12G05
 121858119.398 7  94954455.570 7  23188831.188                    23188841.355
 117039186.484 7  91199252.38345  22271776.813                    22271784.852
 110480440.726 8  86088776.20046  21023712.961                    21023720.805
 128761802.383 6 100333927.31543  24502576.367                    24502588.883
 124620595.151 7  97107029.226 6  23714499.719                    23714507.930
 117926856.697 7  91891175.18745  22440715.055                    22440723.375
 108543272.965 8  84579332.08846  20655092.523                    20655097.887
 110079907.276 8  85776714.959 7  20947529.609                    20947537.184
 111548027.189 8  86920621.808 7  21226867.250                    21226875.254
 11  8 12  1 19 30.0000000  0  9G25G30G10G09G17G04G02G12G05
 121771467.932 7  94886934.910 6  23172341.430                    23172352.563
 116968718.606 7  91144342.39045  22258367.391                    22258376.016
 110510624.573 7  86112296.11246  21029456.594                    21029464.574
 128845290.881 6 100398983.09943  24518462.906                    24518476.117
 124682912.067 6  97155587.821 6  23726358.625                    23726366.645
 118008403.340 7  91954718.00645  22456232.719                    22456241.734
 108556107.119 8  84589332.73346  20657534.820                    20657540.523
 110046371.550 8  85750583.253 7  20941147.773                    20941154.875
 111476323.305 8  86864748.704 7  21213222.180                    21213230.262
 11  8 12  1 20  0.0000000  0  9G25G30G10G09G17G04G02G12G05
 121685131.947 7  94819660.081 6  23155912.555                    23155923.063
 116898717.880 7  91089796.41645  22245046.664                    22245055.410
 110541417.530 7  86136290.63746  21035316.453                    21035324.227
 128928771.001 6 100464032.35843  24534349.070                    24534362.395
 124745408.490 7  97204286.361 6  23738251.039                    23738259.078
 118090003.902 7  92018302.86845  22471760.203                    22471769.277
 108569175.418 8  84599515.82146  20660021.570                    20660027.105
 110013371.534 8  85724868.991 7  20934868.133                    20934875.430
 111405056.522 8  86809216.213 7  21199660.406                    21199668.332
 11  8 12  1 20 30.0000000  0  9G25G30G10G09G17G04G02G12G05
 121599113.993 7  94752633.028 6  23139544.227                    23139553.980
 116829186.539 7  91035616.19945  22231815.219                    22231823.297
 110572818.168 7  86160758.69146  21041291.391                    21041299.512
 129012239.404 6 100529072.52943  24550232.789                    24550246.148
 124808084.437 6  97253124.741 6  23750178.578                    23750186.238
 118171656.571 7  92081928.33844  22487298.805                    22487307.309
 108582476.418 8  84609880.25346  20662552.508                    20662557.941
 109980908.649 8  85699573.259 7  20928690.633                    20928697.840
 111334229.044 7  86754026.034 7  21186182.922                    21186190.656
 11  8 12  1 21  0.0000000  0  9G25G30G10G09G17G04G02G12G05
 121513416.372 7  94685855.597 6  23123236.219                    23123246.770
 116760126.672 7  90981803.38245  22218673.063                    22218682.277
 110604824.635 8  86185698.81245  21047382.398                    21047389.785
 129095692.676 6 100594100.87043  24566113.531                    24566126.520
 124870940.114 6  97302103.195 6  23762138.844                    23762147.617
 118253359.544 7  92145592.97344  22502845.648                    22502854.766
 108596008.377 8  84620424.63546  20665127.602                    20665132.836
 109948983.866 8  85674696.822 7  20922615.477                    20922622.559
 111263842.847 8  86699179.720 7  21172788.672                    21172796.586
 11  8 12  1 21 30.0000000  0  9G25G30G10G09G17G04G02G12G05
 121428042.121 7  94619330.140 7  23106989.992                    23107000.895
 116691541.002 7  90928360.02545  22205621.758                    22205630.555
 110637436.153 8  86211110.40246  21053588.266                    21053595.430
 129179127.778 6 100659114.99444  24581991.039                    24582003.891
 124933975.857 6  97351221.923 6  23774134.250                    23774142.348
 118335111.816 7  92209296.06244  22518403.289                    22518412.043
 108609770.946 8  84631148.72246  20667746.859                    20667752.184
 109917599.079 8  85650241.159 7  20916643.133                    20916650.273
 111193900.752 8  86644679.445 7  21159478.797                    21159487.266
 11  8 12  1 22  0.0000000  0  9G25G30G10G09G17G04G02G12G05
 121342993.786 7  94553058.683 6  23090805.813                    23090816.660
 116623431.699 7  90875287.86745  22192661.258                    22192669.621
 110670651.498 7  86236992.51546  21059908.594                    21059916.484
 129262541.795 6 100724112.74644  24597863.664                    24597877.273
 124997191.843 6  97400481.120 6  23786163.977                    23786172.508
 118416911.608 7  92273036.14444  22533969.297                    22533977.996
 108623762.636 8  84642051.33646  20670409.461                    20670414.938
 109886755.265 8  85626207.034 7  20910773.695                    20910781.184
 111124404.851 8  86590526.870 7  21146254.391                    21146262.348
 11  8 12  1 22 30.0000000  0  9G25G30G10G09G17G04G02G12G05
 121258273.821 7  94487043.109 6  23074684.477                    23074694.836
 116555801.152 7  90822588.75945  22179791.352                    22179800.047
 110704469.156 8  86263343.96046  21066343.875                    21066351.723
 129345931.535 6 100789091.53444  24613732.914                    24613746.250
 125060588.291 6  97449880.934 6  23798227.609                    23798236.563
 118498757.405 7  92336812.08544  22549544.063                    22549552.762
 108637982.139 8  84653131.48946  20673115.344                    20673120.738
 109856453.946 8  85602595.640 7  20905007.570                    20905014.586
 111055357.223 8  86536723.578 7  21133114.906                    21133123.215
 11  8 12  1 23  0.0000000  0  9G25G30G10G09G17G04G02G12G05
 121173885.037 7  94421285.624 6  23058625.648                    23058635.789
 116488651.782 7  90770264.57645  22167013.273                    22167021.289
 110738888.111 8  86290163.95646  21072893.445                    21072901.445
 129429293.962 7 100854049.06943  24629595.727                    24629609.832
 125124165.453 6  97499421.559 6  23810325.766                    23810334.434
 118580647.947 7  92400622.90144  22565127.273                    22565135.523
 108652428.403 8  84664388.33246  20675864.461                    20675869.484
 109826696.658 8  85579408.158 7  20899345.023                    20899352.160
 110986760.414 8  86483271.597 7  21120061.484                    21120069.684
 11  8 12  1 23 30.0000000  0  9G25G30G10G09G17G04G02G12G05
 121089830.131 7  94355788.310 6  23042630.930                    23042640.957
 116421986.036 7  90718317.25045  22154327.586                    22154335.828
 110773907.161 8  86317451.54645  21079557.461                    21079565.223
 129512626.245 6 100918983.10543  24645455.125                    24645467.578
 125187923.721 6  97549103.342 6  23822459.297                    23822466.984
 118662581.857 7  92464467.51644  22580718.961                    22580727.500
 108667100.142 8  84675820.87646  20678656.359                    20678661.520
 109797485.345 8  85556646.116 7  20893786.453                    20893793.477
 110918616.560 8  86430172.558 7  21107093.719                    21107102.070
 11  8 12  1 24  0.0000000  0  9G25G30G10G09G17G04G02G12G05
 121006111.780 7  94290553.313 7  23026699.328                    23026710.457
 116355806.291 7  90666748.63345  22141733.727                    22141742.160
 110809524.736 8  86345205.53645  21086335.016                    21086342.777
 129595924.793 6 100983890.70742  24661306.461                    24661319.676
 125251863.411 6  97598926.424 6  23834625.492                    23834634.469
 118744557.592 7  92528344.70444  22596318.023                    22596327.273
 108681996.452 8  84687428.42346  20681490.898                    20681496.504
 109768820.753 8  85534310.078 7  20888331.688                    20888338.797
 110850928.246 8  86377428.483 7  21094213.156                    21094221.234
 11  8 12  1 24 30.0000000  0  9G25G30G10G09G17G04G02G12G05
 120922732.339 7  94225582.396 6  23010833.164                    23010843.473
 116290114.574 7  90615560.31245  22129232.836                    22129241.207
 110845739.094 8  86373424.53446  21093226.781                    21093234.281
 129679187.203 6 101048770.38643  24677150.070                    24677163.695
 125315984.464 6  97648890.857 6  23846828.078                    23846836.676
 118826573.636 7  92592253.31044  22611925.039                    22611934.250
 108697115.693 8  84699209.66046  20684368.016                    20684373.500
 109740703.951 8  85512400.886 7  20882981.406                    20882987.922
 110783697.296 8  86325040.802 7  21081419.102                    21081427.359
 11  8 12  1 25  0.0000000  0  9G25G30G10G09G17G04G02G12G05
 120839694.596 7  94160877.752 6  22995031.391                    22995041.680
 116224913.432 7  90564754.23945  22116825.781                    22116833.660
 110882549.267 8  86402107.80746  21100231.328                    21100239.359
 129762409.984 6 101113619.09343  24692986.828                    24693000.570
 125380287.284 6  97698996.950 6  23859064.508                    23859073.363
 118908628.758 7  92656192.36144  22627539.813                    22627548.656
 108712457.102 8  84711164.01846  20687287.445                    20687292.570
 109713136.465 8  85490919.738 7  20877735.031                    20877742.148
 110716926.552 8  86273011.703 7  21068713.328                    21068721.391
 11  8 12  1 25 30.0000000  0  9G25G30G10G09G17G04G02G12G05
 120757001.316 7  94096441.543 7  22979295.336                    22979305.547
 116160205.295 7  90514332.34145  22104512.258                    22104520.594
 110919954.166 8  86431254.50945  21107349.406                    21107357.063
 129845590.522 6 101178434.79843  24708816.391                    24708830.215
 125444772.157 6  97749244.899 6  23871335.422                    23871343.613
 118990721.676 7  92720160.85244  22643161.180                    22643170.492
 108728019.613 8  84723290.66646  20690248.500                    20690254.207
 109686120.066 8  85469868.015 7  20872593.992                    20872600.965
 110650617.789 8  86221342.590 7  21056095.242                    21056103.324
 11  8 12  1 26  0.0000000  0  9G25G30G10G09G17G04G02G12G05
 120674654.783 7  94032275.469 7  22963625.617                    22963635.605
 116095992.164 7  90464296.17945  22092293.055                    22092301.313
 110957951.832 8  86460863.10945  21114580.359                    21114587.660
 129928725.412 6 101243215.01343  24724635.688                    24724650.137
 125509439.215 7  97799634.826 6  23883641.344                    23883649.887
 119072850.833 7  92784157.60444  22658790.328                    22658799.188
 108743801.655 8  84735588.37346  20693251.531                    20693257.176
 109659655.772 8  85449246.496 7  20867558.180                    20867565.203
 110584773.047 8  86170035.061 7  21043565.016                    21043573.496
 11  8 12  1 26 30.0000000  0  9G25G30G10G09G17G04G02G12G05
 120592657.766 7  93968381.764 7  22948021.813                    22948032.074
 116032276.442 7  90414647.59945  22080168.148                    22080176.371
 110996540.889 8  86490932.53146  21121923.500                    21121930.938
 130011811.640 6 101307957.22942  24740447.203                    24740460.918
 125574288.874 7  97850167.030 6  23895982.313                    23895990.371
 119155014.671 7  92848181.36844  22674425.813                    22674434.629
 108759802.298 8  84748056.42746  20696296.578                    20696301.762
 109633744.536 8  85429055.938 7  20862627.250                    20862634.234
 110519394.752 8  86119090.992 7  21031124.281                    21031132.340
 11  8 12  1 27  0.0000000  0  9G25G30G10G09G17G04G02G12G05
 120511012.716 7  93904762.309 7  22932485.602                    22932495.445
 115969060.231 7  90365388.25445  22068138.469                    22068146.641
 111035719.649 8  86521461.46045  21129378.594                    21129386.602
 130094846.316 6 101372659.32643  24756248.602                    24756261.590
 125639321.286 7  97900841.617 6  23908357.289                    23908365.617
 119237212.016 7  92912231.25344  22690067.336                    22690075.582
 108776020.526 8  84760694.03246  20699383.141                    20699388.031
 109608387.807 8  85409297.460 7  20857801.961                    20857808.988
 110454485.200 8  86068512.193 7  21018772.063                    21018780.004
 11  8 12  1 27 30.0000000  0  9G25G30G10G09G17G04G02G12G05
 120429722.577 7  93841419.397 7  22917016.227                    22917026.152
 115906346.091 7  90316520.15245  22056203.813                    22056212.367
 111075486.963 7  86552449.01245  21136946.281                    21136953.996
 130177826.704 6 101437319.14343  24772039.039                    24772052.457
 125704536.500 7  97951658.681 6  23920766.938                    23920775.078
 119319441.704 7  92976306.33144  22705715.336                    22705723.703
 108792455.197 8  84773500.28546  20702510.273                    20702515.219
 109583587.110 8  85389972.260 7  20853082.750                    20853089.879
 110390046.447 8  86018300.251 7  21006509.961                    21006517.957
 11  8 12  1 28  0.0000000  0  9G25G30G10G09G17G04G02G12G05
 120348789.467 7  93778354.696 7  22901614.922                    22901625.746
 115844135.704 7  90268044.58345  22044365.531                    22044373.871
 111115840.877 8  86583893.66045  21144625.297                    21144632.484
 130260749.294 6 101501933.87542  24787818.430                    24787832.242
 125769934.535 7  98002618.209 6  23933211.898                    23933220.066
 119401702.181 7  93040405.40844  22721368.719                    22721377.191
 108809104.581 8  84786473.85246  20705678.531                    20705683.465
 109559342.997 8  85371080.768 7  20848469.547                    20848476.270
 110326080.369 8  85968456.617 7  20994337.563                    20994345.512
 11  8 12  1 28 30.0000000  0  9G25G30G10G09G17G04G02G12G05
 120268216.119 7  93715570.298 7  22886282.328                    22886292.367
 115782431.554 7  90219963.47545  22032623.984                    22032632.699
 111156780.102 8  86615794.37345  21152415.672                    21152423.152
 130343611.468 6 101566501.60143  24803586.344                    24803600.672
 125835515.835 6  98053720.518 6  23945691.328                    23945700.211
 119483991.972 7  93104527.33244  22737027.883                    22737037.035
 108825967.885 8  84799614.11346  20708887.250                    20708892.355
 109535656.850 8  85352624.051 7  20843961.852                    20843968.863
 110262589.198 8  85918983.040 7  20982255.703                    20982263.652
 11  8 12  1 29  0.0000000  0  9G25G30G10G09G17G04G02G12G05
 120188005.238 7  93653068.326 7  22871018.852                    22871029.609
 115721235.870 7  90172278.59545  22020978.688                    22020987.309
 111198303.205 8  86648150.05945  21160317.250                    21160324.883
 130426410.140 6 101631019.73042  24819343.398                    24819356.844
 125901280.520 6  98104965.712 5  23958206.648                    23958214.527
 119566310.046 7  93168671.27644  22752692.625                    22752701.234
 108843044.208 8  84812920.35946  20712136.867                    20712142.445
 109512529.840 8  85334603.015 7  20839560.758                    20839567.281
 110199575.127 8  85869881.227 7  20970263.992                    20970272.133
 11  8 12  1 29 30.0000000  0  9G25G30G10G09G17G04G02G12G05
 120108159.243 7  93590850.667 7  22855824.594                    22855835.184
 115660550.654 7  90124991.46645  22009430.641                    22009439.371
 111240408.216 8  86680959.17645  21168329.359                    21168336.809
 130509142.384 6 101695486.17043  24835087.438                    24835101.098
 125967228.925 6  98156354.087 5  23970755.258                    23970763.840
 119648654.824 7  93232836.03744  22768362.609                    22768371.160
 108860331.998 8  84826391.38646  20715426.563                    20715432.031
 109489962.863 8  85317018.379 7  20835266.445                    20835273.559
 110137039.944 8  85821152.575 7  20958364.141                    20958372.090
 11  8 12  1 30  0.0000000  0  9G25G30G10G09G17G04G02G12G05
 120028680.951 7  93528919.536 7  22840700.492                    22840710.828
 115600378.307 7  90078103.96045  21997980.523                    21997988.438
 111283093.555 8  86714220.49445  21176452.164                    21176459.480
 130591805.383 6 101759898.62743  24850817.523                    24850831.957
 126033360.976 6  98207885.565 5  23983339.586                    23983348.379
 119731025.180 7  93297020.74144  22784037.133                    22784045.871
 108877830.403 8  84840026.52446  20718756.609                    20718761.645
 109467957.588 8  85299871.424 7  20831078.961                    20831085.934
 110074986.215 8  85772799.070 7  20946555.234                    20946563.410
 11  8 12  1 30 30.0000000  0  8G25G30G10G17G04G02G12G05
 119949573.973 7  93467277.721 7  22825646.961                    22825657.203
 115540721.889 7  90031618.47145  21986628.289                    21986636.598
 111326358.866 7  86747933.73545  21184685.297                    21184693.043
 126099677.954 6  98259561.092 5  23995959.727                    23995968.316
 119813420.931 7  93361225.23444  22799715.953                    22799724.633
 108895539.443 8  84853825.79246  20722126.406                    20722131.445
 109446515.978 8  85283163.704 7  20826998.977                    20827006.000
 110013416.898 7  85724823.035 7  20934839.398                    20934846.988
 11  8 12  1 31  0.0000000  0  8G25G30G10G17G04G02G12G05
 119870840.104 7  93405926.675 7  22810663.828                    22810674.180
 115481582.795 7  89985536.08145  21975374.445                    21975382.141
 111370201.689 7  86782096.99145  21193028.594                    21193035.832
 126166179.294 6  98311380.320 6  24008614.664                    24008623.070
 119895840.036 7  93425447.92344  22815400.273                    22815408.246
 108913456.958 8  84867787.52746  20725536.094                    20725541.496
 109425638.245 8  85266895.368 7  20823026.023                    20823032.680
 109952333.264 8  85677225.446 8  20923215.273                    20923223.316
 11  8 12  1 31 30.0000000  0  8G25G30G10G17G04G02G12G05
 119792481.368 7  93344867.941 7  22795752.906                    22795762.844
 115422962.664 7  89939858.06145  21964219.242                    21964227.531
 111414619.806 7  86816708.51846  21201480.781                    21201488.363
 126232864.739 6  98363342.975 6  24021303.563                    24021313.617
 119978280.754 7  93489687.45844  22831088.031                    22831096.836
 108931581.582 8  84881910.64246  20728985.203                    20728990.395
 109405324.845 8  85251066.758 7  20819160.227                    20819167.309
 109891736.725 8  85630007.421 7  20911684.078                    20911692.074
 11  8 12  1 32  0.0000000  0  8G25G30G10G17G04G02G12G05
 119714499.865 7  93284103.152 7  22780913.031                    22780923.430
 115364863.103 7  89894585.69045  21953163.445                    21953171.152
 111459610.892 8  86851766.51245  21210042.477                    21210050.074
 126299733.844 6  98415448.779 6  24034028.859                    24034038.063
 120060741.312 7  93553942.43644  22846780.141                    22846787.914
 108949911.409 8  84896193.64446  20732473.297                    20732478.449
 109385576.297 8  85235678.303 7  20815402.164                    20815409.156
 109831629.131 8  85583170.386 7  20900246.141                    20900253.793
 11  8 12  1 32 30.0000000  0  8G25G30G10G17G04G02G12G05
 119636898.640 7  93223634.692 7  22766146.648                    22766156.938
 115307286.586 7  89849720.87545  21942206.813                    21942215.066
 111505173.876 7  86887270.13545  21218712.539                    21218720.219
 126366787.235 6  98467698.123 6  24046789.250                    24046797.730
 120143221.119 7  93618212.40044  22862474.945                    22862484.023
 108968445.895 8  84910636.13846  20736000.141                    20736005.156
 109366394.066 8  85220731.128 7  20811752.109                    20811758.945
 109772012.707 7  85536716.083 7  20888901.500                    20888909.160
 11  8 12  1 33  0.0000000  0  8G25G30G10G17G04G02G12G05
 119559679.969 7  93163464.359 7  22751451.953                    22751462.219
 115250235.098 7  89805265.18245  21931350.469                    21931358.133
 111551306.473 7  86923217.61445  21227491.398                    21227499.066
 126434025.210 6  98520091.317 6  24059584.703                    24059592.035
 120225718.540 7  93682496.11444  22878174.172                    22878182.121
 108987183.805 8  84925237.13046  20739566.055                    20739570.750
 109347779.183 8  85206226.037 7  20808209.969                    20808216.594
 109712889.163 8  85490645.833 8  20877650.797                    20877658.285
 11  8 12  1 33 30.0000000  0  8G25G30G10G17G04G02G12G05
 119482846.532 7  93103594.198 7  22736831.203                    22736841.723
 115193710.658 7  89761220.16245  21920593.914                    21920602.227
 111598007.245 8  86959607.82545  21236378.102                    21236385.707
 126501447.754 7  98572628.330 6  24072414.867                    24072422.906
 120308232.484 7  93746792.70644  22893875.766                    22893884.570
 109006124.083 8  84939995.80246  20743170.141                    20743175.023
 109329732.617 8  85192163.795 7  20804775.563                    20804782.516
 109654260.400 8  85444961.152 8  20866493.539                    20866501.570
 11  8 12  1 34  0.0000000  0  8G25G30G10G17G04G02G12G05
 119406400.972 7  93044026.322 7  22722283.953                    22722293.953
 115137715.486 7  89717587.57645  21909938.766                    21909946.383
 111645274.567 7  86996439.49845  21245373.383                    21245380.285
 126569054.751 7  98625309.068 6  24085279.531                    24085288.066
 120390761.806 7  93811101.28844  22909580.695                    22909589.359
 109025265.751 8  84954911.40046  20746812.563                    20746817.848
 109312255.188 8  85178545.044 7  20801450.039                    20801456.758
 109596128.713 8  85399663.770 8  20855431.969                    20855440.012
 11  8 12  1 34 30.0000000  0  8G25G30G10G17G04G02G12G05
 119330345.420 7  92984762.330 7  22707811.281                    22707821.344
 115082251.131 7  89674368.59945  21899383.961                    21899392.055
 111693106.218 7  87033710.92245  21254475.047                    21254482.242
 126636846.537 7  98678133.789 6  24098180.047                    24098188.641
 120473305.116 7  93875420.76844  22925288.141                    22925296.359
 109044607.191 8  84969982.66646  20750493.313                    20750498.422
 109295347.533 8  85165370.261 7  20798232.469                    20798239.609
 109538495.446 8  85354754.775 7  20844464.484                    20844472.152
 11  8 12  1 35  0.0000000  0  8G25G30G10G17G04G02G12G05
 119254682.737 7  92925804.470 7  22693413.156                    22693423.203
 115027320.035 7  89631565.16345  21888930.703                    21888938.973
 111741500.499 7  87071420.75545  21263683.953                    21263691.891
 126704823.123 7  98731102.546 6  24111115.602                    24111124.176
 120555861.561 7  93939750.48144  22940998.328                    22941006.590
 109064147.882 8  84985209.19646  20754211.320                    20754216.754
 109279010.742 8  85152640.309 7  20795123.563                    20795130.617
 109481363.119 8  85310236.126 7  20833592.492                    20833600.258
 11  8 12  1 35 30.0000000  0  8G25G30G10G17G04G02G12G05
 119179415.278 7  92867154.572 7  22679090.016                    22679100.273
 114972924.032 7  89589178.69445  21878579.563                    21878587.477
 111790455.490 8  87109567.49645  21272999.844                    21273007.492
 126772984.477 7  98784215.255 6  24124085.594                    24124094.539
 120638429.763 7  94004089.33044  22956710.094                    22956718.004
 109083886.485 8  85000589.94646  20757967.758                    20757973.043
 109263245.676 8  85140355.857 7  20792123.695                    20792130.723
 109424733.405 8  85266109.116 7  20822816.125                    20822824.012
 11  8 12  1 36  0.0000000  0  8G25G30G10G17G04G02G12G05
 119104545.407 8  92808814.481 7  22664842.742                    22664852.875
 114919064.903 7  89547210.57645  21868330.609                    21868338.621
 111839969.240 8  87148149.64245  21282422.117                    21282429.977
 126841331.211 6  98837472.418 6  24137092.023                    24137101.047
 120721008.539 7  94068436.44944  22972424.117                    22972432.723
 109103821.796 8  85016123.98446  20761761.070                    20761766.602
 109248053.039 8  85128517.457 7  20789232.430                    20789239.305
 109368607.942 8  85222375.037 7  20812135.711                    20812143.574
 11  8 12  1 36 30.0000000  0  8G25G30G10G17G04G02G12G05
 119030075.712 7  92750786.196 7  22650671.469                    22650681.883
 114865744.700 7  89505662.39845  21858183.867                    21858191.793
 111890040.026 8  87187165.83945  21291950.063                    21291957.605
 126909862.764 6  98890873.617 6  24150133.125                    24150142.117
 120803596.623 6  94132790.81544  22988139.555                    22988148.402
 109123952.736 8  85031810.45846  20765591.570                    20765597.000
 109233433.794 8  85117125.850 7  20786450.297                    20786457.301
 109312988.584 8  85179035.329 8  20801551.805                    20801559.504
 11  8 12  1 37  0.0000000  0  8G25G30G10G17G04G02G12G05
 118956008.638 7  92693071.648 7  22636577.250                    22636587.430
 114812965.225 8  89464535.57745  21848139.938                    21848148.543
 111940665.865 7  87226614.54645  21301583.938                    21301591.406
 126978579.303 6  98944418.943 6  24163209.375                    24163218.629
 120886193.076 7  94197151.69544  23003858.500                    23003865.879
 109144278.385 8  85047648.65146  20769460.047                    20769464.730
 109219388.872 8  85106181.766 7  20783777.961                    20783785.195
 109257877.522 8  85136091.696 8  20791064.422                    20791072.078
 11  8 12  1 37 30.0000000  0  8G25G30G10G17G04G02G12G05
 118882346.756 7  92635672.834 7  22622559.492                    22622569.828
 114760728.587 7  89423831.74145  21838200.031                    21838208.367
 111991845.003 7  87266494.39745  21311323.344                    21311330.711
 127047481.176 6  98998108.710 6  24176321.172                    24176329.984
 120968796.647 7  94261518.11144  23019577.055                    23019585.059
 109164797.393 8  85063637.51946  20773364.508                    20773369.387
 109205918.665 8  85095685.523 8  20781214.773                    20781221.648
 109203276.052 8  85093545.145 8  20780674.219                    20780682.234
 11  8 12  1 38  0.0000000  0  8G25G30G10G17G04G02G12G05
 118809092.195 7  92578591.402 7  22608619.742                    22608629.703
 114709036.159 7  89383551.97645  21828363.086                    21828370.832
 112043574.879 8  87306803.40045  21321167.266                    21321174.301
 127116568.184 6  99051942.705 6  24189467.734                    24189476.867
 121051406.152 7  94325889.18244  23035296.820                    23035305.117
 109185508.678 8  85079776.21046  20777305.508                    20777310.859
 109193023.875 8  85085637.646 7  20778760.859                    20778767.680
 109149186.042 8  85051397.138 8  20770381.039                    20770388.656
 11  8 12  1 38 30.0000000  0  8G25G30G10G17G04G02G12G05
 118736247.797 7  92521829.553 7  22594757.859                    22594767.852
 114657890.288 8  89343698.09645  21818630.461                    21818638.469
 112095853.865 8  87347540.27445  21331115.367                    21331122.875
 127185840.648 6  99105921.219 6  24202649.773                    24202659.125
 121134020.600 7  94390264.08444  23051017.633                    23051026.371
 109206411.655 8  85096064.27746  20781283.297                    20781288.273
 109180705.459 8  85076038.892 7  20776416.891                    20776423.750
 109095609.382 8  85009649.141 8  20760185.508                    20760193.539
 11  8 12  1 39  0.0000000  0  8G25G30G10G17G04G02G12G05
 118663815.721 7  92465388.990 7  22580974.875                    22580984.684
 114607292.577 8  89304271.36245  21809002.539                    21809009.934
 112148679.937 7  87388703.44645  21341167.930                    21341175.422
 127255298.266 6  99160044.026 6  24215867.609                    24215876.680
 121216638.874 7  94454641.97144  23066739.438                    23066747.672
 109227504.916 8  85112500.61646  20785297.195                    20785302.855
 109168963.921 8  85066889.651 7  20774182.430                    20774189.406
 109042547.806 8  84968302.510 7  20750088.508                    20750096.141
 11  8 12  1 39 30.0000000  0  8G25G30G10G17G04G02G12G05
 118591798.391 7  92409271.567 7  22567270.047                    22567280.367
 114557244.732 8  89265273.10345  21799478.352                    21799486.016
 112202051.156 7  87430291.41745  21351324.102                    21351331.555
 127324941.269 6  99214311.267 6  24229120.484                    24229129.656
 121299259.721 6  94519021.85344  23082461.617                    23082470.363
 109248786.899 8  85129084.01446  20789346.469                    20789352.004
 109157800.079 8  85058190.559 7  20772057.672                    20772065.102
 108990002.959 8  84927358.524 7  20740089.617                    20740097.066
 11  8 12  1 40  0.0000000  0  9G25G30G29G10G17G04G02G12G05
 118520198.076 7  92353479.094 7  22553645.016                    22553654.926
 114507748.361 8  89226704.55245  21790059.391                    21790067.441
 129602594.24215 100989109.14715  24662562.289                    24662572.156
 112255965.044 7  87472302.25145  21361583.539                    21361590.789
 127394769.682 6  99268722.979 6  24242407.781                    24242416.938
 121381881.840 6  94583402.75444  23098184.320                    23098192.625
 109270256.523 8  85145813.62646  20793432.359                    20793437.414
 109147214.279 8  85049941.887 7  20770043.609                    20770050.410
 108937976.213 8  84886818.251 7  20730189.164                    20730196.926
 11  8 12  1 40 30.0000000  0  9G25G30G29G10G17G04G02G12G05
 118449017.225 7  92298013.510 7  22540099.500                    22540109.301
 114458805.241 8  89188567.10945  21780745.969                    21780753.652
 129522860.976 6 100926979.456 5  24647388.875                    24647399.758
 112310419.783 7  87514734.52645  21371945.672                    21371953.539
 127464783.026 6  99323278.766 6  24255731.484                    24255740.203
 121464504.551 7  94647784.09244  23113906.352                    23113915.504
 109291912.826 8  85162688.69546  20797553.578                    20797559.293
 109137206.538 8  85042143.653 7  20768139.180                    20768145.805
 108886469.286 8  84846683.036 8  20720387.383                    20720394.879
 11  8 12  1 41  0.0000000  0  9G25G30G29G10G17G04G02G12G05
 118378258.611 7  92242876.944 7  22526635.086                    22526644.391
 114410417.448 8  89150862.35945  21771537.945                    21771546.031
 129443053.965 6 100864792.203 5  24632203.211                    24632212.816
 112365413.517 7  87557586.79145  21382411.078                    21382418.746
 127534981.905 6  99377979.175 5  24269089.281                    24269098.176
 121547126.843 6  94712165.12844  23129629.289                    23129637.391
 109313755.520 8  85179709.00046  20801709.992                    20801714.887
 109127778.461 8  85034797.100 8  20766344.586                    20766351.730
 108835484.369 8  84806954.574 8  20710685.211                    20710692.977
 11  8 12  1 41 30.0000000  0  9G25G30G29G10G17G04G02G12G05
 118307924.417 7  92188071.100 7  22513250.266                    22513260.602
 114362586.564 7  89113591.55645  21762436.422                    21762444.117
 129363173.202 6 100802547.533 5  24617002.594                    24617011.590
 112420943.610 7  87600856.99345  21392977.891                    21392985.813
 127605366.185 6  99432824.051 5  24282483.281                    24282492.145
 121629747.217 7  94776544.66744  23145351.688                    23145359.609
 109335782.928 8  85196873.22546  20805901.516                    20805906.695
 109118930.573 8  85027902.644 7  20764661.406                    20764668.168
 108785022.445 8  84767633.648 8  20701082.914                    20701090.504
 11  8 12  1 42  0.0000000  0  9G25G30G29G10G17G04G02G12G05
 118238016.831 7  92133597.685 7  22499947.758                    22499957.465
 114315314.158 7  89076755.95645  21753440.320                    21753448.156
 129283219.017 6 100740245.631 5  24601786.516                    24601796.043
 112477008.259 7  87644543.73445  21403646.836                    21403654.328
 127675935.575 6  99487813.128 5  24295911.930                    24295920.473
 121712365.020 7  94840922.19344  23161073.523                    23161081.121
 109357993.865 8  85214180.47146  20810128.352                    20810133.430
 109110662.466 8  85021459.975 7  20763088.023                    20763094.969
 108735085.520 8  84728721.819 7  20691579.992                    20691587.668
 11  8 12  1 42 30.0000000  0  9G25G30G29G10G17G04G02G12G05
 118168538.354 7  92079458.621 7  22486726.469                    22486736.156
 114268601.991 7  89040356.90545  21744550.883                    21744558.848
 129203192.041 6 100677887.030 5  24586558.672                    24586567.215
 112533605.113 7  87688645.19145  21414416.742                    21414424.008
 127746690.305 6  99542946.673 6  24309375.891                    24309385.281
 121794978.983 7  94905296.72844  23176794.273                    23176802.336
 109380387.362 8  85231629.97446  20814389.648                    20814394.523
 109102975.338 8  85015470.000 7  20761625.320                    20761632.121
 108685675.035 8  84690220.199 8  20682177.695                    20682185.367
 11  8 12  1 43  0.0000000  0  9G25G30G29G10G17G04G02G12G05
 118099491.164 7  92025655.642 7  22473587.266                    22473597.402
 114222451.530 7  89004395.56145  21735768.500                    21735776.809
 129123093.030 6 100615472.309 5  24571315.938                    24571325.262
 112590732.188 7  87733159.81245  21425287.516                    21425295.242
 127817630.262 6  99598224.521 6  24322875.820                    24322884.707
 121877587.936 7  94969667.36944  23192514.133                    23192522.293
 109402962.153 8  85249220.73146  20818685.273                    20818690.738
 109095869.175 8  85009932.743 7  20760272.680                    20760279.602
 108636792.482 8  84652129.932 8  20672875.523                    20672882.953
 11  8 12  1 43 30.0000000  0  9G25G30G29G10G17G04G02G12G05
 118030877.795 7  91972190.729 7  22460530.297                    22460540.813
 114176864.559 8  88968873.29545  21727094.039                    21727102.055
 129042922.363 6 100553001.790 6  24556060.156                    24556069.773
 112648387.342 7  87778085.91545  21436259.070                    21436266.359
 127888755.406 6  99653646.678 6  24336410.719                    24336419.672
 121960191.019 7  95034033.40944  23208233.227                    23208241.359
 109425717.424 8  85266952.12146  20823015.648                    20823020.953
 109089344.604 8  85004848.664 7  20759031.195                    20759038.117
 108588439.345 8  84614452.208 8  20663674.227                    20663681.594
 11  8 12  1 44  0.0000000  0  9G25G30G29G10G17G04G02G12G05
 117962700.355 7  91919065.500 7  22447556.273                    22447566.895
 114131842.508 8  88933791.22745  21718526.328                    21718534.496
 128962680.505 6 100490475.775 6  24540790.211                    24540799.520
 112706568.350 7  87823421.77445  21447330.484                    21447337.406
 127960065.582 6  99709213.066 6  24349980.859                    24349989.121
 122042787.206 7  95098394.07144  23223950.102                    23223958.930
 109448651.949 8  85284823.18946  20827379.836                    20827385.254
 109083402.354 8  85000218.349 7  20757900.336                    20757907.375
 108540616.957 8  84577188.061 8  20654573.984                    20654581.520
 11  8 12  1 44 30.0000000  0  9G25G30G29G10G17G04G02G12G05
 117894961.323 7  91866281.912 7  22434666.117                    22434675.750
 114087387.117 8  88899150.68945  21710067.148                    21710074.809
 128882368.291 6 100427894.937 6  24525507.766                    24525517.313
 112765272.767 7  87869165.49745  21458501.516                    21458508.895
 128031560.929 6  99764923.661 6  24363585.617                    24363595.344
 122125375.458 7  95162748.54244  23239666.477                    23239675.164
 109471764.988 7  85302833.34446  20831778.164                    20831783.074
 109078042.597 7  84996041.915 7  20756880.703                    20756887.707
 108493327.083 8  84540338.858 8  20645574.609                    20645582.461
 11  8 12  1 45  0.0000000  0  9G25G30G29G10G17G04G02G12G05
 117827662.979 7  91813841.704 7  22421859.773                    22421870.008
 114043499.904 7  88864952.90645  21701715.328                    21701723.637
 128801986.075 6 100365259.543 6  24510211.250                    24510220.535
 112824498.333 7  87915315.29845  21469771.875                    21469778.996
 128103241.127 6  99820778.311 6  24377226.180                    24377234.844
 122207955.050 7  95227096.25344  23255380.586                    23255389.590
 109495055.268 8  85320981.62446  20836210.250                    20836215.375
 109073265.607 8  84992319.593 8  20755971.281                    20755978.406
 108446571.258 8  84503905.798 8  20636677.461                    20636684.996
 11  8 12  1 45 30.0000000  0  9G25G30G29G10G17G04G02G12G05
 117760807.622 7  91761746.697 7  22409137.000                    22409147.391
 114000182.378 8  88831199.03545  21693472.305                    21693480.281
 128721534.352 6 100302569.984 6  24494902.063                    24494911.293
 112884242.979 8  87961869.58645  21481140.891                    21481148.141
 128175106.369 6  99876777.171 6  24390901.656                    24390910.000
 122290524.766 7  95291436.29044  23271092.867                    23271102.113
 109518521.819 8  85339267.23146  20840675.516                    20840680.715
 109069071.929 8  84989051.806 8  20755173.531                    20755180.551
 108400350.845 8  84467889.933 8  20627881.672                    20627889.188
 11  8 12  1 46  0.0000000  0  9G25G30G29G10G17G04G02G12G05
 117694397.378 7  91709998.515 7  22396499.953                    22396509.773
 113957436.014 8  88797890.22745  21685337.766                    21685345.957
 128641013.741 6 100239826.713 6  24479578.875                    24479588.824
 112944504.368 7  88008826.52245  21492608.078                    21492615.313
 128247156.615 6  99932920.189 6  24404612.492                    24404621.508
 122373083.519 6  95355767.79944  23286803.563                    23286812.137
 109542163.518 8  85357689.34146  20845174.711                    20845180.016
 109065461.616 8  84986238.580 7  20754486.430                    20754493.488
 108354667.039 8  84432292.203 7  20619188.742                    20619196.340
 11  8 12  1 46 30.0000000  0  9G25G30G29G10G17G04G02G12G05
 117628434.733 7  91658599.134 7  22383947.305                    22383957.516
 113915262.484 7  88765027.78745  21677312.336                    21677319.609
 128560424.938 6 100177030.347 6  24464242.953                    24464253.000
 113005280.327 7  88056184.42245  21504173.195                    21504180.598
 128319391.641 6  99989207.178 6  24418358.758                    24418367.605
 122455630.639 7  95420090.20844  23302511.977                    23302520.547
 109565979.447 8  85376247.19846  20849706.563                    20849711.605
 109062435.560 8  84983880.627 7  20753910.758                    20753917.453
 108309521.661 8  84397114.035 7  20610597.750                    20610604.980
 11  8 12  1 47  0.0000000  0  9G25G30G29G10G17G04G02G12G05
 117562921.693 7  91607550.102 7  22371480.820                    22371490.848
 113873662.979 7  88732612.62545  21669396.539                    21669404.508
 128479768.600 6 100114181.318 6  24448893.969                    24448904.523
 113066568.477 7  88103941.42445  21515836.172                    21515843.418
 128391811.294 6 100045638.053 6  24432139.398                    24432148.637
 122538165.040 7  95484402.73843  23318217.664                    23318225.191
 109589968.340 8  85394939.84046  20854271.531                    20854276.902
 109059993.294 7  84981977.580 7  20753445.727                    20753452.594
 108264915.758 8  84362356.240 8  20602109.422                    20602117.035
 11  8 12  1 47 30.0000000  0  9G25G30G29G10G17G04G02G12G05
 117497860.597 7  91556853.229 7  22359099.961                    22359109.977
 113832639.071 8  88700645.97445  21661589.539                    21661597.473
 128399045.363 6 100051280.148 6  24433533.523                    24433543.758
 113128366.451 7  88152095.70645  21527595.477                    21527603.445
 128464415.447 6 100102212.705 6  24445955.172                    24445964.234
 122620685.569 6  95548704.44244  23333921.000                    23333928.871
 109614129.393 8  85413766.62446  20858869.266                    20858874.238
 109058134.927 8  84980529.512 7  20753092.266                    20753099.305
 108220850.713 8  84328019.890 8  20593723.977                    20593731.598
 11  8 12  1 48  0.0000000  0  9G25G30G29G10G17G04G02G12G05
 117433253.442 7  91506510.081 7  22346806.008                    22346814.813
 113792191.880 8  88669128.71445  21653892.711                    21653901.090
 128318255.848 6  99988327.340 6  24418160.227                    24418169.672
 113190671.760 7  88200645.31745  21539451.953                    21539459.488
 128537204.014 6 100158931.032 6  24459806.570                    24459815.258
 122703191.363 6  95612994.66544  23349620.984                    23349629.227
 109638461.355 8  85432726.58746  20863499.391                    20863504.465
 109056860.928 8  84979536.801 8  20752849.688                    20752856.695
 108177327.634 8  84294105.847 8  20585441.656                    20585449.230
 11  8 12  1 48 30.0000000  0  9G25G30G29G10G17G04G02G12G05
 117369102.648 7  91456522.499 7  22334598.148                    22334607.273
 113752322.996 7  88638062.08945  21646305.914                    21646313.539
 128237400.755 6  99925323.429 6  24402773.758                    24402782.938
 113253482.100 7  88249588.44645  21551404.539                    21551412.184
 128610176.965 6 100215793.032 6  24473692.063                    24473701.801
 122785681.484 7  95677272.65243  23365318.648                    23365326.313
 109662963.349 8  85451819.04646  20868161.836                    20868167.090
 109056171.695 8  84978999.747 7  20752718.539                    20752725.742
 108134347.941 8  84260615.214 8  20577263.000                    20577270.598
 11  8 12  1 49  0.0000000  0  9G25G30G29G10G17G04G02G12G05
 117305410.485 7  91406892.319 7  22322477.844                    22322487.383
 113713033.944 7  88607447.28645  21638829.211                    21638837.648
 128156480.521 6  99862268.744 6  24387374.586                    24387384.535
 113316795.396 7  88298923.48645  21563452.992                    21563460.543
 128683334.042 6 100272798.479 6  24487613.273                    24487623.578
 122868155.343 6  95741537.97843  23381012.336                    23381020.953
 109687634.522 8  85471043.33346  20872856.563                    20872861.797
 109056067.665 8  84978918.688 7  20752698.742                    20752705.727
 108091913.250 8  84227549.263 8  20569187.914                    20569195.141
 11  8 12  1 49 30.0000000  0  9G25G30G29G10G17G04G02G12G05
 117242178.991 7  91357621.091 7  22310445.375                    22310455.137
 113674325.983 7  88577285.26945  21631463.570                    21631471.535
 128075495.927 6  99799163.938 6  24371964.180                    24371973.875
 113380608.871 7  88348648.28145  21575596.031                    21575603.781
 128756675.133 6 100329947.319 6  24501570.750                    24501579.918
 122950611.839 6  95805789.74943  23396703.313                    23396712.605
 109712473.696 8  85490398.51846  20877583.258                    20877588.543
 109056548.156 8  84979293.089 7  20752790.352                    20752796.969
 108050024.625 8  84194908.806 8  20561217.070                    20561224.012
 11  8 12  1 50  0.0000000  0  8G25G30G29G10G04G02G12G05
 117179411.232 7  91308711.196 7  22298500.555                    22298510.719
 113636201.202 8  88547577.67945  21624208.609                    21624216.523
 127994448.599 6  99736010.212 6  24356541.750                    24356550.281
 113444921.108 7  88398761.70045  21587834.578                    21587842.066
 123033050.855 6  95870027.94443  23412391.578                    23412399.859
 109737480.820 8  85509884.58846  20882342.109                    20882347.242
 109057614.326 8  84980123.877 8  20752992.789                    20753000.363
 108008684.035 8  84162695.395 8  20553350.219                    20553357.652
 11  8 12  1 50 30.0000000  0  8G25G30G29G10G04G02G12G05
 117117108.478 7  91260163.656 7  22286645.031                    22286654.855
 113598660.098 7  88518324.87545  21617065.047                    21617072.715
 127913338.235 6  99672807.390 6  24341106.563                    24341115.238
 113509728.633 7  88449261.07945  21600166.711                    21600174.297
 123115470.761 6  95934251.21544  23428075.641                    23428084.332
 109762654.061 8  85529500.10146  20887132.383                    20887137.555
 109059265.919 8  84981410.836 7  20753307.148                    20753314.309
 107967891.934 8  84130909.382 8  20545587.352                    20545594.957
 11  8 12  1 51  0.0000000  0  8G25G30G29G10G04G02G12G05
 117055272.586 7  91211979.899 7  22274878.203                    22274887.895
 113561703.563 7  88489527.59845  21610032.258                    21610040.207
 127832165.386 7  99609555.868 6  24325660.445                    24325669.145
 113575029.163 7  88500144.61145  21612593.133                    21612600.820
 123197870.353 6  95998458.67344  23443755.508                    23443763.984
 109787991.913 8  85549243.87946  20891954.219                    20891959.199
 109061502.260 7  84983153.442 7  20753732.656                    20753739.617
 107927649.207 8  84099551.448 8  20537929.258                    20537936.719
 11  8 12  1 51 30.0000000  0  8G25G30G29G10G04G02G12G05
 116993905.736 8  91164161.623 7  22263200.539                    22263210.328
 113525332.994 7  88461186.91245  21603111.008                    21603118.977
 127750930.770 7  99546256.196 6  24310201.258                    24310210.340
 113640820.147 7  88551410.30845  21625112.297                    21625120.098
 123280248.771 6  96062649.63744  23459431.945                    23459440.668
 109813493.499 8  85569115.25546  20896806.789                    20896812.262
 109064323.358 8  84985351.691 7  20754270.047                    20754276.777
 107887956.980 8  84068622.472 8  20530376.359                    20530383.750
 11  8 12  1 52  0.0000000  0  8G25G30G29G10G04G02G12G05
 116933010.292 7  91116710.674 7  22251612.453                    22251622.039
 113489549.794 7  88433303.91545  21596301.781                    21596309.594
 127669635.229 7  99482909.087 6  24294731.750                    24294740.262
 113707099.228 7  88603056.35145  21637724.758                    21637732.316
 123362605.358 6  96126823.57943  23475103.359                    23475112.480
 109839158.095 8  85589113.64746  20901690.789                    20901695.848
 109067729.402 8  84988005.751 7  20754917.781                    20754924.965
 107848816.655 8  84038123.549 8  20522928.195                    20522935.824
 11  8 12  1 52 30.0000000  0  8G25G30G29G10G04G02G12G05
 116872588.405 8  91069628.725 7  22240114.078                    22240124.617
 113454355.243 7  88405879.60345  21589604.320                    21589612.863
 127588279.592 7  99419515.135 6  24279249.406                    24279258.246
 113773864.110 7  88655080.92545  21650429.930                    21650437.473
 123444939.480 7  96190980.06944  23490771.617                    23490779.285
 109864984.790 8  85609238.34646  20906605.156                    20906610.602
 109071720.684 8  84991115.836 7  20755677.633                    20755684.762
 107810229.652 8  84008055.782 8  20515585.281                    20515592.746
 11  8 12  1 53  0.0000000  0  8G25G30G29G10G04G02G12G05
 116812641.859 8  91022917.175 7  22228706.734                    22228716.668
 113419750.252 8  88378914.69045  21583019.266                    21583027.094
 127506864.390 7  99356074.793 6  24263757.109                    24263765.945
 113841112.013 7  88707481.89445  21663226.523                    21663233.945
 123527249.864 7  96255118.04444  23506434.922                    23506442.852
 109890972.411 8  85629488.44046  20911550.664                    20911555.555
 109076296.688 8  84994681.542 7  20756548.180                    20756555.449
 107772196.630 8  83978419.696 8  20508348.156                    20508355.285
 11  8 12  1 53 30.0000000  0  8G25G30G29G10G04G02G12G05
 116753172.785 8  90976577.649 7  22217390.000                    22217399.656
 113385735.961 7  88352410.05445  21576546.563                    21576554.473
 127425390.325 6  99292588.573 6  24248253.539                    24248262.344
 113908840.409 7  88760257.26045  21676115.039                    21676122.449
 123609535.955 7  96319237.05844  23522093.523                    23522101.281
 109917119.761 8  85649863.00846  20916526.438                    20916531.668
 109081457.843 8  84998703.212 7  20757530.320                    20757537.430
 107734718.762 8  83949216.196 8  20501216.172                    20501223.395
 11  8 12  1 54  0.0000000  0  8G25G30G29G10G04G02G12G05
 116694183.470 7  90930611.972 7  22206165.047                    22206174.910
 113352313.730 7  88326366.77845  21570186.328                    21570194.852
 127343858.570 6  99229057.373 6  24232738.742                    24232747.273
 113977047.362 7  88813405.53245  21689094.234                    21689102.195
 123691796.904 7  96383336.46644  23537746.508                    23537755.145
 109943426.621 8  85670361.88646  20921531.547                    20921537.477
 109087204.092 8  85003180.802 7  20758623.828                    20758630.586
 107697797.237 8  83920446.213 8  20494189.938                    20494197.012
 11  8 12  1 54 30.0000000  0  8G25G30G29G10G04G02G12G05
 116635675.892 8  90885021.668 7  22195031.328                    22195040.699
 113319484.617 7  88300785.65745  21563939.477                    21563947.020
 127262269.501 6  99165481.529 6  24217210.961                    24217221.430
 114045730.137 7  88866924.56345  21702164.414                    21702172.160
 123774032.115 6  96447415.84944  23553395.289                    23553403.652
 109969891.768 8  85690984.09746  20926568.258                    20926573.262
 109093534.889 8  85008113.879 7  20759828.477                    20759835.156
 107661432.941 8  83892110.423 8  20487270.070                    20487277.070
 11  8 12  1 55  0.0000000  0  8G25G30G29G10G04G02G12G05
 116577652.117 7  90839808.363 7  22183989.469                    22183999.805
 113287249.718 7  88275667.54545  21557805.422                    21557813.320
 127180623.841 6  99101861.599 6  24201674.063                    24201684.543
 114114886.368 7  88920812.53145  21715324.797                    21715332.363
 123856240.738 6  96511474.48744  23569039.266                    23569048.211
 109996514.270 8  85711728.92146  20931634.266                    20931639.672
 109100450.273 8  85013502.483 7  20761144.688                    20761151.313
 107625626.804 8  83864209.574 8  20480456.344                    20480463.523
 11  8 12  1 55 30.0000000  0  8G25G30G29G10G04G02G12G05
 116520114.009 8  90794973.499 7  22173040.453                    22173050.215
 113255609.940 7  88251013.18045  21551784.617                    21551792.434
 127098922.584 6  99038198.336 6  24186127.281                    24186136.855
 114184513.128 7  88975067.14245  21728573.898                    21728581.410
 123938421.703 7  96575511.58344  23584678.211                    23584686.387
 110023292.763 8  85732595.29546  20936729.914                    20936735.355
 109107949.632 8  85019346.119 7  20762571.523                    20762578.445
 107590380.011 8  83836744.565 8  20473748.875                    20473756.133
 11  8 12  1 56  0.0000000  0  8G25G30G29G10G04G02G12G05
 116463063.531 8  90750518.609 7  22162184.211                    22162194.422
 113224566.285 7  88226823.33145  21545877.227                    21545884.688
 127017166.405 6  98974492.247 6  24170569.383                    24170579.570
 114254607.587 7  89029686.19745  21741912.469                    21741919.875
 124020574.481 7  96639526.72644  23600310.766                    23600320.027
 110050226.626 7  85753582.74946  20941855.570                    20941860.688
 109116033.141 8  85025644.947 7  20764109.984                    20764116.711
 107555693.453 8  83809716.116 8  20467148.453                    20467155.492
 11  8 12  1 56 30.0000000  0  8G25G30G29G10G04G02G12G05
 116406503.100 8  90706445.557 7  22151420.781                    22151430.438
 113194120.148 7  88203099.08645  21540083.492                    21540091.176
 126935356.227 6  98910744.065 6  24155001.875                    24155011.102
 114325167.725 7  89084668.12445  21755339.563                    21755347.059
 124102698.415 7  96703519.37744  23615938.805                    23615947.359
 110077315.249 8  85774690.79646  20947010.336                    20947015.406
 109124700.810 8  85032398.966 7  20765759.180                    20765766.574
 107521568.166 8  83783125.019 8  20460654.750                    20460661.883
 11  8 12  1 57  0.0000000  0  8G25G30G29G10G04G02G12G05
 116350434.120 8  90662755.451 7  22140751.320                    22140761.297
 113164272.015 7  88179840.82245  21534403.172                    21534411.285
 126853492.779 6  98846954.399 6  24139423.383                    24139433.848
 114396190.815 7  89140010.78045  21768854.703                    21768862.570
 124184792.391 7  96767488.66444  23631561.344                    23631569.348
 110104557.276 8  85795918.37546  20952194.063                    20952199.129
 109133952.034 8  85039607.696 7  20767519.500                    20767526.801
 107488004.761 8  83756971.746 8  20454267.906                    20454275.262
 11  8 12  1 57 30.0000000  0  8G25G30G29G10G04G02G12G05
 116294858.654 8  90619449.910 7  22130175.344                    22130186.082
 113135022.921 7  88157049.33345  21528837.352                    21528845.582
 126771576.957 6  98783123.895 6  24123835.711                    24123845.125
 114467673.977 7  89195711.92845  21782457.781                    21782465.258
 124266855.732 7  96831434.12243  23647176.586                    23647185.633
 110131951.763 8  85817264.75446  20957407.438                    20957412.738
 109143786.651 8  85047271.017 7  20769391.250                    20769398.328
 107455004.216 8  83731257.073 8  20447987.914                    20447995.297
 11  8 12  1 58  0.0000000  0  8G25G30G29G10G04G02G12G05
 116239778.521 8  90576530.334 7  22119694.133                    22119704.391
 113106373.631 7  88134725.22745  21523385.813                    21523393.660
 126689609.320 6  98719253.007 6  24108238.219                    24108247.359
 114539614.405 7  89251769.40545  21796147.922                    21796155.258
 124348887.663 7  96895355.09543  23662786.961                    23662795.805
 110159497.527 8  85838729.00546  20962649.297                    20962654.148
 109154204.120 8  85055388.513 7  20771373.438                    20771380.488
 107422567.280 8  83705981.579 8  20441815.344                    20441822.602
 11  8 12  1 58 30.0000000  0  8G25G30G29G10G04G02G12G05
 116185195.563 8  90533998.190 7  22109307.383                    22109317.152
 113078324.997 7  88112869.14345  21518048.008                    21518056.191
 126607590.778 6  98655342.440 6  24092630.922                    24092639.156
 114612009.600 7  89308181.25345  21809923.953                    21809931.453
 124430887.423 7  96959251.02043  23678390.586                    23678399.355
 110187193.473 8  85860310.27646  20967919.773                    20967924.551
 109165203.836 8  85063959.705 7  20773467.211                    20773474.145
 107390694.783 8  83681145.900 8  20435749.984                    20435757.582
 11  8 12  1 59  0.0000000  0  8G25G30G29G10G04G02G12G05
 116131112.004 8  90491855.165 7  22099015.898                    22099026.160
 113050878.218 7  88091482.05545  21512825.133                    21512833.184
 126525522.361 6  98591393.071 6  24077012.891                    24077022.254
 114684857.679 7  89364945.97345  21823786.828                    21823794.012
 124512854.513 7  97023121.46243  23693989.492                    23693996.762
 110215039.616 8  85882008.59346  20973218.313                    20973223.410
 109176786.005 8  85072984.755 7  20775670.852                    20775677.457
 107359387.737 8  83656750.832 8  20429792.594                    20429799.852
 11  8 12  1 59 30.0000000  0  8G25G30G29G10G04G02G12G05
 116077529.594 8  90450102.663 7  22088819.547                    22088829.305
 113024033.975 7  88070564.48345  21507717.156                    21507724.922
 126443404.778 6  98527405.377 6  24061386.617                    24061396.070
 114758155.806 7  89422061.39245  21837734.555                    21837741.754
 124594788.101 7  97086965.83243  23709580.016                    23709588.699
 110243034.669 7  85903822.93846  20978545.719                    20978551.020
 109188949.789 8  85082463.016 8  20777985.727                    20777992.418
 107328646.706 8  83632796.825 8  20423942.703                    20423950.094
 11  8 12  2  0  0.0000000  0  8G25G30G29G10G04G02G12G05
 116024449.978 8  90408741.936 7  22078718.484                    22078728.867
 112997792.931 8  88050116.93245  21502723.586                    21502731.219
 126361239.064 7  98463380.158 6  24045751.172                    24045760.844
 114831900.757 7  89479524.98745  21851767.422                    21851775.492
 124676687.439 7  97150783.47244  23725165.656                    23725173.723
 110271177.571 8  85925752.48046  20983900.969                    20983906.348
 109201694.933 8  85092394.299 7  20780410.938                    20780417.656
 107298472.546 8  83609284.522 8  20418200.570                    20418207.699
 11  8 12  2  0 30.0000000  0  8G25G30G29G10G04G02G12G05
 115971875.531 8  90367774.844 7  22068714.031                    22068723.922
 112972156.292 7  88030140.34845  21497844.945                    21497853.055
 126279026.137 7  98399318.175 6  24030107.102                    24030115.449
 114906090.512 7  89537335.16445  21865885.438                    21865893.313
 124758552.154 7  97214574.20343  23740743.773                    23740751.789
 110299467.955 8  85947796.93846  20989284.539                    20989289.262
 109215021.518 8  85102778.656 7  20782946.484                    20782953.895
 107268866.346 8  83586214.803 8  20412566.984                    20412573.895
 11  8 12  2  1  0.0000000  0  8G25G30G29G10G04G02G12G05
 115919807.632 8  90327202.476 7  22058805.836                    22058816.141
 112947124.461 7  88010635.03645  21493081.719                    21493089.371
 126196766.770 7  98335220.014 6  24014453.289                    24014461.137
 114980722.180 7  89595489.70745  21880087.711                    21880095.211
 124840381.336 7  97278337.19943  23756314.820                    23756323.750
 110327904.431 8  85969955.23846  20994695.789                    20994700.789
 109228928.586 8  85113615.311 7  20785593.156                    20785600.270
 107239828.123 8  83563587.667 8  20407041.031                    20407047.969
 11  8 12  2  1 30.0000000  0  8G25G30G29G10G04G02G12G05
 115868248.330 8  90287026.415 7  22048994.500                    22049004.434
 112922698.325 7  87991601.69345  21488433.375                    21488441.520
 126114461.926 6  98271086.441 6  23998790.836                    23998799.820
 115055793.079 7  89653986.50845  21894372.945                    21894380.492
 124922174.379 6  97342072.04243  23771879.789                    23771888.320
 110356486.387 8  85992226.89446  21000134.969                    21000139.875
 109243415.652 8  85124903.921 7  20788350.008                    20788357.188
 107211358.959 8  83541403.948 8  20401623.594                    20401630.719
 11  8 12  2  2  0.0000000  0  8G25G30G29G10G04G02G12G05
 115817199.295 8  90247247.979 7  22039280.156                    22039290.125
 112898878.573 7  87973040.85146  21483900.695                    21483908.672
 126032112.292 6  98206918.009 6  23983119.938                    23983129.766
 115131300.226 7  89712823.24845  21908741.914                    21908749.156
 125003930.734 7  97405778.29243  23787437.703                    23787446.355
 110385212.640 8  86014610.97846  21005601.344                    21005606.230
 109258482.010 8  85136643.925 7  20791217.086                    20791224.098
 107183459.551 7  83519664.203 8  20396314.422                    20396321.633
 11  8 12  2  2 30.0000000  0  8G25G30G29G10G04G02G12G05
 115766662.392 8  90207868.605 7  22029663.148                    22029673.383
 112875665.951 8  87954953.09445  21479483.406                    21479491.426
 125949719.182 6  98142715.681 6  23967441.875                    23967449.742
 115207241.478 7  89771998.23945  21923192.484                    21923200.445
 125085649.555 7  97469455.27743  23802988.555                    23802997.035
 110414082.658 8  86037107.09946  21011094.891                    21011099.832
 109274127.499 8  85148835.183 7  20794194.313                    20794201.227
 107156130.252 8  83498368.686 8  20391113.727                    20391120.770
 11  8 12  2  3  0.0000000  0  8G25G30G29G10G04G02G12G05
 115716639.060 8  90168889.396 7  22020144.102                    22020153.984
 112853060.750 7  87937338.65645  21475181.773                    21475189.781
 125867283.023 6  98078479.799 6  23951753.961                    23951762.500
 115283613.887 7  89831509.22145  21937725.891                    21937733.328
 125167330.147 7  97533102.50343  23818530.961                    23818540.332
 110443095.226 8  86059714.28646  21016615.570                    21016621.133
 109290351.074 8  85161476.915 7  20797281.688                    20797288.473
 107129371.814 8  83477518.004 8  20386021.758                    20386028.535
 11  8 12  2  3 30.0000000  0  8G25G30G29G10G04G02G12G05
 115667131.381 8  90130312.000 7  22010723.156                    22010733.121
 112831063.935 7  87920198.29945  21470995.836                    21471003.965
 125784804.973 6  98014211.292 6  23936059.258                    23936067.898
 115360414.584 7  89891353.92145  21952341.086                    21952348.207
 125248971.977 7  97596719.52243  23834067.172                    23834075.746
 110472249.810 8  86082432.12946  21022164.031                    21022169.008
 109307153.123 8  85174569.402 7  20800478.906                    20800486.172
 107103185.345 8  83457113.011 8  20381038.492                    20381045.742
 11  8 12  2  4  0.0000000  0  8G25G30G29G10G04G02G12G05
 115618140.768 8  90092137.516 7  22001400.461                    22001410.156
 112809675.816 7  87903532.23845  21466925.969                    21466933.855
 125702286.042 6  97949910.934 6  23920356.125                    23920365.551
 115437640.767 7  89951530.17245  21967036.289                    21967043.844
 125330574.321 6  97660305.75943  23849595.391                    23849604.094
 110501545.447 8  86105259.89046  21027738.828                    21027743.688
 109324531.665 8  85188111.106 7  20803785.867                    20803792.961
 107077570.623 8  83437153.531 8  20376164.305                    20376171.266
 11  8 12  2  4 30.0000000  0  8G25G30G29G10G04G02G12G05
 115569668.883 8  90054367.226 7  21992176.750                    21992186.148
 112788896.950 8  87887340.91545  21462971.898                    21462979.449
 125619727.304 6  97885579.538 6  23904645.484                    23904655.324
 115515289.477 7  90012035.65945  21981812.203                    21981819.680
 125412136.555 7  97723860.76943  23865116.063                    23865124.680
 110530981.114 8  86128196.75846  21033340.148                    21033345.348
 109342486.513 8  85202101.879 7  20807203.016                    20807209.613
 107052528.252 8  83417640.024 8  20371398.906                    20371406.195
 11  8 12  2  5  0.0000000  0  8G25G30G29G10G04G02G12G05
 115521717.783 8  90017002.756 7  21983051.555                    21983061.430
 112768728.221 7  87871625.01945  21459134.117                    21459141.117
 125537129.485 6  97821217.670 6  23888927.992                    23888937.270
 115593358.392 7  90072868.58645  21996668.125                    21996675.992
 125493658.331 6  97787384.24143  23880629.727                    23880637.961
 110560556.220 8  86151242.28446  21038968.258                    21038973.184
 109361017.487 8  85216541.592 7  20810728.828                    20810735.969
 107028058.973 8  83398573.092 8  20366742.945                    20366749.691
 11  8 12  2  5 30.0000000  0  8G25G30G29G10G04G02G12G05
 115474288.991 8  89980045.287 7  21974026.477                    21974036.637
 112749170.054 8  87856384.89545  21455412.211                    21455419.270
 125454493.711 6  97756826.244 6  23873202.352                    23873212.047
 115671844.976 7  90134026.95745  22011603.500                    22011610.938
 125575138.922 6  97850875.63443  23896134.789                    23896143.633
 110590270.000 8  86174395.87546  21044621.922                    21044627.375
 109380123.445 8  85231429.332 7  20814365.289                    20814371.922
 107004163.356 8  83379953.169 8  20362195.008                    20362202.613
 11  8 12  2  6  0.0000000  0  8G25G30G29G10G04G02G12G05
 115427383.879 8  89943495.867 7  21965100.883                    21965110.547
 112730222.599 8  87841620.65545  21451806.750                    21451814.180
 125371820.880 7  97692405.929 6  23857470.820                    23857479.797
 115750746.169 7  90195508.41345  22026618.500                    22026626.109
 125656577.449 6  97914334.22743  23911631.984                    23911640.492
 110620121.303 8  86197656.61646  21050302.672                    21050307.750
 109399803.748 8  85246764.633 7  20818110.063                    20818117.109
 106980841.717 8  83361780.487 8  20357757.289                    20357764.484
 11  8 12  2  6 30.0000000  0  8G25G30G29G10G04G02G12G05
 115381004.138 8  89907355.823 7  21956275.039                    21956284.527
 112711886.492 8  87827332.79345  21448317.313                    21448325.020
 125289112.146 7  97627957.613 6  23841731.820                    23841740.434
 115830059.102 7  90257310.70545  22041710.969                    22041718.449
 125737973.607 6  97977759.78943  23927121.625                    23927129.738
 110650109.471 8  86221024.01246  21056009.445                    21056014.602
 109420057.607 8  85262546.855 7  20821963.820                    20821971.223
 106958094.249 8  83344055.224 8  20353428.102                    20353435.535
 11  8 12  2  7  0.0000000  0  8G25G30G29G10G04G02G12G05
 115335151.600 8  89871626.567 7  21947549.078                    21947558.773
 112694162.265 8  87813521.71446  21444944.672                    21444952.383
 125206368.513 7  97563482.085 6  23825986.500                    23825994.664
 115909781.188 7  90319431.81145  22056881.242                    22056889.129
 125819326.871 6  98041151.94843  23942601.984                    23942610.516
 110680234.018 8  86244497.66546  21061742.016                    21061746.930
 109440884.436 8  85278775.550 7  20825927.070                    20825934.387
 106935921.840 8  83326778.052 8  20349209.258                    20349215.754
 11  8 12  2  7 30.0000000  0  8G25G30G29G10G04G02G12G05
 115289827.801 8  89836309.315 7  21938924.031                    21938934.547
 112677050.393 8  87800187.80046  21441688.094                    21441696.141
 125123590.670 6  97498979.904 6  23810233.930                    23810242.879
 115989909.415 7  90381869.40745  22072129.641                    22072136.629
 125900636.768 7  98104510.27143  23958074.992                    23958083.309
 110710494.008 8  86268076.87746  21067500.516                    21067505.699
 109462283.205 8  85295449.901 7  20829999.391                    20830006.074
 106914324.682 8  83309949.130 8  20345099.328                    20345106.469
 11  8 12  2  8  0.0000000  0  8G25G30G29G10G04G02G12G05
 115245034.193 8  89801405.214 7  21930400.570                    21930410.465
 112660551.084 8  87787331.20945  21438548.594                    21438556.152
 125040779.815 7  97434452.006 6  23794475.750                    23794484.086
 116070441.462 7  90444621.63645  22087454.109                    22087461.547
 125981902.452 6  98167834.17543  23973539.086                    23973547.637
 110740888.397 8  86291760.80246  21073284.289                    21073289.387
 109484253.425 8  85312569.551 7  20834180.133                    20834187.430
 106893302.984 8  83293568.621 8  20341099.211                    20341105.965
 11  8 12  2  8 30.0000000  0  8G25G30G29G10G04G02G12G05
 115200772.857 8  89766915.856 7  21921977.617                    21921987.168
 112644665.224 8  87774952.62345  21435525.391                    21435533.242
 124957937.549 7  97369899.607 6  23778711.547                    23778719.313
 116151374.958 7  90507686.71345  22102855.305                    22102862.633
 126063124.193 6  98231123.83743  23988994.570                    23989003.469
 110771417.065 8  86315549.36846  21079093.469                    21079098.449
 109506794.252 8  85330133.815 7  20838469.625                    20838476.781
 106872857.757 8  83277637.315 8  20337208.672                    20337215.359
 11  8 12  2  9  0.0000000  0  8G25G30G29G10G04G02G12G05
 115157045.481 8  89732842.572 7  21913657.000                    21913666.887
 112629393.261 8  87763052.39646  21432619.367                    21432626.980
 124875065.114 7  97305323.713 6  23762941.039                    23762949.238
 116232707.046 7  90571062.35745  22118332.570                    22118339.422
 126144301.549 6  98294378.88043  24004443.078                    24004451.824
 110802079.390 8  86339442.08346  21084928.813                    21084933.750
 109529905.004 8  85348142.195 7  20842867.164                    20842874.000
 106852989.460 8  83262155.544 8  20333427.445                    20333434.262
 11  8 12  2  9 30.0000000  0  8G25G30G29G10G04G02G12G05
 115113852.777 8  89699185.917 7  21905437.781                    21905447.230
 112614734.686 8  87751630.13646  21429830.242                    21429837.617
 124792162.840 6  97240724.571 5  23747164.891                    23747172.875
 116314434.299 7  90634745.93545  22133884.398                    22133892.016
 126225433.067 6  98357598.26143  24019881.641                    24019890.590
 110832873.881 8  86363437.78846  21090788.219                    21090793.543
 109553584.042 8  85366593.387 7  20847373.430                    20847380.246
 106833697.212 8  83247122.656 8  20329756.406                    20329763.262
 11  8 12  2 10  0.0000000  0  8G25G30G29G10G04G02G12G05
 115071196.082 8  89665946.938 7  21897320.250                    21897330.039
 112600689.693 7  87740686.00145  21427157.289                    21427164.957
 124709231.628 6  97176102.857 6  23731383.273                    23731391.004
 116396553.827 7  90698735.17344  22149511.555                    22149518.961
 126306518.193 6  98420781.49243  24035311.930                    24035320.383
 110863799.563 8  86387535.73046  21096673.609                    21096678.930
 109577830.419 8  85385486.666 7  20851987.461                    20851994.461
 106814981.505 8  83232539.025 8  20326194.844                    20326202.027
 11  8 12  2 10 30.0000000  0  8G25G30G29G10G04G02G12G05
 115029076.746 8  89633126.681 7  21889305.102                    21889314.652
 112587258.354 8  87730220.03045  21424601.250                    21424608.680
 124626272.336 6  97111459.291 5  23715596.680                    23715604.977
 116479062.688 7  90763027.79445  22165212.250                    22165219.879
 126387556.378 6  98483928.11643  24050733.266                    24050740.934
 110894855.504 8  86411735.17546  21102582.859                    21102588.570
 109602643.042 8  85404821.172 7  20856708.586                    20856716.098
 106796842.385 8  83218404.674 8  20322742.805                    20322749.934
 11  8 12  2 11  0.0000000  0  8G25G30G29G10G04G02G12G05
 114987496.301 8  89600726.355 7  21881392.555                    21881402.785
 112574441.050 8  87720232.53645  21422162.078                    21422170.137
 124543286.474 7  97046795.033 6  23699805.523                    23699813.199
 116561957.996 7  90827621.55044  22180986.492                    22180994.031
 126468547.091 6  98547037.74543  24066144.555                    24066153.090
 110926041.075 8  86436035.62646  21108517.617                    21108522.840
 109628021.202 8  85424596.355 7  20861538.352                    20861545.199
 106779280.241 8  83204719.910 8  20319401.148                    20319408.102
 11  8 12  2 11 30.0000000  0  8G25G30G29G10G04G02G12G05
 114946456.409 8  89568747.226 7  21873582.727                    21873593.160
 112562238.080 8  87710723.73246  21419840.258                    21419847.684
 124460275.026 7  96982110.836 6  23684008.773                    23684017.504
 116645237.173 7  90892514.41445  22196834.039                    22196841.961
 126549490.117 6  98610110.22143  24081548.031                    24081556.254
 110957355.898 8  86460436.79146  21114476.539                    21114481.793
 109653963.701 8  85444811.290 7  20866474.859                    20866481.676
 106762295.378 8  83191484.973 8  20316168.820                    20316176.262
 11  8 12  2 12  0.0000000  0  8G25G30G29G10G04G02G12G05
 114905958.242 8  89537190.220 7  21865876.414                    21865886.203
 112550649.475 8  87701693.64345  21417634.844                    21417642.797
 124377239.012 7  96917407.514 6  23668207.664                    23668216.266
 116728897.346 7  90957704.15345  22212754.180                    22212762.133
 126630384.817 6  98673145.07243  24096941.016                    24096950.164
 110988798.796 8  86484937.75746  21120460.023                    21120465.070
 109680469.693 8  85465465.303 7  20871518.992                    20871525.809
 106745887.939 8  83178699.985 8  20313046.680                    20313053.934
 11  8 12  2 12 30.0000000  0  8G25G30G29G10G04G02G12G05
 114866003.298 8  89506056.490 7  21858273.328                    21858282.730
 112539675.393 8  87693142.40946  21415546.547                    21415554.484
 124294179.881 7  96852686.194 6  23652401.859                    23652410.250
 116812935.794 7  91023188.65245  22228745.945                    22228753.648
 126711230.769 6  98736141.91943  24112326.102                    24112335.137
 111020369.418 8  86509538.24546  21126467.477                    21126472.336
 109707538.359 8  85486557.780 7  20876669.813                    20876676.703
 106730057.868 8  83166364.890 8  20310034.477                    20310041.813
 11  8 12  2 13  0.0000000  0  8G25G30G29G10G04G02G12G05
 114826592.828 8  89475347.042 7  21850773.711                    21850783.629
 112529315.852 8  87685070.02846  21413575.297                    21413582.762
 124211098.399 7  96787947.408 6  23636591.844                    23636599.820
 116897349.530 7  91088965.59745  22244809.414                    22244817.504
 126792027.595 6  98799100.48143  24127701.141                    24127709.969
 111052066.817 7  86534237.53546  21132498.945                    21132504.508
 109735168.116 7  85508087.477 7  20881927.656                    20881934.688
 106714805.206 8  83154479.720 8  20307131.914                    20307138.922
 11  8 12  2 13 30.0000000  0  8G25G30G29G10G04G02G12G05
 114787728.254 8  89445062.966 7  21843378.133                    21843388.004
 112519571.050 8  87677476.66046  21411720.813                    21411728.422
 124127995.707 7  96723192.118 6  23620777.953                    23620787.160
 116982135.750 7  91155032.77645  22260943.531                    22260951.648
 126872774.804 6  98862020.40443  24143065.570                    24143075.398
 111083890.440 8  86559035.18046  21138555.094                    21138560.352
 109763358.162 8  85530053.743 7  20887292.070                    20887298.762
 106700130.469 8  83143044.878 8  20304339.195                    20304346.375
 11  8 12  2 14  0.0000000  0  8G25G30G29G10G04G02G12G05
 114749410.638 8  89415205.096 7  21836086.234                    21836096.195
 112510440.727 8  87670362.11646  21409983.602                    21409990.867
 124044872.925 7  96658421.199 6  23604959.828                    23604969.047
 117067291.303 7  91221387.76444  22277148.305                    22277156.176
 126953471.821 6  98924901.17443  24158422.016                    24158431.488
 111115839.138 8  86583930.27546  21144634.711                    21144640.348
 109792106.980 8  85552455.422 7  20892762.789                    20892769.977
 106686033.019 8  83132059.869 8  20301656.461                    20301663.652
 11  8 12  2 14 30.0000000  0  8G25G30G29G10G04G02G12G05
 114711641.644 8  89385774.724 7  21828899.227                    21828908.820
 112501925.329 8  87663726.74946  21408363.109                    21408370.789
 123961731.703 7  96593635.910 6  23589138.633                    23589146.973
 117152813.827 7  91288028.68444  22293423.258                    22293430.672
 127034118.360 6  98987742.63543  24173769.336                    24173777.754
 111147912.905 8  86608922.83846  21150738.094                    21150743.629
 109821413.699 8  85575291.830 7  20898339.578                    20898346.406
 106672513.513 8  83121525.210 8  20299083.680                    20299090.895
 11  8 12  2 15  0.0000000  0  8G25G30G29G10G04G02G12G05
 114674422.323 8  89356772.666 7  21821816.430                    21821826.223
 112494024.603 8  87657570.33145  21406859.414                    21406867.125
 123878572.905 7  96528836.920 6  23573314.469                    23573322.973
 117238700.453 7  91354953.34144  22309766.508                    22309773.918
 127114714.001 6  99050544.41443  24189105.703                    24189114.727
 111180110.636 8  86634011.99046  21156865.078                    21156870.063
 109851277.263 8  85598562.133 7  20904022.469                    20904029.238
 106659571.862 8  83111440.825 8  20296621.148                    20296628.109
 11  8 12  2 15 30.0000000  0  8G25G30G29G10G04G02G12G05
 114637753.998 8  89328199.969 7  21814839.172                    21814848.391
 112486738.526 8  87651892.87845  21405472.805                    21405480.699
 123795397.725 7  96464025.146 6  23557486.641                    23557494.844
 117324948.069 7  91422159.25745  22326179.125                    22326186.738
 127195258.155 6  99113306.04843  24204432.828                    24204442.211
 111212431.835 8  86659197.35246  21163015.648                    21163021.176
 109881696.389 8  85622265.332 7  20909811.234                    20909817.930
 106647207.694 8  83101806.428 8  20294268.297                    20294275.578
 11  8 12  2 16  0.0000000  0  8G25G30G29G10G04G02G12G05
 114601637.822 8  89300057.515 7  21807966.422                    21807975.637
 112480067.025 8  87646694.30445  21404203.242                    21404210.996
 123712207.233 7  96399201.446 6  23541656.469                    23541664.332
 117411553.880 7  91489644.29044  22342659.328                    22342666.984
 127275750.519 6  99176027.35543  24219750.703                    24219759.383
 111244875.412 8  86684478.07546  21169189.328                    21169194.648
 109912669.669 8  85646400.344 7  20915705.078                    20915711.949
 106635420.984 8  83092622.001 8  20292025.469                    20292032.676
 11  8 12  2 16 30.0000000  0  8G25G30G29G10G04G02G12G05
 114566074.825 8  89272346.090 7  21801198.766                    21801208.148
 112474009.790 8  87641974.37245  21403051.016                    21403058.867
 123629002.686 7  96334366.810 6  23525821.750                    23525831.277
 117498514.690 7  91557405.94644  22359207.602                    22359215.930
 127356190.664 6  99238707.97043  24235057.883                    24235066.719
 111277440.638 8  86709853.59146  21175386.281                    21175391.492
 109944195.777 8  85670966.139 7  20921704.477                    20921711.145
 106624211.781 8  83083887.572 8  20289892.359                    20289899.430
 11  8 12  2 17  0.0000000  0  8G25G30G29G10G04G02G12G05
 114531066.256 8  89245066.693 7  21794536.867                    21794546.391
 112468566.677 8  87637732.97646  21402015.234                    21402022.891
 123545785.229 7  96269522.098 6  23509986.594                    23509995.508
 117585828.102 7  91625442.36445  22375822.500                    22375830.797
 127436578.306 6  99301347.67943  24250354.828                    24250363.828
 111310127.157 8  86735323.60646  21181606.586                    21181611.535
 109976273.935 8  85695962.106 7  20927808.539                    20927815.137
 106613579.967 8  83075603.060 8  20287869.250                    20287876.434
 11  8 12  2 17 30.0000000  0  8G25G30G29G10G04G02G12G05
 114496613.836 8  89218220.657 7  21787980.836                    21787990.504
 112463738.186 8  87633970.50346  21401095.859                    21401103.863
 123462556.569 6  96204668.646 6  23494148.422                    23494157.535
 117673491.465 7  91693751.46145  22392504.234                    22392512.402
 127516913.045 6  99363946.15343  24265642.398                    24265651.473
 111342934.862 8  86760888.06546  21187849.375                    21187854.199
 110008902.625 8  85721387.061 7  20934017.641                    20934024.531
 106603525.842 8  83067768.703 8  20285956.063                    20285962.613
 11  8 12  2 18  0.0000000  0  8G25G30G29G10G04G02G12G05
 114462717.956 8  89191808.298 7  21781530.828                    21781540.578
 112459523.300 8  87630686.16745  21400294.047                    21400301.773
 123379317.427 6  96139807.061 6  23478308.172                    23478317.172
 117761501.561 7  91762330.73744  22409252.266                    22409260.094
 127597194.510 6  99426503.13543  24280918.695                    24280928.438
 111375862.230 7  86786545.75546  21194115.594                    21194120.488
 110042080.172 8  85747239.688 7  20940331.047                    20940337.758
 106594048.770 8  83060384.006 8  20284152.375                    20284159.520
 11  8 12  2 18 30.0000000  0  9G25G30G29G10G26G04G02G12G05
 114429380.028 8  89165830.707 7  21775186.656                    21775196.387
 112455922.278 8  87627880.17246  21399609.133                    21399616.316
 123296069.352 6  96074938.496 6  23462467.328                    23462476.027
 117849855.508 7  91831177.94544  22426065.531                    22426072.785
 130498105.27616 101686906.53952  24832971.977                    24832981.535
 127677422.319 6  99489018.24343  24296185.625                    24296194.723
 111408908.922 8  86812296.44546  21200404.258                    21200409.043
 110075805.454 8  85773519.138 7  20946748.563                    20946755.547
 106585148.816 8  83053448.998 8  20282458.727                    20282466.242
 11  8 12  2 19  0.0000000  0  9G25G30G29G10G26G04G02G12G05
 114396600.800 8  89140288.467 7  21768948.438                    21768958.738
 112452934.414 8  87625551.96846  21399040.672                    21399048.352
 123212813.191 6  96010063.634 6  23446623.594                    23446632.230
 117938550.200 7  91900290.67844  22442943.406                    22442951.020
 130404839.206 6 101614231.85942  24815223.070                    24815233.906
 127757595.534 6  99551490.91743  24311443.344                    24311451.145
 111442074.082 8  86838139.43246  21206715.391                    21206720.207
 110110076.793 8  85800224.075 7  20953270.313                    20953277.523
 106576825.153 8  83046963.050 8  20280874.906                    20280882.578
 11  8 12  2 19 30.0000000  0  9G25G30G29G10G26G04G02G12G05
 114364380.981 8  89115182.132 7  21762817.758                    21762827.582
 112450559.143 8  87623701.11045  21398588.102                    21398596.070
 123129549.872 7  95945183.190 6  23430779.727                    23430787.512
 118027582.557 7  91969666.50844  22459885.523                    22459893.465
 130311442.931 5 101541455.81942  24797449.984                    24797461.914
 127837713.832 6  99613920.75143  24326688.109                    24326696.762
 111475356.470 8  86864073.78046  21213048.523                    21213053.883
 110144892.544 8  85827353.242 7  20959895.563                    20959902.992
 106569077.398 8  83040925.859 8  20279400.680                    20279407.680
 11  8 12  2 20  0.0000000  0  9G25G30G29G10G26G04G02G12G05
 114332722.796 8  89090513.440 7  21756793.266                    21756803.125
 112448797.248 7  87622328.20146  21398253.133                    21398260.949
 123046281.578 7  95880298.882 6  23414934.422                    23414942.145
 118116950.638 7  92039303.96944  22476891.609                    22476899.625
 130217919.877 5 101468580.87843  24779653.133                    24779664.980
 127917777.894 6  99676308.32243  24341924.234                    24341932.145
 111508756.942 8  86890100.13046  21219404.133                    21219409.895
 110180252.612 8  85854906.550 7  20966624.367                    20966631.324
 106561906.728 8  83035338.359 8  20278036.109                    20278042.758
 11  8 12  2 20 30.0000000  0  9G25G30G29G10G26G04G02G12G05
 114301626.734 8  89066282.756 7  21750875.898                    21750886.000
 112447647.946 8  87621432.64645  21398033.984                    21398041.699
 122963009.364 7  95815411.486 6  23399088.133                    23399095.773
 118206651.030 7  92109200.36744  22493961.297                    22493968.949
 130124272.915 5 101395609.46643  24761833.531                    24761844.457
 127997786.966 6  99738653.03942  24357148.883                    24357158.730
 111542274.310 8  86916217.57446  21225782.430                    21225787.578
 110216154.669 8  85882882.183 7  20973456.227                    20973463.211
 106555311.910 8  83030199.581 8  20276781.117                    20276787.980
 11  8 12  2 21  0.0000000  0  9G25G30G29G10G26G04G02G12G05
 114271093.632 8  89042490.742 7  21745065.898                    21745075.723
 112447110.661 7  87621013.97146  21397932.219                    21397939.578
 122879734.667 7  95750522.166 6  23383241.336                    23383249.105
 118296680.765 7  92179353.39644  22511093.531                    22511100.840
 130030504.680 6 101322543.47043  24743988.688                    24744001.430
 128077740.428 6  99800954.43142  24372363.789                    24372372.559
 111575907.676 7  86942425.39846  21232183.000                    21232187.844
 110252597.398 8  85911279.112 7  20980390.898                    20980398.195
 106549292.774 8  83025509.369 8  20275635.555                    20275642.605
 11  8 12  2 21 30.0000000  0  9G25G30G29G10G26G04G02G12G05
 114241124.629 8  89019138.283 7  21739362.250                    21739372.422
 112447185.231 7  87621072.07045  21397946.125                    21397954.316
 122796458.539 7  95685631.720 6  23367394.508                    23367402.813
 118387037.176 7  92249760.96844  22528288.000                    22528295.113
 129936618.322 6 101249385.44643  24726122.398                    24726134.438
 128157638.103 6  99863212.34542  24387568.484                    24387576.684
 111609656.741 8  86968723.38046  21238605.289                    21238610.484
 110289579.405 8  85940096.266 7  20987428.945                    20987435.730
 106543849.098 8  83021267.574 8  20274599.586                    20274606.543
 11  8 12  2 22  0.0000000  0  9G25G30G29G10G26G04G02G12G05
 114211720.649 8  88996226.113 7  21733767.664                    21733777.387
 112447871.202 7  87621606.59346  21398076.969                    21398084.148
 122713182.303 7  95620741.232 6  23351546.453                    23351554.844
 118477717.442 7  92320420.90444  22545543.797                    22545550.711
 129842616.638 6 101176137.55343  24708234.930                    24708246.148
 128237479.931 6  99925426.76442  24402760.984                    24402770.574
 111643520.772 7  86995110.95146  21245049.211                    21245054.020
 110327098.992 7  85969332.305 7  20994568.289                    20994575.516
 106538980.641 8  83017473.998 8  20273673.094                    20273680.164
 11  8 12  2 22 30.0000000  0  9G25G30G29G10G26G04G02G12G05
 114182882.727 8  88973755.017 7  21728279.852                    21728289.523
 112449168.232 7  87622617.26145  21398323.742                    21398331.629
 122629907.517 7  95555851.838 6  23335700.695                    23335707.594
 118568718.521 7  92391330.81844  22562861.031                    22562868.176
 129748502.614 6 101102802.13143  24690325.133                    24690336.207
 128317265.478 6  99987597.28642  24417944.703                    24417952.566
 111677499.365 8  87021587.77346  21251514.969                    21251520.219
 110365154.849 8  85998986.214 7  21001810.305                    21001817.141
 106534686.975 8  83014128.311 8  20272856.313                    20272863.086
 11  8 12  2 23  0.0000000  0  9G25G30G29G10G26G04G02G12G05
 114154611.482 8  88951725.480 7  21722899.820                    21722909.328
 112451075.522 8  87624103.46446  21398686.883                    21398694.660
 122546635.230 7  95490964.394 6  23319854.313                    23319862.758
 118660037.255 7  92462488.27044  22580238.031                    22580245.461
 129654278.886 6 101029381.15743  24672394.961                    24672406.066
 128396994.332 6 100049723.65243  24433115.961                    24433124.035
 111711591.509 7  87048153.08646  21258002.688                    21258007.328
 110403745.185 8  86029056.597 7  21009153.602                    21009160.563
 106530967.260 8  83011229.869 8  20272148.336                    20272154.887
 11  8 12  2 23 30.0000000  0  9G25G30G29G10G26G04G02G12G05
 114126907.713 8  88930138.148 7  21717627.922                    21717637.465
 112453592.589 8  87626064.80945  21399165.445                    21399173.242
 122463366.846 7  95426080.015 6  23304008.859                    23304017.066
 118751671.039 7  92533891.20044  22597675.594                    22597682.984
 129559948.550 6 100955877.16743  24654444.797                    24654455.770
 128476666.040 6 100111805.50443  24448277.289                    24448284.867
 111745796.724 7  87074806.51046  21264511.539                    21264516.352
 110442868.424 8  86059542.222 7  21016598.531                    21016605.332
 106527821.280 8  83008778.484 8  20271549.594                    20271556.578
 11  8 12  2 24  0.0000000  0  9G25G30G29G10G26G04G02G12G05
 114099772.661 8  88908993.968 7  21712464.258                    21712474.121
 112456719.193 8  87628501.11245  21399760.656                    21399768.281
 122380103.647 6  95361199.660 6  23288164.195                    23288172.512
 118843617.149 6  92605537.51144  22615171.547                    22615179.887
 129465514.743 6 100882292.52143  24636474.469                    24636485.773
 128556280.835 7 100173842.99143  24463427.328                    24463435.539
 111780114.565 8  87101547.68146  21271042.555                    21271047.148
 110482522.958 8  86090441.865 7  21024144.531                    21024151.504
 106525248.967 8  83006774.114 8  20271060.102                    20271067.164
 11  8 12  2 24 30.0000000  0  9G25G30G29G10G26G04G02G12G05
 114073206.768 8  88888293.281 7  21707409.156                    21707418.727
 112460454.471 8  87631411.72045  21400471.000                    21400478.992
 122296847.074 6  95296324.476 6  23272321.125                    23272328.926
 118935872.387 6  92677424.67944  22632727.992                    22632735.766
 129370980.279 6 100808629.49743  24618484.656                    24618495.789
 128635837.943 6 100235835.53743  24478567.273                    24478574.215
 111814544.417 8  87128376.13146  21277594.148                    21277598.949
 110522707.296 8  86121754.322 7  21031791.336                    21031798.262
 106523249.304 8  83005215.968 8  20270679.641                    20270686.520
 11  8 12  2 25  0.0000000  0  9G25G30G29G10G26G04G02G12G05
 114047211.262 8  88868037.061 7  21702462.234                    21702472.109
 112464798.252 8  87634796.49045  21401297.688                    21401305.652
 122213598.994 7  95231455.876 6  23256479.547                    23256487.160
 119028434.193 6  92749550.73844  22650341.414                    22650349.484
 129276348.337 6 100734890.55143  24600476.977                    24600487.863
 128715337.577 6 100297783.36143  24493694.695                    24493703.168
 111849086.111 8  87155291.73246  21284167.281                    21284172.273
 110563419.878 8  86153478.386 7  21039538.914                    21039545.535
 106521822.501 8  83004104.194 8  20270408.086                    20270414.879
 11  8 12  2 25 30.0000000  0  9G25G30G29G10G26G04G02G12G05
 114021786.853 8  88848225.827 7  21697624.000                    21697633.988
 112469749.944 8  87638654.95646  21402240.164                    21402247.891
 122130360.585 7  95166594.807 6  23240639.969                    23240647.934
 119121299.682 6  92821913.43044  22668013.313                    22668021.684
 129181621.713 6 100661077.70143  24582451.078                    24582460.734
 128794779.553 6 100359686.15243  24508812.641                    24508820.578
 111883739.203 8  87182294.14246  21290761.344                    21290766.332
 110604659.266 8  86185612.961 7  21047386.398                    21047393.164
 106520967.827 8  83003438.240 8  20270245.203                    20270251.984
 11  8 12  2 26  0.0000000  0  9G25G30G29G10G26G04G02G12G05
 113996933.786 8  88828859.807 7  21692894.445                    21692904.473
 112475308.226 8  87642986.09146  21403298.063                    21403305.621
 122047132.751 7  95101741.997 6  23224801.891                    23224810.367
 119214465.543 6  92894510.18344  22685742.484                    22685750.293
 129086803.335 6 100587193.40142  24564407.406                    24564417.297
 128874162.861 6 100421543.30743  24523917.953                    24523926.422
 111918502.482 8  87209382.40246  21297376.477                    21297381.422
 110646423.458 8  86218156.476 7  21055333.500                    21055340.813
 106520684.194 8  83003217.256 8  20270191.203                    20270198.035
 11  8 12  2 26 30.0000000  0  9G25G30G29G10G26G04G02G12G05
 113972653.004 8  88809939.703 7  21688274.242                    21688284.145
 112481472.762 8  87647789.61445  21404471.188                    21404478.434
 121963917.084 6  95036898.649 6  23208966.453                    23208974.059
 119307929.036 6  92967338.87344  22703528.094                    22703536.254
 128991896.084 6 100513239.84542  24546346.969                    24546356.953
 128953487.668 6 100483354.83143  24539012.984                    24539022.691
 111953375.681 8  87236556.30546  21304012.867                    21304018.082
 110688710.406 8  86251107.337 7  21063380.750                    21063387.656
 106520971.390 8  83003441.067 8  20270245.859                    20270252.820
 11  8 12  2 27  0.0000000  0  9G25G30G29G10G26G04G02G12G05
 113948945.213 8  88791466.103 7  21683762.586                    21683772.609
 112488242.786 8  87653064.94245  21405759.195                    21405766.680
 121880715.210 7  94972066.050 6  23193133.500                    23193141.164
 119401687.292 6  93040397.22944  22721369.195                    22721377.691
 128896902.997 6 100439219.41942  24528270.711                    24528280.898
 129032753.756 6 100545120.59043  24554097.328                    24554106.375
 111988358.045 8  87263815.28446  21310669.234                    21310674.613
 110731518.997 8  86284464.661 7  21071527.148                    21071533.680
 106521828.658 8  83004109.098 8  20270409.211                    20270416.148
 11  8 12  2 27 30.0000000  0  9G25G30G29G10G26G04G02G12G05
 113925810.975 8  88773439.406 7  21679360.438                    21679370.160
 112495617.518 8  87658811.47345  21407162.359                    21407170.578
 121797528.282 7  94907245.097 6  23177303.898                    23177311.762
 119495737.220 7  93113682.86244  22739266.297                    22739274.234
 128801827.137 6 100365134.52842  24510178.125                    24510188.582
 129111960.813 6 100606840.36743  24569169.633                    24569178.629
 112023449.192 7  87291159.03246  21317347.203                    21317352.270
 110774846.787 8  86318226.556 7  21079771.688                    21079779.352
 106523255.252 8  83005220.757 8  20270680.500                    20270687.648
 11  8 12  2 28  0.0000000  0  9G25G30G29G10G26G04G02G12G05
 113903251.331 8  88755860.459 7  21675067.570                    21675076.898
 112503596.549 8  87665028.89645  21408681.055                    21408688.535
 121714358.061 7  94842437.154 6  23161476.930                    23161484.781
 119590076.306 7  93187193.81844  22757219.188                    22757227.027
 128706671.821 6 100290987.70642  24492070.555                    24492080.457
 129191108.780 6 100668514.07142  24584231.078                    24584240.617
 112058648.872 7  87318587.34946  21324045.586                    21324050.586
 110818692.352 8  86352391.916 7  21088115.914                    21088122.543
 106525250.948 8  83006775.868 8  20271060.477                    20271066.949
 11  8 12  2 28 30.0000000  0  9G25G30G29G10G26G04G02G12G05
 113881266.495 8  88738729.401 7  21670883.609                    21670893.516
 112512178.796 7  87671716.35845  21410314.258                    21410321.754
 121631205.583 6  94777643.038 6  23145653.352                    23145661.445
 119684701.571 7  93260927.79044  22775225.531                    22775233.148
 128611440.009 6 100216781.23942  24473947.469                    24473958.320
 129270197.278 6 100730141.48742  24599280.891                    24599290.453
 112093956.309 7  87346099.64146  21330763.992                    21330769.348
 110863053.909 8  86386959.341 7  21096557.055                    21096564.168
 106527814.835 8  83008773.726 8  20271548.328                    20271554.699
 11  8 12  2 29  0.0000000  0  9G25G30G29G10G26G04G02G12G05
 113859857.172 8  88722046.798 7  21666810.211                    21666819.336
 112521363.396 8  87678873.20545  21412062.031                    21412069.867
 121548072.498 6  94712864.022 6  23129833.289                    23129842.012
 119779609.617 7  93334882.10244  22793285.594                    22793293.074
 128516134.561 6 100142517.44043  24455812.109                    24455822.457
 129349226.211 6 100791722.45042  24614320.156                    24614328.691
 112129371.494 7  87373695.87346  21337503.508                    21337508.680
 110907929.559 8  86421927.368 7  21105096.680                    21105103.746
 106530946.362 8  83011213.909 8  20272144.094                    20272150.758
 11  8 12  2 29 30.0000000  0  9G25G30G29G10G26G04G02G12G05
 113839023.906 8  88705813.077 7  21662845.547                    21662854.902
 112531149.561 8  87686498.79746  21413924.219                    21413931.906
 121464960.289 7  94648101.304 6  23114018.094                    23114026.195
 119874797.857 7  93409054.74244  22811399.383                    22811407.293
 128420758.548 6 100068198.64843  24437662.109                    24437673.488
 129428195.274 6 100853256.84842  24629347.195                    24629355.625
 112164893.286 8  87401375.19946  21344262.563                    21344268.297
 110953317.596 8  86457294.656 7  21113734.000                    21113740.879
 106534644.661 8  83014095.732 8  20272847.961                    20272854.797
 11  8 12  2 30  0.0000000  0  9G25G30G29G10G26G04G02G12G05
 113818767.288 8  88690028.694 7  21658990.805                    21659000.875
 112541536.456 8  87694592.50045  21415901.047                    21415908.574
 121381870.530 6  94583356.024 6  23098206.945                    23098214.301
 119970263.711 7  93483443.69144  22829566.172                    22829573.863
 128325315.118 6  99993827.32343  24419500.734                    24419510.344
 129507104.398 6 100914744.47742  24644363.797                    24644371.992
 112200521.300 8  87429137.27746  21351042.898                    21351048.480
 110999215.916 8  86493059.580 7  21122468.109                    21122474.910
 106538909.031 8  83017418.643 8  20273658.953                    20273666.039
 11  8 12  2 30 30.0000000  0  9G25G30G29G10G26G04G02G12G05
 113799087.599 8  88674693.857 7  21655245.578                    21655255.785
 112552522.867 8  87703153.35745  21417991.578                    21417999.020
 121298804.442 7  94518629.225 6  23082399.484                    23082407.598
 120066003.687 7  93558046.26344  22847785.094                    22847792.375
 128229807.019 7  99919405.58743  24401325.891                    24401336.176
 129585952.997 6 100976185.00642  24659367.039                    24659376.047
 112236254.783 8  87456981.54946  21357843.016                    21357848.102
 111045622.503 8  86529220.543 7  21131298.797                    21131305.766
 106543738.153 8  83021181.619 8  20274577.906                    20274585.250
 11  8 12  2 31  0.0000000  0  9G25G30G29G10G26G04G02G12G05
 113779985.404 8  88659809.029 7  21651611.008                    21651621.078
 112564108.077 8  87712180.80145  21420195.750                    21420203.164
 121215763.697 7  94453922.145 6  23066597.430                    23066605.719
 120162015.292 7  93632860.47944  22866055.047                    22866063.043
 128134237.605 6  99844936.06043  24383139.414                    24383149.598
 129664741.082 6 101037578.31442  24674360.406                    24674368.809
 112272093.541 8  87484907.85546  21364662.656                    21364667.957
 111092536.035 8  86565776.543 7  21140226.086                    21140233.215
 106549131.902 8  83025384.567 8  20275604.695                    20275611.875
 11  8 12  2 31 30.0000000  0  8G25G30G29G10G26G02G12G05
 113761461.824 8  88645375.083 7  21648085.891                    21648095.906
 112576291.658 8  87721674.50345  21422514.578                    21422521.898
 121132750.251 7  94389236.360 6  23050800.984                    23050808.117
 120258295.842 7  93707884.29643  22884376.313                    22884384.070
 128038610.587 7  99770421.66843  24364941.625                    24364952.113
 112308037.731 8  87512916.32646  21371502.484                    21371507.297
 111139954.563 8  86602726.041 7  21149249.688                    21149256.387
 106555089.746 8  83030027.065 8  20276738.172                    20276745.547
 11  8 12  2 32  0.0000000  0  8G25G30G29G10G26G02G12G05
 113743516.705 8  88631391.891 7  21644671.109                    21644680.980
 112589072.036 8  87731633.24845  21424946.602                    21424954.617
 121049765.058 7  94324572.576 6  23035008.766                    23035016.359
 120354842.321 7  93783115.30244  22902748.328                    22902756.480
 127942928.490 7  99695864.31343  24346735.055                    24346744.078
 112344086.428 8  87541006.21546  21378362.281                    21378367.688
 111187876.161 8  86640067.520 7  21158368.688                    21158376.008
 106561610.361 8  83035108.075 8  20277979.195                    20277986.090
 11  8 12  2 32 30.0000000  0  8G25G30G29G10G26G02G12G05
 113726150.397 8  88617859.757 7  21641365.969                    21641375.820
 112602448.221 8  87742056.27746  21427491.844                    21427499.695
 120966809.667 7  94259932.032 6  23019222.961                    23019231.078
 120451651.539 7  93858551.04544  22921171.172                    22921178.809
 127847194.451 7  99621266.52343  24328516.195                    24328526.297
 112380238.795 8  87569176.90546  21385241.961                    21385246.949
 111236298.141 8  86677798.940 7  21167583.430                    21167590.723
 106568692.915 8  83040626.974 8  20279326.945                    20279333.379
 11  8 12  2 33  0.0000000  0  8G25G30G29G10G26G02G12G05
 113709363.251 8  88604778.905 7  21638171.930                    21638181.816
 112616419.152 8  87752942.73245  21430150.734                    21430157.887
 120883885.377 7  94195315.726 6  23003443.547                    23003450.801
 120548720.876 7  93934189.48344  22939642.227                    22939650.938
 127751411.517 7  99546630.63243  24310289.688                    24310299.297
 112416494.495 8  87597428.10246  21392140.883                    21392146.238
 111285218.722 8  86715918.865 7  21176892.875                    21176899.441
 106576336.326 8  83046582.905 8  20280781.406                    20280788.176
 11  8 12  2 33 30.0000000  0  8G25G30G29G10G26G02G12G05
 113693155.644 8  88592149.660 7  21635087.320                    21635097.238
 112630983.621 8  87764291.69446  21432921.797                    21432929.426
 120800993.962 7  94130725.058 6  22987669.883                    22987677.617
 120646047.223 7  94010028.17844  22958163.469                    22958171.102
 127655582.964 7  99471959.18443  24292053.555                    24292063.582
 112452853.358 8  87625759.69446  21399060.289                    21399064.941
 111334636.153 8  86754425.947 7  21186296.633                    21186303.582
 106584539.918 8  83052975.340 8  20282342.367                    20282348.984
 11  8 12  2 34  0.0000000  0  8G25G30G29G10G26G02G12G05
 113677528.200 8  88579972.497 7  21632113.945                    21632123.484
 112646140.967 8  87776102.64746  21435806.148                    21435814.188
 120718137.286 7  94066161.452 6  22971902.078                    22971910.070
 120743627.826 7  94086064.95544  22976732.266                    22976740.063
 127559712.032 6  99397254.68843  24273809.680                    24273819.836
 112489314.952 8  87654171.33946  21405998.594                    21406003.738
 111384548.632 8  86793318.786 7  21195794.484                    21195801.316
 106593302.881 8  83059803.637 8  20284009.914                    20284016.582
 11  8 12  2 34 30.0000000  0  8G25G30G29G10G26G02G12G05
 113662480.908 8  88568247.375 7  21629250.656                    21629259.930
 112661889.742 8  87788374.42446  21438802.906                    21438810.785
 120635316.614 7  94001625.931 7  22956141.633                    22956150.176
 120841459.804 6  94162297.66044  22995349.461                    22995357.152
 127463801.716 6  99322519.54343  24255559.047                    24255568.652
 112525878.742 8  87682662.62046  21412956.406                    21412961.051
 111434953.659 8  86832595.425 7  21205385.953                    21205393.773
 106602623.827 8  83067066.733 8  20285783.195                    20285790.195
 11  8 12  2 35  0.0000000  0  8G25G30G29G10G26G02G12G05
 113648014.065 8  88556974.557 7  21626497.469                    21626507.047
 112678228.748 8  87801106.13645  21441912.211                    21441920.102
 120552533.671 7  93937119.794 6  22940388.602                    22940396.770
 120939540.333 7  94238724.02644  23014013.375                    23014021.051
 127367855.245 6  99247756.21043  24237300.586                    24237310.344
 112562544.356 8  87711233.24746  21419933.680                    21419938.313
 111485849.003 8  86872254.132 7  21215071.359                    21215078.496
 106612502.088 8  83074764.095 8  20287663.234                    20287669.863
 11  8 12  2 35 30.0000000  0  8G25G30G29G10G26G02G12G05
 113634128.119 8  88546154.382 7  21623855.000                    21623864.684
 112695157.116 8  87814297.06845  21445133.586                    21445141.305
 120469789.926 7  93872644.186 6  22924643.211                    22924651.129
 121037866.600 7  94315341.87344  23032724.391                    23032732.184
 127271875.958 6  99172967.24743  24219036.344                    24219046.148
 112599311.407 7  87739882.90646  21426929.930                    21426934.844
 111537233.193 8  86912293.754 7  21224849.469                    21224856.395
 106622936.742 8  83082895.020 8  20289649.094                    20289655.902
 11  8 12  2 36  0.0000000  0  8G25G30G29G10G26G02G12G05
 113620823.392 8  88535787.095 7  21621323.391                    21621332.723
 112712673.571 8  87827946.25445  21448466.734                    21448474.582
 120387086.979 7  93808200.401 7  22908905.141                    22908913.938
 121136436.030 6  94392149.22944  23051481.172                    23051489.207
 127175867.097 6  99098155.22343  24200766.477                    24200776.387
 112636179.814 7  87768611.54646  21433945.492                    21433950.828
 111589104.320 8  86952712.802 7  21234720.109                    21234727.277
 106633927.183 8  83091459.019 8  20291739.992                    20291747.113
 11  8 12  2 36 30.0000000  0  8G25G30G29G10G26G02G12G05
 113608099.898 8  88525872.728 7  21618902.055                    21618911.395
 112730776.865 8  87842052.69545  21451912.000                    21451919.516
 120304426.667 7  93743789.844 6  22893175.750                    22893183.285
 121235245.099 6  94469143.29244  23070283.875                    23070291.945
 127079831.725 6  99023322.60843  24182491.477                    24182501.078
 112673148.649 8  87797418.43946  21440980.820                    21440985.563
 111641459.826 8  86993509.302 7  21244682.750                    21244690.309
 106645471.741 8  83100454.795 8  20293937.242                    20293944.172
 11  8 12  2 37  0.0000000  0  8G25G30G29G10G26G02G12G05
 113595957.720 8  88516411.318 7  21616591.031                    21616600.996
 112749465.650 8  87856615.39345  21455467.984                    21455475.727
 120221810.246 7  93679413.473 7  22877453.539                    22877462.000
 121334291.036 6  94546321.94443  23089131.320                    23089139.965
 126983773.134 6  98948471.85543  24164211.922                    24164221.727
 112710217.720 8  87826303.43546  21448034.805                    21448040.035
 111694297.299 8  87034681.362 7  21254737.742                    21254745.012
 106657569.307 8  83109881.482 8  20296239.203                    20296246.285
 11  8 12  2 37 30.0000000  0  8G25G30G29G10G26G02G12G05
 113584397.169 8  88507403.123 7  21614391.328                    21614400.793
 112768738.673 8  87871633.32646  21459135.781                    21459143.293
 120139239.497 7  93615072.695 6  22861741.352                    22861748.926
 121433571.243 6  94623683.13944  23108024.258                    23108032.266
 126887694.481 6  98873605.47443  24145928.641                    24145938.211
 112747386.458 8  87855266.09946  21455107.773                    21455112.758
 111747615.087 8  87076227.676 7  21264883.555                    21264890.813
 106670218.967 8  83119738.375 8  20298646.156                    20298653.387
 11  8 12  2 38  0.0000000  0  8G25G30G29G10G26G02G12G05
 113573418.311 8  88498848.172 7  21612302.203                    21612311.637
 112788594.680 8  87887105.52945  21462914.102                    21462921.438
 120056715.977 7  93550768.704 6  22846037.305                    22846045.246
 121533082.959 7  94701224.74044  23126960.258                    23126968.602
 126791598.964 6  98798725.92043  24127641.523                    24127651.262
 112784654.944 8  87884306.49146  21462199.641                    21462204.566
 111801410.926 8  87118146.504 7  21275120.711                    21275128.055
 106683419.732 8  83130024.706 8  20301158.305                    20301165.180
 11  8 12  2 38 30.0000000  0  8G25G30G29G10G26G02G12G05
 113563021.118 8  88490746.463 7  21610323.359                    21610333.324
 112809032.157 8  87903030.82845  21466803.398                    21466810.754
 119974241.630 7  93486503.021 7  22830343.133                    22830350.633
 121632823.167 6  94778944.37543  23145940.781                    23145948.258
 126695489.927 6  98723835.82743  24109353.000                    24109362.195
 112822022.622 8  87913424.17046  21469310.578                    21469315.992
 111855682.285 8  87160435.869 7  21285448.031                    21285455.367
 106697170.373 8  83140739.502 8  20303774.953                    20303781.793
 11  8 12  2 39  0.0000000  0  8G25G30G29G10G26G02G12G05
 113553205.510 8  88483097.928 7  21608455.953                    21608465.594
 112830049.584 7  87919408.03946  21470803.078                    21470810.246
 119891817.679 7  93422276.640 7  22814658.539                    22814666.398
 121732788.711 7  94856839.60443  23164963.734                    23164971.352
 126599370.302 6  98648937.51043  24091061.914                    24091071.934
 112859488.662 8  87942618.49246  21476440.234                    21476445.055
 111910427.305 8  87203094.317 7  21295865.945                    21295873.289
 106711469.242 8  83151881.488 8  20306495.906                    20306503.035
 11  8 12  2 39 30.0000000  0  8G25G30G29G10G26G02G12G05
 113543971.903 8  88475902.904 7  21606698.523                    21606708.531
 112851645.993 7  87936236.37645  21474912.977                    21474920.375
 119809445.976 7  93358090.956 7  22798983.602                    22798991.281
 121832977.179 7  94934908.53143  23184028.961                    23184036.746
 126503243.907 6  98574033.91343  24072770.227                    24072779.910
 112897053.240 8  87971889.59246  21483588.227                    21483593.547
 111965643.578 8  87246119.966 7  21306373.234                    21306380.477
 106726315.793 8  83163450.237 8  20309321.578                    20309328.133
 11  8 12  2 40  0.0000000  0  8G25G30G29G10G26G02G12G05
 113535320.256 8  88469161.344 7  21605052.508                    21605062.141
 112873819.841 8  87953514.68645  21479131.984                    21479140.059
 119727128.051 7  93293947.195 7  22783318.602                    22783327.262
 121933385.861 7  95013149.05944  23203136.055                    23203143.613
 126407113.786 6  98499127.42943  24054476.375                    24054486.781
 112934716.052 8  88001237.24146  21490755.266                    21490760.387
 112021328.871 8  87289511.093 7  21316969.711                    21316977.258
 106741708.796 8  83175444.790 8  20312250.313                    20312257.348
 11  8 12  2 40 30.0000000  0  8G25G30G29G10G26G02G12G05
 113527250.473 8  88462873.186 7  21603516.875                    21603526.074
 112896569.770 8  87971241.88745  21483461.336                    21483469.277
 119644865.976 7  93229846.943 7  22767664.984                    22767672.645
 122034011.669 7  95091558.76743  23222284.438                    23222291.629
 126310983.270 6  98424220.63443  24036184.227                    24036193.820
 112972476.565 8  88030661.01946  21497940.891                    21497946.047
 112077481.011 8  87333266.003 7  21327655.117                    21327662.566
 106757646.998 8  83187864.184 8  20315283.281                    20315290.086
 11  8 12  2 41  0.0000000  0  8G25G30G29G10G26G02G12G05
 113519762.672 8  88457038.512 7  21602091.750                    21602101.613
 112919894.290 8  87989416.83045  21487899.898                    21487907.055
 119562661.174 7  93165791.322 6  22752021.617                    22752029.215
 122134851.878 6  95170135.55243  23241473.523                    23241481.234
 126214855.697 6  98349316.12043  24017891.539                    24017901.066
 113010334.631 8  88060160.80846  21505145.109                    21505150.082
 112134097.885 8  87377383.048 7  21338429.242                    21338436.406
 106774129.101 8  83200707.394 8  20318419.695                    20318426.582
 11  8 12  2 41 30.0000000  0  8G25G30G29G10G26G02G12G05
 113512856.780 8  88451657.282 7  21600777.656                    21600787.168
 112943791.980 8  88008038.39046  21492447.625                    21492455.125
 119480515.443 7  93101781.729 7  22736389.898                    22736397.727
 122235903.733 6  95248877.24443  23260703.078                    23260711.012
 126118734.365 6  98274416.49743  23999599.953                    23999610.090
 113048289.648 8  88089736.14346  21512367.844                    21512372.781
 112191177.067 8  87421860.320 7  21349290.898                    21349297.941
 106791154.167 8  83213973.685 8  20321659.383                    20321666.488
 11  8 12  2 42  0.0000000  0  8G25G30G29G10G26G02G12G05
 113506532.449 8  88446729.221 7  21599574.266                    21599584.324
 112968261.038 7  88027105.17745  21497103.781                    21497111.281
 119398430.263 7  93037819.326 7  22720769.586                    22720777.762
 122337164.095 7  95327781.42343  23279972.133                    23279979.305
 126022622.692 6  98199524.40243  23981310.469                    23981320.035
 113086341.344 8  88119386.81346  21519608.672                    21519614.020
 112248716.219 8  87466695.997 7  21360240.258                    21360247.805
 106808720.496 8  83227661.744 8  20325002.352                    20325009.352
 11  8 12  2 42 30.0000000  0  8G25G30G29G10G26G02G12G05
 113500789.844 8  88442254.446 7  21598481.180                    21598490.953
 112993300.222 7  88046616.22045  21501868.406                    21501876.305
 119316407.599 7  92973905.650 6  22705160.875                    22705168.855
 122438630.462 7  95406846.12844  23299280.320                    23299288.461
 125926523.712 6  98124642.19143  23963022.898                    23963032.547
 113124489.734 8  88149112.83846  21526867.766                    21526873.566
 112306713.061 7  87511888.326 7  21371276.359                    21371283.707
 106826826.970 8  83241770.698 8  20328447.781                    20328454.996
 11  8 12  2 43  0.0000000  0  8G25G30G29G10G26G02G12G05
 113495628.560 8  88438232.654 7  21597498.984                    21597508.727
 113018907.724 7  88066570.09845  21506741.586                    21506749.313
 119234449.221 7  92910042.076 6  22689564.914                    22689572.621
 122540299.963 7  95486069.09343  23318627.992                    23318635.746
 125830440.924 6  98049772.65043  23944739.281                    23944748.668
 113162734.214 8  88178913.71846  21534145.445                    21534150.953
 112365164.895 7  87557435.198 7  21382399.508                    21382406.348
 106845472.033 8  83256299.330 8  20331995.992                    20332002.910
 11  8 12  2 43 30.0000000  0  8G25G30G29G10G26G02G12G05
 113491048.727 8  88434663.947 7  21596627.719                    21596637.453
 113045082.178 7  88086965.77146  21511722.383                    21511730.309
 119152556.641 7  92846229.742 7  22673980.938                    22673988.910
 122642169.811 7  95565448.19944  23338013.672                    23338020.449
 125734377.707 6  97974918.32243  23926458.695                    23926468.168
 113201074.734 8  88208789.44246  21541441.719                    21541447.188
 112424069.926 7  87603335.222 7  21393608.742                    21393616.145
 106864654.708 8  83271246.879 8  20335646.055                    20335652.945
 11  8 12  2 44  0.0000000  0  8G25G30G29G10G26G02G12G05
 113487049.925 8  88431547.998 7  21595866.875                    21595876.523
 113071821.749 7  88107801.80945  21516810.750                    21516818.980
 119070731.777 7  92782470.204 7  22658410.125                    22658417.922
 122744237.060 7  95644981.11143  23357435.719                    23357443.320
 125638337.292 6  97900081.77443  23908182.734                    23908191.555
 113239510.764 8  88238739.58846  21548755.688                    21548760.793
 112483425.538 7  87649586.328 7  21404903.742                    21404911.090
 106884373.450 8  83286612.148 8  20339398.516                    20339405.262
 11  8 12  2 44 30.0000000  0  8G25G30G29G10G26G02G12G05
 113483631.961 8  88428884.633 7  21595216.602                    21595225.898
 113099124.940 8  88129077.02445  21522006.102                    21522013.707
 118988976.341 7  92718764.744 7  22642852.664                    22642859.965
 122846498.830 7  95724665.60644  23376895.000                    23376903.293
 125542323.185 6  97825265.74943  23889911.031                    23889921.738
 113278042.032 8  88268763.94545  21556088.320                    21556093.293
 112543229.454 7  87696186.772 7  21416284.227                    21416291.309
 106904626.903 8  83302394.072 8  20343252.883                    20343259.195
 11  8 12  2 45  0.0000000  0  8G25G30G29G10G26G02G12G05
 113480794.779 8  88426673.824 7  21594676.430                    21594685.961
 113126990.248 7  88150790.24445  21527308.320                    21527316.117
 118907292.215 7  92655114.845 7  22627308.625                    22627315.859
 122948952.767 7  95804499.81543  23396391.977                    23396399.410
 125446338.707 6  97750472.75343  23871646.781                    23871655.883
 113316668.697 8  88298862.64345  21563438.766                    21563443.875
 112603479.254 7  87743134.652 7  21427749.383                    21427756.664
 106925413.871 8  83318591.732 8  20347207.789                    20347214.965
 11  8 12  2 45 30.0000000  0  8G25G30G29G10G26G02G12G05
 113478538.152 8  88424915.412 7  21594247.133                    21594256.570
 113155415.937 7  88172940.12545  21532718.289                    21532726.152
 118825681.131 7  92591521.853 7  22611778.898                    22611786.703
 123051595.861 7  95884481.43243  23415923.516                    23415931.883
 125350387.426 6  97675705.62043  23853387.758                    23853397.414
 113355390.016 8  88329035.09345  21570807.008                    21570812.027
 112664172.472 7  87790428.059 7  21439298.977                    21439306.082
 106946732.929 8  83335203.999 8  20351265.211                    20351272.055
 11  8 12  2 46  0.0000000  0  8G25G30G29G10G26G02G12G05
 113476861.536 8  88423608.953 7  21593928.305                    21593937.836
 113184400.109 7  88195525.18946  21538233.305                    21538241.492
 118744144.804 7  92527987.100 7  22596262.727                    22596270.246
 123154425.211 6  95964608.19143  23435492.477                    23435499.633
 125254472.415 6  97600966.76543  23835135.391                    23835145.180
 113394206.137 8  88359281.42346  21578193.336                    21578198.680
 112725306.432 7  87838064.898 7  21450932.016                    21450939.238
 106968582.284 8  83352229.490 8  20355422.969                    20355429.699
 11  8 12  2 46 30.0000000  0  8G25G30G29G10G26G02G12G05
 113475764.720 8  88422754.308 7  21593719.719                    21593728.953
 113213941.120 7  88218544.15245  21543854.977                    21543863.145
 118662685.102 7  92464512.064 6  22580761.688                    22580768.664
 123257438.381 6  96044878.17043  23455095.039                    23455102.414
 125158597.118 6  97526258.82943  23816891.086                    23816900.293
 113433116.665 8  88389601.30946  21585598.094                    21585602.801
 112786879.029 7  87886043.536 7  21462649.070                    21462656.480
 106990960.800 8  83369667.321 8  20359681.414                    20359688.535
 11  8 12  2 47  0.0000000  0  8G25G30G29G10G26G02G12G05
 113475247.156 8  88422351.025 7  21593620.750                    21593630.246
 113244037.159 7  88241995.60945  21549581.938                    21549589.789
 118581303.590 7  92401097.973 6  22565274.922                    22565282.715
 123360632.116 6  96125288.86343  23474732.180                    23474739.676
 125062765.054 7  97451584.57044  23798654.344                    23798663.813
 113472120.963 8  88419994.26446  21593020.469                    21593025.188
 112848887.446 7  87934361.767 7  21474449.250                    21474456.176
 107013866.592 8  83387516.000 8  20364040.211                    20364047.105
 11  8 12  2 47 30.0000000  0  8G25G30G29G10G26G02G12G05
 113475308.511 8  88422398.851 7  21593632.375                    21593641.926
 113274686.319 7  88265878.07945  21555414.281                    21555422.309
 118500002.202 7  92337746.284 7  22549804.156                    22549811.254
 123464003.927 7  96205838.32543  23494403.070                    23494410.328
 124966979.433 7  97376946.52144  23780427.109                    23780436.609
 113511219.120 8  88450460.36545  21600460.492                    21600465.242
 112911329.780 7  87983018.122 7  21486331.422                    21486338.539
 107037298.338 8  83405774.533 8  20368499.000                    20368505.559
 11  8 12  2 48  0.0000000  0  8G25G30G29G10G26G02G12G05
 113475948.434 8  88422897.498 7  21593754.047                    21593764.086
 113305887.005 7  88290190.29945  21561351.602                    21561359.719
 118418782.896 7  92274458.549 7  22534347.867                    22534356.000
 123567551.102 7  96286524.40943  23514107.141                    23514114.750
 124871243.899 7  97302347.47643  23762209.125                    23762218.270
 113550410.936 8  88480999.45445  21607918.305                    21607923.109
 112974202.754 7  88032010.039 7  21498296.055                    21498302.797
 107061254.648 8  83424441.813 8  20373057.602                    20373064.676
 11  8 12  2 48 30.0000000  0  8G25G30G29G10G26G02G12G05
 113477166.636 8  88423846.750 7  21593985.898                    21593995.223
 113337637.442 7  88314930.89945  21567393.633                    21567401.387
 118337647.408 7  92211236.140 7  22518908.070                    22518916.527
 123671270.866 7  96367345.04243  23533844.859                    23533851.879
 124775561.909 7  97227790.14443  23744001.266                    23744010.164
 113589696.274 8  88511611.41745  21615393.875                    21615399.254
 113037504.460 7  88081336.040 7  21510341.508                    21510348.715
 107085734.168 8  83443516.790 8  20377716.219                    20377722.902
 11  8 12  2 49  0.0000000  0  8G25G30G29G10G26G02G12G05
 113478962.857 8  88425246.383 7  21594328.289                    21594337.246
 113369935.986 7  88340098.59845  21573539.945                    21573547.543
 118256597.757 7  92148080.616 7  22503485.703                    22503492.781
 123775160.449 7  96448297.95443  23553614.109                    23553621.418
 124679936.916 6  97153277.26243  23725804.406                    23725813.102
 113629075.071 8  88542296.21346  21622887.609                    21622892.676
 113101232.515 7  88130994.248 7  21522468.523                    21522475.742
 107110735.473 8  83462998.345 8  20382473.820                    20382480.320
 11  8 12  2 49 30.0000000  0  8G25G30G29G10G26G02G12G05
 113481336.152 8  88427095.704 7  21594779.609                    21594788.695
 113402780.325 7  88365691.58345  21579789.938                    21579797.789
 118175635.647 7  92084993.310 7  22488079.008                    22488085.930
 123879217.234 6  96529381.15143  23573415.563                    23573423.281
 124584372.267 6  97078811.40344  23707618.875                    23707628.387
 113668546.653 8  88573053.30245  21630398.625                    21630403.992
 113165384.064 7  88180982.459 7  21534676.141                    21534683.289
 107136256.510 8  83482884.893 8  20387330.289                    20387337.117
 11  8 12  2 50  0.0000000  0  9G25G30G29G15G10G26G02G12G05
 113484286.070 8  88429394.337 7  21595340.609                    21595350.633
 113436168.620 7  88391708.44245  21586143.484                    21586151.172
 118094762.843 7  92021975.596 7  22472688.938                    22472696.664
 129401412.08216 100832354.59116  24624282.445                    24624291.008
 123983438.183 7  96610592.29043  23593248.055                    23593256.012
 124488871.405 6  97004395.21843  23689446.180                    23689455.070
 113708111.156 8  88603882.80745  21637927.766                    21637932.672
 113229956.434 7  88231298.589 7  21546964.195                    21546971.730
 107162295.786 8  83503175.251 8  20392285.211                    20392292.113
 11  8 12  2 50 30.0000000  0  9G25G30G29G15G10G26G02G12G05
 113487811.967 8  88432141.792 7  21596011.891                    21596021.254
 113470098.738 8  88418147.49645  21592599.828                    21592608.285
 118013981.167 7  91959028.894 7  22457317.219                    22457323.633
 129307430.822 6 100759122.669 6  24606398.484                    24606407.602
 124087820.776 6  96691929.37143  23613110.898                    23613118.621
 124393437.754 6  96930031.47143  23671285.109                    23671294.996
 113747768.052 8  88634784.31345  21645473.789                    21645479.063
 113294947.093 7  88281940.656 7  21559331.313                    21559338.301
 107188851.645 8  83523868.147 8  20397338.703                    20397345.559
 11  8 12  2 51  0.0000000  0  9G25G30G29G15G10G26G02G12G05
 113491913.439 8  88435337.745 7  21596791.930                    21596801.355
 113504569.011 8  88445007.43845  21599159.867                    21599167.598
 117933292.457 7  91896154.640 7  22441962.211                    22441969.887
 129213324.455 6 100685793.199 6  24588490.719                    24588499.512
 124192362.319 7  96773390.33343  23633004.859                    23633012.598
 124298074.710 6  96855722.70744  23653137.773                    23653147.582
 113787517.295 8  88665757.77445  21653038.234                    21653042.727
 113360353.446 7  88332906.650 7  21571778.297                    21571785.102
 107215922.453 8  83544962.304 8  20402489.891                    20402496.770
 11  8 12  2 51 30.0000000  0  9G25G30G29G15G10G26G02G12G05
 113496590.231 8  88438982.017 7  21597682.430                    21597691.789
 113539577.876 8  88472287.05645  21605821.891                    21605829.406
 117852698.956 7  91833354.577 7  22426625.711                    22426633.473
 129119095.481 6 100612367.867 4  24570559.523                    24570568.648
 124297060.473 7  96854973.30643  23652928.977                    23652936.105
 124202786.206 6  96781472.04644  23635005.477                    23635015.094
 113827359.001 8  88696803.27745  21660619.352                    21660624.570
 113426173.423 7  88384194.941 7  21584303.070                    21584310.348
 107243507.286 8  83566456.993 8  20407739.156                    20407745.645
 11  8 12  2 52  0.0000000  0  9G25G30G29G15G10G26G02G12G05
 113501841.160 8  88443073.660 7  21598681.734                    21598691.426
 113575122.635 7  88499984.27445  21612585.695                    21612593.555
 117772202.359 7  91770630.036 7  22411307.875                    22411315.430
 129024747.119 6 100538823.19616  24552604.617                    24552613.711
 124401911.841 7  96936675.68543  23672881.461                    23672888.293
 124107575.151 6  96707281.72144  23616887.133                    23616896.473
 113867292.658 8  88727920.44245  21668218.539                    21668223.660
 113492403.926 8  88435803.148 7  21596905.992                    21596913.297
 107271603.580 8  83588350.222 8  20413085.797                    20413092.453
 11  8 12  2 52 30.0000000  0  9G25G30G29G15G10G26G02G12G05
 113507665.969 8  88447612.488 7  21599790.008                    21599799.359
 113611201.757 8  88528097.85345  21619451.273                    21619459.328
 117691804.711 7  91707982.587 7  22396007.961                    22396015.715
 128930281.230 7 100465213.536 6  24534629.055                    24534637.395
 124506914.096 7  97018495.63743  23692861.828                    23692869.484
 124012445.321 7  96633154.67944  23598784.828                    23598793.582
 113907318.284 8  88759109.26745  21675834.813                    21675840.078
 113559042.338 8  88487729.204 7  21609587.148                    21609594.531
 107300210.136 8  83610641.066 8  20418529.203                    20418536.020
 11  8 12  2 53  0.0000000  0  9G25G30G29G15G10G26G02G12G05
 113514063.957 8  88452597.934 7  21601007.617                    21601016.813
 113647813.098 8  88556626.17245  21626418.266                    21626425.680
 117611507.745 7  91645413.608 7  22380728.016                    22380735.918
 128835700.241 7 100391514.142 6  24516630.008                    24516639.203
 124612064.458 6  97100430.98343  23712871.805                    23712879.023
 123917400.277 7  96559093.69444  23580697.844                    23580707.406
 113947435.670 7  88790369.59645  21683469.148                    21683473.902
 113626086.187 7  88539971.180 7  21622344.867                    21622352.336
 107329325.050 8  83633328.015 8  20424070.094                    20424076.367
 11  8 12  2 53 30.0000000  0  9G25G30G29G15G10G26G02G12G05
 113521034.477 8  88458029.506 7  21602333.750                    21602343.457
 113684954.779 7  88585567.73845  21633486.211                    21633493.570
 117531313.630 7  91582924.789 7  22365467.961                    22365475.430
 128741006.956 6 100317727.272 6  24498611.133                    24498620.457
 124717360.329 6  97182479.69943  23732908.875                    23732916.691
 123822443.659 7  96485101.60644  23562628.586                    23562636.844
 113987644.831 7  88821701.42045  21691121.164                    21691125.723
 113693533.158 7  88592527.276 7  21635179.727                    21635187.277
 107358946.952 8  83656410.029 8  20429706.891                    20429713.379
 11  8 12  2 54  0.0000000  0  9G25G30G29G15G10G26G02G12G05
 113528576.697 8  88463906.576 7  21603769.227                    21603778.668
 113722624.606 7  88614920.83245  21640654.070                    21640661.875
 117451224.159 7  91520517.488 7  22350227.063                    22350234.934
 128646203.947 7 100243854.968 6  24480570.023                    24480579.039
 124822799.070 6  97264639.73743  23752971.984                    23752980.941
 123727578.864 7  96411181.08444  23544575.922                    23544584.301
 114027945.576 7  88853104.61145  21698790.125                    21698795.098
 113761380.095 7  88645395.028 7  21648090.469                    21648097.902
 107389074.025 8  83679885.683 8  20435439.641                    20435446.254
 11  8 12  2 54 30.0000000  0  9G25G30G29G15G10G26G02G12G05
 113536689.801 8  88470228.477 7  21605312.656                    21605322.496
 113760820.367 8  88644683.75945  21647922.563                    21647930.512
 117371241.010 7  91458193.045 7  22335006.508                    22335014.820
 128551293.597 6 100169898.878 5  24462509.211                    24462517.770
 124928378.124 6  97346909.11843  23773064.117                    23773072.168
 123632809.131 7  96337334.60844  23526541.930                    23526550.758
 114068337.860 7  88884579.13745  21706475.664                    21706480.785
 113829624.553 7  88698572.537 7  21661077.266                    21661084.422
 107419704.372 8  83703753.488 8  20441268.117                    20441274.863
 11  8 12  2 55  0.0000000  0  9G25G30G29G15G10G26G02G12G05
 113545372.836 8  88476994.498 7  21606965.383                    21606974.684
 113799539.652 8  88674854.63445  21655290.250                    21655298.836
 117291366.255 7  91395953.045 7  22319807.578                    22319814.578
 128456278.620 6 100095861.397 5  24444428.141                    24444437.141
 125034094.221 6  97429285.30343  23793181.742                    23793188.816
 123538137.953 7  96263564.94543  23508526.547                    23508535.391
 114108820.961 8  88916124.41745  21714179.875                    21714184.824
 113898263.493 8  88752057.430 7  21674138.516                    21674145.973
 107450835.743 8  83728011.698 8  20447192.508                    20447199.121
 11  8 12  2 55 30.0000000  0  9G25G30G29G15G10G26G02G12G05
 113554625.413 8  88484204.316 7  21608725.578                    21608735.355
 113838780.950 8  88705432.25645  21662758.500                    21662766.246
 117211602.129 7  91333799.281 7  22304628.531                    22304635.945
 128361161.511 6 100021744.292 5  24426328.539                    24426336.707
 125139945.277 6  97511766.62643  23813324.047                    23813331.191
 123443569.421 7  96189875.25743  23490530.469                    23490538.715
 114149395.230 7  88947740.74545  21721900.898                    21721905.727
 113967294.727 8  88805847.995 7  21687275.141                    21687282.059
 107482467.183 8  83752659.587 8  20453212.023                    20453218.324
 11  8 12  2 56  0.0000000  0  9G25G30G29G15G10G26G02G12G05
 113564446.679 8  88491857.262 7  21610594.984                    21610604.813
 113878541.994 8  88736414.88245  21670324.508                    21670331.832
 117131950.452 7  91271733.101 7  22289471.258                    22289478.613
 128265945.034 6  99947549.720 5  24408208.492                    24408217.719
 125245928.517 6  97594350.95343  23833491.977                    23833499.195
 123349106.709 7  96116268.03743  23472554.867                    23472563.789
 114190060.663 8  88979428.09645  21729639.633                    21729644.578
 114036715.875 8  88859942.387 7  21700485.156                    21700492.664
 107514596.856 8  83777695.699 8  20459325.703                    20459332.527
 11  8 12  2 56 30.0000000  0  9G25G30G29G15G10G26G02G12G05
 113574836.055 8  88499952.899 7  21612572.117                    21612581.398
 113918820.804 7  88767800.96945  21677989.211                    21677997.121
 117052413.369 7  91209756.217 7  22274335.031                    22274342.883
 128170631.719 6  99873279.721 5  24390070.070                    24390079.754
 125352041.565 7  97677036.45243  23853684.664                    23853691.555
 123254753.851 7  96042746.42444  23454600.508                    23454608.594
 114230817.482 8  89011186.66845  21737395.625                    21737399.938
 114106523.799 8  88914338.168 7  21713769.352                    21713776.340
 107547223.159 8  83803118.796 8  20465534.320                    20465540.848
 11  8 12  2 57  0.0000000  0  9G25G30G29G15G10G26G02G12G05
 113585792.196 8  88508490.156 7  21614656.688                    21614666.309
 113959614.895 8  88799588.56345  21685752.055                    21685760.137
 116972992.670 7  91147870.030 7  22259222.555                    22259229.797
 128075224.167 6  99798936.298 5  24371915.570                    24371924.473
 125458281.462 6  97759820.76943  23873900.914                    23873908.613
 123160513.971 7  95969312.84844  23436666.539                    23436675.367
 114271665.115 8  89043015.99045  21745168.172                    21745173.102
 114176715.499 8  88969033.001 7  21727126.641                    21727133.645
 107580343.822 8  83828927.109 8  20471837.148                    20471843.820
 11  8 12  2 57 30.0000000  0  9G25G30G29G15G10G26G02G12G05
 113597314.025 8  88517468.198 7  21616849.445                    21616858.730
 114000921.746 8  88831775.71745  21693612.656                    21693620.398
 116893690.079 7  91086075.843 7  22244131.328                    22244139.348
 127979724.710 6  99724521.212 6  24353742.773                    24353751.195
 125564645.676 6  97842702.01343  23894142.016                    23894149.762
 123066390.558 7  95895970.02144  23418755.586                    23418764.309
 114312603.236 7  89074915.82645  21752958.266                    21752963.211
 114247288.415 8  89024024.876 7  21740555.891                    21740563.148
 107613956.696 8  83855118.959 8  20478233.445                    20478240.004
 11  8 12  2 58  0.0000000  0  9G25G30G29G15G10G26G02G12G05
 113609400.397 8  88526886.147 7  21619149.180                    21619159.078
 114042738.907 8  88864360.51845  21701569.945                    21701577.625
 116814507.510 7  91024375.193 7  22229063.508                    22229071.273
 127884135.822 6  99650036.506 6  24335552.789                    24335561.570
 125671131.212 6  97925677.77843  23914405.477                    23914412.211
 122972386.737 7  95822720.37844  23400867.766                    23400875.883
 114353631.510 8  89106885.91645  21760765.680                    21760770.910
 114318239.320 8  89079311.285 7  21754057.477                    21754064.813
 107648059.472 8  83881692.554 8  20484722.977                    20484729.250
 11  8 12  2 58 30.0000000  0  9G25G30G29G15G10G26G02G12G05
 113622051.106 8  88536743.838 7  21621556.469                    21621566.023
 114085064.880 8  88897341.78945  21709624.555                    21709632.160
 116735447.487 7  90962770.017 7  22214019.539                    22214026.773
 127788460.798 6  99575484.634 6  24317347.000                    24317355.137
 125777736.261 6  98008746.70143  23934691.273                    23934698.785
 122878506.782 7  95749567.27944  23383001.906                    23383010.766
 114394750.583 8  89138926.73745  21768590.680                    21768595.156
 114389566.180 7  89134890.642 7  21767630.258                    21767637.496
 107682651.891 8  83908647.687 8  20491305.461                    20491311.754
 11  8 12  2 59  0.0000000  0  9G25G30G29G15G10G26G02G12G05
 113635264.873 8  88547040.292 7  21624071.094                    21624080.469
 114127897.171 8  88930717.60445  21717775.414                    21717783.301
 116656511.785 7  90901261.710 7  22198998.133                    22199005.691
 127692701.885 6  99500867.377 6  24299124.273                    24299132.980
 125884457.765 6  98091906.28243  23955000.195                    23955007.570
 122784754.077 7  95676513.31244  23365162.453                    23365170.172
 114435960.087 8  89171038.04045  21776432.547                    21776436.684
 114461266.039 8  89190760.644 7  21781274.797                    21781281.703
 107717731.284 8  83935982.285 8  20497980.969                    20497987.461
 11  8 12  2 59 30.0000000  0  9G25G30G29G15G10G26G02G12G05
 113649040.762 7  88557774.744 7  21626692.367                    21626702.000
 114171233.327 7  88964486.04245  21726021.742                    21726029.453
 116577702.604 7  90839851.978 7  22184001.195                    22184008.617
 127596861.802 6  99426186.929 6  24280886.070                    24280894.824
 125991293.050 6  98175154.55443  23975330.250                    23975337.563
 122691132.257 7  95603561.33744  23347346.125                    23347354.781
 114477260.118 7  89203219.87945  21784291.664                    21784296.211
 114533336.085 7  89246919.108 7  21794988.961                    21794996.141
 107753295.750 8  83963694.866 8  20504748.672                    20504755.781
 11  8 12  3  0  0.0000000  0  9G25G30G29G15G10G26G02G12G05
 113663377.725 8  88568946.415 7  21629420.836                    21629430.465
 114215071.237 7  88998645.45545  21734364.070                    21734371.559
 116499021.758 7  90778542.228 7  22169029.164                    22169036.074
 127500943.130 7  99351445.189 6  24262633.234                    24262642.219
 126098240.003 6  98258489.85843  23995681.766                    23995688.953
 122597644.850 7  95530714.08944  23329555.820                    23329564.738
 114518650.588 7  89235472.19645  21792167.273                    21792172.586
 114605774.067 7  89303364.265 7  21808773.266                    21808780.699
 107789343.539 8  83991784.063 8  20511608.141                    20511615.234
 11  8 12  3  0 30.0000000  0  9G25G30G29G15G10G26G02G12G05
 113678274.632 8  88580554.404 7  21632255.219                    21632265.203
 114259408.443 7  89033193.92845  21742801.195                    21742808.590
 116420471.320 7  90717334.097 7  22154081.195                    22154088.777
 127404948.718 7  99276644.426 6  24244366.781                    24244374.543
 126205295.556 6  98341909.76743  24016052.938                    24016061.488
 122504295.497 7  95457974.42244  23311792.203                    23311800.605
 114560131.364 7  89267794.89645  21800061.336                    21800066.340
 114678576.561 7  89360093.483 7  21822627.156                    21822634.570
 107825872.533 8  84020248.222 8  20518559.539                    20518565.809
 11  8 12  3  1  0.0000000  0  9G25G30G29G15G10G26G02G12G05
 113693730.501 8  88592597.933 7  21635196.766                    21635206.078
 114304242.601 7  89068129.64945  21751332.867                    21751340.246
 116342053.366 7  90656229.185 7  22139158.500                    22139165.918
 127308881.112 7  99201786.644 6  24226084.703                    24226093.516
 126312457.332 5  98425412.43143  24036445.813                    24036453.266
 122411087.841 7  95385345.14744  23294054.945                    23294063.590
 114601702.457 7  89300187.94545  21807972.531                    21807977.234
 114751741.050 7  89417104.759 7  21836550.320                    21836557.191
 107862880.689 8  84049085.752 8  20525601.969                    20525608.465
 11  8 12  3  1 30.0000000  0  9G25G30G29G15G10G26G02G12G05
 113709744.117 8  88605076.060 7  21638244.117                    21638252.773
 114349571.319 7  89103450.73145  21759958.672                    21759965.984
 116263769.932 7  90595229.065 7  22124262.227                    22124269.484
 127212742.884 7  99126873.804 6  24207790.391                    24207799.184
 126419722.722 6  98508995.84643  24056856.563                    24056865.234
 122318025.354 7  95312829.00644  23276346.227                    23276354.438
 114643363.718 8  89332651.27645  21815899.711                    21815904.879
 114825264.549 7  89474395.798 7  21850540.906                    21850548.488
 107900366.161 8  84078295.217 8  20532735.109                    20532741.676
 11  8 12  3  2  0.0000000  0  9G25G30G29G15G10G26G02G12G05
 113726314.402 8  88617987.966 7  21641396.828                    21641406.340
 114395392.214 7  89139155.32645  21768678.070                    21768685.703
 116185623.001 7  90534335.305 7  22109390.859                    22109398.281
 127116536.780 7  99051908.086 6  24189483.180                    24189491.621
 126527089.286 6  98592658.08643  24077288.211                    24077295.914
 122225111.834 7  95240428.95644  23258664.328                    23258673.914
 114685115.232 7  89365184.93645  21823844.945                    21823850.027
 114899144.349 7  89531964.483 7  21864600.188                    21864607.254
 107938327.161 8  84107875.229 8  20539959.195                    20539965.715
 11  8 12  3  2 30.0000000  0  9G25G30G29G15G10G26G02G12G05
 113743440.204 8  88631332.746 7  21644656.563                    21644665.668
 114441702.984 7  89175241.64345  21777490.516                    21777498.574
 116107614.777 7  90473549.627 7  22094546.453                    22094554.219
 127020265.826 7  98976891.820 6  24171163.172                    24171171.793
 126634554.349 6  98676397.15643  24097738.633                    24097746.176
 122132350.734 7  95168147.66044  23241013.117                    23241021.762
 114726956.953 8  89397788.87345  21831807.414                    21831812.605
 114973377.434 7  89589808.451 7  21878725.922                    21878733.348
 107976761.724 8  84137824.259 8  20547272.445                    20547278.969
 11  8 12  3  3  0.0000000  0  9G25G30G29G15G10G26G02G12G05
 113761120.475 8  88645109.577 7  21648020.680                    21648030.391
 114488501.171 7  89211707.75745  21786395.828                    21786403.563
 116029747.334 7  90412873.660 7  22079728.906                    22079736.320
 126923932.519 6  98901827.014 6  24152832.117                    24152839.820
 126742115.434 6  98760210.92443  24118207.492                    24118214.699
 122039745.683 6  95095987.97444  23223390.617                    23223399.652
 114768888.705 7  89430462.98245  21839786.414                    21839791.762
 115047961.131 7  89647925.627 7  21892918.930                    21892925.801
 108015667.814 7  84168140.706 8  20554676.461                    20554683.172
 11  8 12  3  3 30.0000000  0  9G25G30G29G15G10G26G02G12G05
 113779353.415 8  88659317.055 7  21651490.273                    21651499.770
 114535783.797 8  89248551.35345  21795393.602                    21795400.895
 115952022.401 7  90352308.738 7  22064938.164                    22064945.766
 126827539.036 6  98826715.321 6  24134487.852                    24134497.137
 126849769.874 6  98844097.54643  24138692.836                    24138700.793
 121947299.961 7  95023952.41244  23205798.438                    23205807.469
 114810910.185 8  89463206.99645  21847783.180                    21847787.953
 115122892.268 7  89706313.548 7  21907177.727                    21907184.359
 108055042.597 8  84198822.361 8  20562169.211                    20562175.633
 11  8 12  3  4  0.0000000  0  9G25G30G29G15G10G26G02G12G05
 113798138.370 8  88673954.685 7  21655065.039                    21655074.438
 114583549.087 7  89285771.04745  21804483.031                    21804490.695
 115874442.442 7  90291856.813 7  22050175.469                    22050182.688
 126731088.535 6  98751559.162 6  24116134.500                    24116142.707
 126957515.595 6  98928055.24643  24159196.977                    24159204.289
 121855017.635 7  94952044.18344  23188238.609                    23188247.422
 114853022.023 8  89496021.43045  21855796.813                    21855801.742
 115198168.317 7  89764970.207 7  21921502.367                    21921509.656
 108094885.098 8  84229868.483 8  20569751.359                    20569757.859
 11  8 12  3  4 30.0000000  0  9G25G30G29G15G10G26G02G12G05
 113817473.838 8  88689021.274 7  21658744.508                    21658753.766
 114631794.163 7  89323364.61145  21813663.805                    21813671.980
 115797009.291 7  90231519.272 7  22035440.141                    22035447.641
 126634583.728 6  98676360.653 6  24097770.438                    24097778.574
 127065349.628 6  99012081.79643  24179717.000                    24179724.688
 121762902.203 7  94880266.00044  23170709.008                    23170717.855
 114895223.807 7  89528905.92545  21863827.469                    21863832.297
 115273786.012 7  89823893.118 7  21935892.133                    21935898.965
 108135192.739 8  84261277.047 8  20577421.367                    20577427.676
 11  8 12  3  5  0.0000000  0  9G25G30G29G15G10G26G02G12G05
 113837358.709 8  88704515.989 7  21662528.266                    21662538.113
 114680516.683 7  89361330.21245  21822935.055                    21822942.980
 115719725.298 7  90171298.009 7  22020733.563                    22020741.367
 126538027.463 6  98601122.044 6  24079395.672                    24079404.574
 127173269.546 6  99096175.22143  24200252.914                    24200261.055
 121670957.206 7  94808620.63544  23153211.711                    23153221.234
 114937515.767 8  89561860.70845  21871875.359                    21871880.238
 115349743.125 7  89883080.489 7  21950345.883                    21950353.180
 108175963.718 8  84293046.650 8  20585179.688                    20585186.066
 11  8 12  3  5 30.0000000  0  9G25G30G29G15G10G26G02G12G05
 113857791.793 8  88720437.879 7  21666416.328                    21666426.277
 114729714.526 8  89399666.18345  21832297.648                    21832305.152
 115642592.757 7  90111194.790 7  22006055.688                    22006063.035
 126441422.794 6  98525845.748 6  24061012.570                    24061020.875
 127281273.102 6  99180333.88243  24220804.453                    24220812.590
 121579186.676 7  94737111.22044  23135749.156                    23135757.570
 114979897.856 7  89594885.71645  21879940.164                    21879945.203
 115426036.301 7  89942529.735 7  21964864.352                    21964871.738
 108217196.491 8  84325176.097 8  20593025.992                    20593032.590
 11  8 12  3  6  0.0000000  0  9G25G30G29G15G10G26G02G12G05
 113878771.437 8  88736785.660 7  21670408.469                    21670418.535
 114779384.482 7  89438370.04445  21841749.477                    21841757.039
 115565613.355 7  90051210.900 7  21991407.422                    21991414.395
 126344771.834 6  98450533.396 6  24042620.688                    24042628.906
 127389357.699 6  99264555.61343  24241372.031                    24241380.453
 121487593.935 7  94665740.34444  23118319.070                    23118328.070
 115022369.785 8  89627980.70845  21888022.477                    21888027.344
 115502662.673 7  90002238.606 7  21979445.539                    21979452.594
 108258888.167 8  84357663.141 8  20600959.719                    20600966.520
 11  8 12  3  6 30.0000000  0  9G25G30G29G15G10G26G02G12G05
 113900296.361 8  88753558.328 7  21674504.500                    21674514.414
 114829524.307 7  89477440.03745  21851290.484                    21851298.152
 115488789.524 8  89991348.281 7  21976788.258                    21976795.324
 126248077.546 6  98375187.261 6  24024220.375                    24024228.816
 127497520.619 6  99348838.39343  24261956.203                    24261963.184
 121396182.399 7  94594510.64344  23100924.742                    23100932.445
 115064931.967 8  89661146.02345  21896121.586                    21896126.879
 115579619.398 7  90062204.898 7  21994090.008                    21994097.109
 108301036.702 8  84390506.165 8  20608980.109                    20608986.574
 11  8 12  3  7  0.0000000  0  9G25G30G29G15G10G26G02G12G05
 113922365.273 8  88770754.865 7  21678704.203                    21678714.316
 114880131.406 7  89516874.13145  21860920.789                    21860928.293
 115412123.270 8  89931608.445 7  21962198.586                    21962206.309
 126151342.651 6  98299809.484 6  24005812.109                    24005820.340
 127605759.686 6  99433180.52642  24282553.141                    24282560.355
 121304956.089 7  94523425.28344  23083564.625                    23083572.723
 115107584.545 8  89694381.78845  21904238.602                    21904243.160
 115656903.567 8  90122426.333 7  22008796.969                    22008803.816
 108343640.314 8  84423703.796 8  20617087.320                    20617093.797
 11  8 12  3  7 30.0000000  0  9G25G30G29G15G10G26G02G12G05
 113944976.716 8  88788374.169 7  21683007.063                    21683016.598
 114931203.202 7  89556670.32045  21870639.461                    21870646.984
 115335616.625 7  89871993.024 7  21947639.758                    21947646.941
 126054570.108 6  98224402.391 6  23987396.664                    23987404.648
 127714072.410 6  99517580.06342  24303164.445                    24303171.813
 121213918.629 7  94452487.08544  23066240.383                    23066248.434
 115150327.477 8  89727687.94645  21912371.922                    21912376.602
 115734512.465 8  90182900.818 7  22023565.141                    22023571.848
 108386696.738 8  84457254.268 8  20625280.836                    20625287.234
 11  8 12  3  8  0.0000000  0  9G25G30G29G15G10G26G02G12G05
 113968129.413 8  88806415.218 7  21687412.984                    21687422.586
 114982737.205 7  89596826.67545  21880445.914                    21880453.547
 115259272.097 7  89812503.889 7  21933112.367                    21933118.691
 125957762.758 6  98148968.140 6  23968975.023                    23968982.926
 127822456.295 6  99602035.07042  24323789.234                    24323796.520
 121123073.661 7  94381698.88844  23048953.531                    23048961.547
 115193160.598 8  89761064.38845  21920522.750                    21920527.359
 115812443.094 8  90243625.977 7  22038394.797                    22038401.770
 108430204.100 8  84491156.131 7  20633559.914                    20633566.555
 11  8 12  3  8 30.0000000  0  9G25G30G29G15G10G26G02G12G05
 113991821.739 8  88824876.759 7  21691921.281                    21691931.281
 115034730.595 7  89637341.01545  21890339.836                    21890347.645
 115183091.307 8  89753142.366 7  21918615.117                    21918622.590
 125860923.120 7  98073508.719 6  23950547.930                    23950555.594
 127930909.107 6  99686543.86042  24344426.492                    24344434.125
 121032424.757 7  94311063.44844  23031703.570                    23031711.605
 115236083.783 7  89794510.99945  21928691.234                    21928695.445
 115890692.347 8  90304599.430 7  22053285.383                    22053292.441
 108474160.084 8  84525407.558 8  20641924.414                    20641931.461
 11  8 12  3  9  0.0000000  0  9G25G30G29G15G10G26G02G12G05
 114016052.563 8  88843757.911 7  21696532.328                    21696541.918
 115087181.140 7  89678211.56245  21900320.914                    21900328.355
 115107076.888 8  89693910.473 7  21904149.914                    21904156.797
 125764054.414 6  97998026.682 6  23932112.313                    23932121.801
 128039428.218 6  99771104.22242  24365076.797                    24365084.445
 120941975.654 7  94240583.71844  23014491.391                    23014500.266
 115279097.498 7  89828028.16145  21936876.344                    21936881.152
 115969257.918 7  90365819.376 7  22068235.641                    22068242.895
 108518562.786 7  84560007.081 8  20650374.148                    20650380.313
 11  8 12  3  9 30.0000000  0 10G21G25G30G29G15G10G26G02G12G05
 132316267.18116 103103641.05752  25178955.391                    25178962.863
 114040820.157 8  88863057.328 7  21701245.891                    21701255.160
 115140085.978 7  89719436.11945  21910388.359                    21910396.070
 115031230.597 8  89634809.569 7  21889716.977                    21889723.898
 125667159.239 6  97922524.049 6  23913674.828                    23913683.500
 128148011.436 6  99855714.55743  24385739.586                    24385747.531
 120851730.089 7  94170262.56544  22997317.828                    22997326.246
 115322201.522 8  89861615.70345  21945078.344                    21945083.645
 116048136.014 8  90427282.843 7  22083245.789                    22083252.770
 108563409.925 8  84594952.928 8  20658907.836                    20658914.531
 11  8 12  3 10  0.0000000  0 10G21G25G30G29G15G10G26G02G12G05
 132258743.875 6 103058817.87142  25168008.008                    25168016.602
 114066122.753 8  88882773.628 7  21706060.234                    21706070.203
 115193442.162 7  89761012.36645  21920541.633                    21920549.469
 114955554.510 7  89575841.298 7  21875316.344                    21875323.445
 125570240.142 6  97847002.744 6  23895231.320                    23895240.262
 128256656.083 6  99940372.69642  24406412.844                    24406422.008
 120761691.479 7  94100102.68144  22980184.352                    22980191.914
 115365395.967 7  89895273.68845  21953298.383                    21953303.469
 116127323.865 7  90488987.645 7  22098315.000                    22098321.930
 108608699.087 8  84630243.209 8  20667526.500                    20667533.133
 11  8 12  3 10 30.0000000  0 10G21G25G30G29G15G10G26G02G12G05
 132201232.793 5 103014004.18042  25157064.914                    25157073.238
 114091959.213 8  88902905.909 7  21710977.055                    21710987.008
 115247247.421 7  89802938.55045  21930780.555                    21930788.160
 114880051.373 7  89517007.766 7  21860948.156                    21860955.285
 125473300.134 6  97771465.155 6  23876784.258                    23876793.027
 128365359.808 5 100025076.85643  24427099.711                    24427107.863
 120671863.743 7  94030107.12344  22963090.344                    22963098.551
 115408681.238 7  89929002.44245  21961535.625                    21961539.879
 116206818.930 8  90550931.852 7  22113442.211                    22113449.043
 108654428.629 7  84665876.638 8  20676228.070                    20676234.742
 11  8 12  3 11  0.0000000  0 10G21G25G30G29G15G10G26G02G12G05
 132143733.130 6 102969199.47842  25146123.320                    25146131.223
 114118327.791 8  88923452.851 7  21715994.961                    21716004.828
 115301498.909 7  89845212.43745  21941104.305                    21941111.617
 114804722.962 7  89458310.386 7  21846613.500                    21846620.770
 125376342.201 6  97695913.609 6  23858334.852                    23858343.090
 128474120.377 6 100109825.28243  24447796.016                    24447805.086
 120582250.490 7  93960278.68444  22946037.422                    22946045.461
 115452057.147 7  89962801.84445  21969789.344                    21969794.207
 116286618.080 7  90613113.020 7  22128627.344                    22128634.012
 108700595.792 8  84701851.061 8  20685013.602                    20685020.305
 11  8 12  3 11 30.0000000  0 10G21G25G30G29G15G10G26G02G12G05
 132086244.398 6 102924403.18142  25135183.000                    25135191.570
 114145227.046 8  88944413.293 7  21721113.898                    21721123.516
 115356194.080 7  89887832.04445  21951512.523                    21951520.156
 114729571.703 7  89399751.012 7  21832312.625                    21832319.859
 125279369.157 6  97620350.309 6  23839879.961                    23839889.246
 128582935.425 6 100194616.22443  24468503.125                    24468511.246
 120492855.392 7  93890620.20944  22929026.172                    22929034.313
 115495523.873 7  89996672.01845  21978060.914                    21978065.750
 116366718.271 7  90675528.764 7  22143869.750                    22143877.242
 108747198.923 8  84738165.212 7  20693882.031                    20693888.527
 11  8 12  3 12  0.0000000  0 10G21G25G30G29G15G10G26G02G12G05
 132028766.045 6 102879614.98242  25124245.211                    25124253.520
 114172655.327 8  88965785.974 7  21726333.258                    21726342.730
 115411330.012 7  89930795.12145  21962003.969                    21962012.082
 114654599.597 7  89341331.245 7  21818045.703                    21818052.926
 125182383.916 6  97544777.466 6  23821424.281                    23821432.891
 128691802.453 6 100279447.66743  24489219.945                    24489228.191
 120403682.087 7  93821134.56344  22912057.094                    22912064.934
 115539081.424 7  90030612.98045  21986349.641                    21986354.488
 116447116.548 7  90738176.782 7  22159169.031                    22159176.184
 108794235.535 8  84774817.128 8  20702832.938                    20702839.313
 11  8 12  3 12 30.0000000  0 10G21G25G30G29G15G10G26G02G12G05
 131971297.559 6 102834834.49643  25113309.742                    25113317.984
 114200611.030 8  88987569.629 7  21731652.820                    21731662.477
 115466904.165 7  89974099.65045  21972579.898                    21972587.734
 114579808.963 7  89283052.853 7  21803813.773                    21803821.000
 125085389.266 6  97469197.295 6  23802966.820                    23802976.000
 128800719.208 6 100364317.82843  24509946.484                    24509954.359
 120314734.396 7  93751824.72644  22895130.891                    22895139.070
 115582729.996 7  90064624.86945  21994656.008                    21994660.590
 116527809.940 7  90801054.755 7  22174524.516                    22174531.602
 108841703.658 8  84811805.294 8  20711865.648                    20711871.719
 11  8 12  3 13  0.0000000  0 10G21G25G30G29G15G10G26G02G12G05
 131913838.395 6 102790061.28943  25102375.344                    25102383.277
 114229092.236 8  89009762.777 7  21737072.344                    21737081.738
 115522913.478 7  90017743.26145  21983238.367                    21983245.914
 114505201.716 7  89224917.367 7  21789616.398                    21789623.633
 124988387.631 6  97393611.668 6  23784508.789                    23784516.785
 128909683.272 6 100449224.89343  24530681.320                    24530688.980
 120226015.645 7  93682693.28944  22878248.109                    22878256.934
 115626469.272 8  90098707.44045  22002978.836                    22002983.984
 116608795.208 7  90864160.177 7  22189935.719                    22189942.941
 108889600.479 8  84849127.519 8  20720979.922                    20720986.758
 11  8 12  3 13 30.0000000  0 10G21G25G30G29G15G10G26G02G12G05
 131856387.855 6 102745294.78142  25091442.883                    25091450.770
 114258097.531 8  89032364.312 7  21742592.219                    21742601.695
 115579355.474 7  90061724.03745  21993978.797                    21993986.262
 114430780.280 7  89166926.661 7  21775454.703                    21775461.848
 124891382.434 7  97318023.292 6  23766049.477                    23766057.512
 129018692.496 6 100534167.14943  24551424.938                    24551432.703
 120137529.931 7  93613743.42844  22861410.328                    22861418.328
 115670300.047 7  90132861.32445  22011319.102                    22011324.527
 116690069.991 7  90927491.193 7  22205401.883                    22205408.906
 108937924.378 8  84886782.519 8  20730175.734                    20730182.066
 11  8 12  3 14  0.0000000  0 10G21G25G30G29G15G10G26G02G12G05
 131798945.481 6 102700534.62743  25080511.750                    25080519.801
 114287625.191 8  89055372.868 7  21748211.250                    21748220.867
 115636227.371 7  90106039.80845  22004800.938                    22004808.836
 114356546.845 7  89109082.432 7  21761328.281                    21761334.910
 124794376.426 7  97242434.273 6  23747589.016                    23747597.074
 129127744.387 6 100619142.66542  24572177.234                    24572184.590
 120049280.848 6  93544977.95544  22844616.813                    22844624.992
 115714222.265 7  90167086.44745  22019677.258                    22019682.707
 116771630.840 7  90991045.110 7  22220922.313                    22220928.941
 108986672.989 8  84924768.471 8  20739452.313                    20739458.684
 11  8 12  3 14 30.0000000  0 10G21G25G30G29G15G10G26G02G12G05
 131741511.001 6 102655780.62043  25069581.398                    25069590.160
 114317673.951 8  89078787.502 7  21753929.367                    21753938.617
 115693526.763 7  90150688.66745  22015704.492                    22015712.820
 114282504.350 7  89051386.970 7  21747238.594                    21747245.648
 124697372.604 7  97166846.963 6  23729129.961                    23729138.176
 129236836.992 6 100704149.87942  24592936.945                    24592944.523
 119961272.359 7  93476399.97244  22827869.047                    22827877.738
 115758236.362 7  90201383.17845  22028052.977                    22028057.660
 116853475.207 7  91054819.943 7  22236496.500                    22236503.566
 109035844.301 8  84963083.797 8  20748809.398                    20748815.938
 11  8 12  3 15  0.0000000  0  9G21G25G30G29G15G26G02G12G05
 131684084.229 6 102611032.56943  25058653.586                    25058662.324
 114348241.982 8  89102606.758 7  21759746.164                    21759755.527
 115751250.789 7  90195668.42045  22026689.344                    22026696.957
 114208654.769 7  88993841.842 7  21733185.570                    21733192.762
 124600374.182 7  97091263.866 6  23710671.484                    23710679.094
 119873508.204 7  93408012.37644  22811168.695                    22811176.223
 115802342.183 7  90235751.37845  22036446.203                    22036451.438
 116935600.356 7  91118813.583 7  22252124.391                    22252131.457
 109085436.357 8  85001726.975 8  20758246.313                    20758253.086
 11  8 12  3 15 30.0000000  0  9G21G25G30G29G15G26G02G12G05
 131626663.735 6 102566289.41643  25047727.000                    25047735.113
 114379327.112 8  89126828.944 7  21765661.570                    21765671.238
 115809396.334 7  90240976.62645  22037753.797                    22037761.973
 114134999.832 7  88936448.375 7  21719169.484                    21719176.406
 124503383.626 6  97015686.873 6  23692215.727                    23692223.004
 119785991.610 7  93339817.66244  22794514.633                    22794522.676
 115846539.665 7  90270191.00045  22044856.672                    22044861.715
 117018002.592 7  91183023.109 7  22267805.125                    22267812.184
 109135446.151 8  85040695.661 8  20767762.500                    20767769.461
 11  8 12  3 16  0.0000000  0  9G21G25G30G29G15G26G02G12G05
 131569249.312 6 102521550.98243  25036800.977                    25036809.477
 114410927.416 7  89151452.565 7  21771674.883                    21771684.535
 115867960.256 7  90286610.84045  22048898.313                    22048905.668
 114061541.827 7  88879208.381 7  21705190.836                    21705198.344
 124406403.538 6  96940118.111 6  23673760.063                    23673768.609
 119698726.127 7  93271818.64644  22777908.492                    22777916.699
 115890828.666 7  90304701.94945  22053284.656                    22053289.770
 117100678.764 7  91247446.109 7  22283537.758                    22283544.988
 109185871.403 8  85079988.077 8  20777358.523                    20777365.258
 11  8 12  3 16 30.0000000  0  9G21G25G30G29G15G26G02G12G05
 131511840.006 6 102476816.57843  25025877.227                    25025884.574
 114443041.103 8  89176476.224 7  21777785.414                    21777795.254
 115926939.945 7  90332569.03645  22060122.430                    22060129.668
 113988283.042 7  88822123.631 7  21691249.820                    21691256.953
 124309437.063 6  96864559.913 6  23655308.570                    23655316.332
 119611715.533 7  93204018.22444  22761350.359                    22761358.594
 115935209.540 7  90339284.47645  22061729.992                    22061735.086
 117183625.968 7  91312080.313 7  22299321.961                    22299329.535
 109236709.874 8  85119602.488 8  20787032.555                    20787039.359
 11  8 12  3 17  0.0000000  0  9G21G25G30G29G15G26G02G12G05
 131454435.474 6 102432085.84743  25014953.828                    25014960.660
 114475666.541 8  89201898.647 7  21783994.305                    21784003.422
 115986332.596 7  90378849.01145  22071423.969                    22071431.820
 113915225.626 8  88765195.792 7  21677347.641                    21677354.758
 124212487.152 6  96789014.654 6  23636858.961                    23636867.367
 119524963.682 7  93136419.45744  22744841.898                    22744850.215
 115979682.667 7  90373938.87545  22070193.266                    22070197.824
 117266841.246 7  91376923.379 7  22315157.633                    22315164.867
 109287959.338 8  85159537.140 7  20796785.141                    20796791.727
 11  8 12  3 17 30.0000000  0  9G21G25G30G29G15G26G02G12G05
 131397035.228 6 102387358.47143  25004029.188                    25004038.676
 114508801.667 8  89227718.216 7  21790299.563                    21790309.336
 116046135.169 7  90425448.42345  22082803.453                    22082811.844
 113842371.866 8  88708426.632 7  21663484.188                    21663491.152
 124115556.567 6  96713484.438 6  23618413.727                    23618421.738
 119438474.089 7  93069025.01344  22728383.695                    22728391.559
 116024247.718 8  90408664.88645  22078673.453                    22078677.902
 117350321.354 7  91441972.822 7  22331043.492                    22331050.340
 109339617.489 8  85199790.262 8  20806615.242                    20806621.777
 11  8 12  3 18  0.0000000  0  9G21G25G30G29G15G26G02G12G05
 131339638.629 6 102342633.97043  24993107.164                    24993116.285
 114542444.934 8  89253933.754 7  21796701.703                    21796711.773
 116106345.071 7  90472365.23445  22094261.563                    22094269.723
 113769724.242 8  88651818.110 7  21649659.984                    21649666.719
 124018648.581 7  96637971.809 6  23599972.305                    23599981.055
 119352250.577 7  93001837.92944  22711975.633                    22711983.586
 116068905.278 7  90443462.99545  22087171.328                    22087176.441
 117434063.840 7  91507226.732 7  22346979.219                    22346985.996
 109391682.167 8  85240360.152 7  20816523.125                    20816529.563
 11  8 12  3 18 30.0000000  0  9G21G25G30G29G15G26G02G12G05
 131282245.540 5 102297912.13542  24982185.141                    24982194.605
 114576594.548 8  89280543.849 7  21803200.219                    21803210.164
 116166959.550 7  90519597.30645  22105795.914                    22105803.297
 113697285.050 8  88595372.022 7  21635875.078                    21635881.531
 123921765.927 7  96562478.958 6  23581536.227                    23581544.375
 119266296.994 7  92934861.17344  22695619.328                    22695627.109
 116113655.531 7  90478333.32145  22095686.922                    22095692.195
 117518065.609 7  91572682.683 7  22362964.156                    22362971.277
 109444151.309 8  85281245.202 7  20826507.430                    20826514.043
 11  8 12  3 19  0.0000000  0  9G21G25G30G29G15G26G02G12G05
 131224855.067 6 102253192.38043  24971264.438                    24971272.809
 114611248.211 8  89307546.698 7  21809794.734                    21809804.414
 116227975.427 7  90567142.14945  22117406.703                    22117414.129
 113625056.310 8  88539089.917 7  21622129.977                    21622136.875
 123824911.446 7  96487008.022 6  23563105.195                    23563114.055
 119180616.732 7  92868097.38744  22679315.055                    22679322.867
 116158498.525 7  90513275.89545  22104220.109                    22104225.621
 117602323.301 7  91638338.054 7  22378997.695                    22379004.457
 109497022.305 8  85322443.395 7  20836568.492                    20836575.234
 11  8 12  3 19 30.0000000  0  9G21G25G30G29G15G26G02G12G05
 131167466.903 6 102208474.42143  24960344.320                    24960353.039
 114646404.149 8  89334940.915 7  21816484.414                    21816493.945
 116289389.736 7  90614997.46645  22129093.727                    22129101.340
 113553040.639 8  88482973.857 7  21608426.164                    21608433.121
 123728088.137 7  96411561.360 6  23544680.664                    23544688.715
 119095213.688 7  92801549.61044  22663063.477                    22663071.180
 116203434.291 7  90548290.76445  22112771.297                    22112776.395
 117686834.003 7  91704190.568 7  22395079.633                    22395086.516
 109550292.726 8  85363952.829 7  20846705.219                    20846711.816
 11  8 12  3 20  0.0000000  0  9G21G25G30G29G15G26G02G12G05
 131110080.191 6 102163757.57243  24949424.422                    24949432.016
 114682060.328 8  89362724.933 7  21823269.469                    21823279.402
 116351199.631 7  90663161.04945  22140855.180                    22140863.387
 113481239.909 8  88427025.299 7  21594762.688                    21594770.230
 123631298.978 7  96336141.294 6  23526262.516                    23526270.496
 119010091.288 7  92735220.51544  22646865.078                    22646873.121
 116248462.984 7  90583378.03745  22121340.148                    22121344.750
 117771594.349 7  91770237.611 7  22411209.141                    22411215.910
 109603960.193 8  85405771.647 8  20856917.953                    20856924.988
 11  8 12  3 20 30.0000000  0  9G21G25G30G29G15G26G02G12G05
 131052694.304 6 102119041.36242  24938503.617                    24938512.031
 114718214.445 8  89390896.960 7  21830149.383                    21830158.898
 116413401.856 7  90711630.32845  22152692.086                    22152700.453
 113409656.051 8  88371245.714 7  21581141.195                    21581148.160
 123534546.576 7  96260749.891 6  23507850.422                    23507858.961
 118925252.976 7  92669112.77944  22630720.594                    22630728.688
 116293584.608 7  90618537.72545  22129926.484                    22129931.859
 117856601.060 7  91836476.630 7  22427384.898                    22427391.934
 109658022.191 8  85447897.884 7  20867205.656                    20867212.156
 11  8 12  3 21  0.0000000  0  9G21G25G30G29G15G26G02G12G05
 130995308.954 6 102074325.55842  24927583.195                    24927591.125
 114754865.018 8  89419455.850 7  21837123.992                    21837133.410
 116475993.932 7  90760403.39045  22164602.797                    22164611.086
 113338291.964 8  88315637.391 7  21567560.703                    21567567.359
 123437834.384 7  96185389.798 6  23489447.211                    23489455.219
 118840702.985 7  92603229.73244  22614631.531                    22614639.445
 116338800.212 7  90653770.64345  22138531.109                    22138535.988
 117941851.789 7  91902905.795 7  22443608.063                    22443614.816
 109712476.738 8  85490330.023 7  20877567.883                    20877574.703
 11  8 12  3 21 30.0000000  0  9G21G25G30G29G15G26G02G12G05
 130937923.924 6 102029610.00242  24916663.039                    24916671.258
 114792010.124 8  89448400.093 7  21844192.383                    21844202.023
 116538972.968 7  90809477.98545  22176587.859                    22176595.828
 113267150.033 8  88260202.169 7  21554022.648                    21554029.395
 123341165.267 7  96110063.250 6  23471051.438                    23471059.297
 118756444.814 7  92537574.09044  22598597.484                    22598605.785
 116384109.238 7  90689076.34545  22147152.953                    22147158.016
 118027343.673 7  91969522.878 7  22459876.117                    22459883.488
 109767321.652 8  85533066.325 8  20888004.813                    20888011.246
 11  8 12  3 22  0.0000000  0  9G21G25G30G29G15G26G02G12G05
 130880538.241 6 101984893.98842  24905743.492                    24905750.813
 114829647.488 8  89477727.897 7  21851354.844                    21851364.699
 116602335.862 7  90858851.69745  22188644.984                    22188652.859
 113196232.259 8  88204941.615 7  21540527.570                    21540534.520
 123244542.296 6  96034772.676 6  23452664.625                    23452672.219
 118672482.143 7  92472148.67644  22582619.773                    22582628.195
 116429512.213 7  90724455.26045  22155792.844                    22155797.945
 118113072.901 7  92036324.910 7  22476190.164                    22476197.023
 109822554.412 8  85576104.855 7  20898515.016                    20898521.543
